GFSSE_700_spd_000.txt.gz
Wind_Speed
30 32 32 31 31 30 28 26 24 24 22 22 22 22 22 20 17 15 11 8 9 9 7 7 8 10 8 8 8 6 4 8 13 14 13 10 9 10 9 9 9 7 8
29 32 31 29 29 27 24 23 23 21 22 22 22 21 21 19 17 13 9 8 9 8 6 7 9 9 9 10 9 8 5 5 9 11 14 10 10 11 10 13 11 14 13
31 30 28 26 24 23 21 22 22 21 22 22 22 21 20 18 15 10 8 8 8 7 7 9 9 9 10 10 9 9 8 6 7 12 12 12 11 10 10 10 11 12 12
29 28 25 23 23 22 21 21 22 23 23 22 21 20 19 16 12 9 8 7 6 7 8 8 9 9 9 10 9 8 8 10 8 11 13 12 10 10 10 8 10 10 11
27 26 23 22 22 21 21 23 24 23 21 19 18 18 17 14 11 9 6 5 5 7 8 8 8 9 8 9 8 8 7 5 6 7 12 12 9 10 10 10 11 11 10
25 24 22 21 20 21 22 23 22 20 18 17 17 17 15 13 10 8 6 5 6 7 7 7 8 9 9 8 7 7 7 6 6 5 8 11 9 9 9 9 9 10 8
24 22 21 19 19 19 20 20 19 18 18 17 16 15 13 11 9 6 5 4 5 6 6 7 8 8 9 9 9 8 7 6 6 3 4 9 9 6 6 7 7 7 7
23 22 20 19 19 19 18 18 17 17 17 15 14 12 10 9 7 4 2 2 3 5 5 6 7 7 8 9 9 9 8 7 6 5 5 5 7 4 5 5 7 8 7
22 21 19 19 19 19 19 19 18 17 16 14 12 10 8 5 4 2 3 2 3 4 5 7 6 6 7 8 9 8 8 7 6 3 4 4 5 5 4 4 5 5 6
21 20 19 18 17 18 19 18 18 16 15 12 11 9 6 3 2 1 2 2 2 3 4 6 6 5 6 7 9 10 9 7 6 6 5 3 3 4 2 2 4 5 5
21 20 19 18 18 16 16 16 15 15 13 11 9 7 5 4 1 2 3 2 3 5 6 7 6 5 4 4 6 8 9 9 7 5 4 5 3 1 3 1 2 4 4
20 19 18 17 16 17 15 14 14 13 12 10 8 7 6 4 2 1 2 5 5 5 6 6 6 5 7 9 10 10 10 10 8 6 7 5 5 3 2 1 0 2 2
17 17 17 17 15 15 14 14 13 12 11 10 8 7 6 5 4 4 4 5 6 7 8 9 10 11 11 13 15 16 15 13 10 8 9 8 7 7 5 5 0 0 2
16 16 15 15 15 15 14 13 11 11 10 9 8 7 6 6 5 6 6 7 8 8 10 10 12 14 14 15 16 18 19 17 14 11 11 11 9 8 8 7 8 3 0
16 15 14 13 12 12 12 12 11 10 9 9 8 8 6 7 7 7 8 9 10 10 12 13 14 14 16 18 19 20 20 18 15 13 13 11 11 11 9 9 8 10 4
18 17 15 14 13 12 11 10 11 11 10 9 9 9 9 9 10 11 11 11 11 12 14 16 15 17 18 19 21 20 18 16 12 11 13 13 13 13 12 10 10 10 9
17 17 15 15 14 12 12 12 10 11 10 10 11 11 11 11 10 10 12 13 13 15 15 17 19 19 18 16 16 17 14 13 11 9 9 12 13 13 14 14 12 12 11
18 18 17 15 13 14 12 12 13 13 11 10 11 12 12 12 12 13 14 14 15 15 17 19 17 19 18 15 14 13 11 8 7 5 6 7 11 13 14 16 15 14 15
19 18 18 16 13 13 14 11 11 12 12 13 12 12 12 13 13 14 15 16 17 18 17 20 21 17 17 15 15 13 9 7 6 5 4 6 7 10 14 17 18 17 17
20 20 20 17 16 13 13 14 13 12 12 13 13 12 14 15 14 16 15 17 18 17 20 20 20 19 17 15 14 13 9 7 7 6 5 5 8 9 11 13 16 21 20
18 18 20 19 15 15 15 14 14 13 14 15 15 14 15 15 15 16 16 15 16 18 19 19 16 16 16 15 14 13 11 9 7 6 7 6 6 9 10 12 13 17 21
20 19 19 18 18 16 17 15 15 15 16 14 14 13 13 12 11 10 9 10 10 12 12 13 12 12 12 13 13 11 6 15 9 9 8 6 5 7 8 11 13 15 17
23 21 20 19 18 19 17 18 17 16 14 11 11 10 9 8 6 4 2 1 3 6 9 10 10 9 10 11 10 9 8 4 10 12 9 9 9 10 10 10 12 13 16
23 23 21 22 22 21 19 19 18 16 16 14 13 13 12 10 8 6 5 5 7 9 11 12 11 9 9 11 9 9 10 12 6 4 10 14 13 13 12 13 14 15 15
26 25 22 24 22 21 20 21 21 20 19 18 15 12 9 8 6 6 8 9 11 11 12 13 12 10 10 10 10 10 10 9 9 9 8 10 17 20 18 16 15 17 18
26 26 25 25 22 20 21 21 23 23 19 18 15 10 7 4 2 5 7 10 12 14 14 14 12 11 10 9 9 9 11 11 9 10 11 13 16 18 19 18 19 19 20

GFSSE_700_spd_006.txt.gz
Wind_Speed
29 30 30 32 33 29 26 26 24 23 24 23 21 18 14 13 12 11 11 13 12 13 12 11 10 10 9 8 6 5 7 11 11 11 11 12 12 10 6 8 8 8 8
32 31 31 31 29 25 25 22 22 23 22 21 19 16 13 12 11 10 11 12 11 10 10 10 10 11 10 10 11 7 7 10 11 10 11 12 14 12 8 8 10 14 12
32 30 29 27 26 25 23 22 20 21 20 19 17 15 12 11 8 10 10 11 9 9 10 9 10 11 11 11 11 9 7 10 15 9 9 13 14 11 11 11 11 14 15
28 27 26 26 23 22 21 19 19 20 20 19 16 14 11 8 7 8 8 9 9 10 9 9 10 11 11 12 10 7 7 8 12 14 10 10 12 10 10 9 11 12 10
26 24 22 20 20 20 19 19 19 20 19 18 15 13 10 7 6 6 7 9 10 10 8 9 10 11 11 11 10 8 6 8 8 15 13 11 9 10 9 8 11 11 10
23 20 19 18 18 19 19 20 19 19 17 16 14 12 9 6 6 6 7 9 10 9 9 9 10 11 11 12 12 10 8 8 5 9 14 10 9 10 7 8 8 8 7
20 19 18 17 18 19 20 19 18 17 16 15 13 11 8 6 5 5 7 9 9 9 10 10 10 11 12 12 13 12 10 8 5 8 4 8 8 8 6 4 4 5 6
19 18 18 17 18 19 19 18 17 16 15 14 12 10 7 4 4 6 8 8 9 9 10 10 10 10 11 12 13 12 11 11 7 5 5 5 7 7 5 5 4 4 4
18 17 18 18 19 19 18 17 16 15 14 13 11 8 5 2 2 5 7 7 7 7 9 9 9 9 9 10 10 10 11 12 5 4 5 4 4 6 5 3 3 3 2
16 17 18 18 18 18 17 16 15 14 13 11 8 6 4 3 1 3 4 5 7 8 9 10 9 7 5 5 7 8 10 10 13 22 12 6 6 4 3 3 2 4 3
17 17 17 17 17 16 15 14 13 12 10 8 6 4 3 2 2 3 2 5 6 7 7 7 8 7 6 6 5 9 10 13 12 17 12 6 5 4 2 2 2 3 5
16 16 14 16 16 15 14 13 12 11 10 8 6 4 5 3 4 5 6 3 4 4 3 6 9 9 5 12 11 12 13 10 12 17 13 7 5 5 7 1 1 2 3
18 17 15 15 13 14 14 13 12 10 10 8 5 5 6 3 10 3 7 5 5 6 11 10 7 10 13 11 12 14 14 14 13 17 11 8 8 9 6 6 7 5 3
13 17 16 16 14 13 15 12 11 11 10 8 8 7 6 4 6 13 6 5 12 9 12 7 12 14 14 15 15 12 16 18 17 13 14 7 8 8 8 7 7 3 3
18 14 16 15 13 11 9 12 11 8 10 1 8 8 7 9 5 5 6 5 7 8 10 13 13 14 16 18 21 19 13 15 14 12 12 6 8 8 8 8 7 3 4
16 16 12 14 12 11 10 9 10 8 10 11 5 10 9 9 7 10 9 9 9 9 9 13 15 16 16 16 24 20 16 12 11 10 9 5 9 10 8 8 7 5 7
19 16 13 11 12 11 11 10 11 11 11 12 12 12 7 9 8 9 10 10 13 11 12 13 13 12 15 20 21 19 15 12 10 8 7 8 4 9 10 9 10 7 7
18 15 12 13 13 12 12 12 11 12 13 13 12 10 13 9 10 9 10 11 7 15 16 14 18 16 14 19 18 15 13 10 9 9 6 6 6 5 9 11 12 11 9
18 17 16 16 15 12 12 13 13 16 16 14 13 11 19 15 8 11 10 13 15 16 18 15 11 17 21 20 17 14 12 10 7 9 6 7 4 6 8 10 12 13 13
19 19 18 18 17 14 15 13 14 16 15 15 14 13 15 11 13 12 13 14 14 16 16 16 14 20 21 18 11 9 5 10 11 6 5 4 6 7 9 4 8 12 14
21 20 19 19 17 17 15 15 16 16 13 15 17 19 14 18 14 12 12 14 13 12 15 15 17 18 17 13 8 8 6 13 13 10 5 8 7 9 9 11 11 9 9
22 19 19 18 19 20 19 16 15 16 18 19 16 18 12 13 15 12 10 9 8 8 8 9 12 13 13 11 4 3 2 7 10 15 13 5 7 8 8 8 11 12 13
26 22 19 17 17 17 20 18 18 18 16 12 11 18 11 9 7 5 4 4 4 6 9 9 9 10 11 9 4 0 4 6 5 9 14 8 9 9 8 10 7 12 14
30 25 23 21 20 18 20 20 20 19 17 17 13 13 7 6 5 5 4 2 3 6 8 9 11 10 10 11 8 1 6 10 11 5 11 10 19 2 5 9 7 9 13
33 29 25 23 22 21 19 21 20 19 18 17 11 10 7 8 8 6 3 3 3 4 7 10 12 13 11 10 9 9 4 6 11 15 7 9 12 22 13 8 9 11 10
27 30 26 25 23 21 21 21 22 18 18 14 10 11 12 11 8 7 8 5 6 7 9 11 12 13 14 13 11 8 8 8 6 11 15 19 20 12 15 19 12 8 9

GFSSE_700_spd_009.txt.gz
Wind_Speed
29 30 33 32 31 30 29 27 25 25 25 22 19 17 14 12 13 15 15 14 12 13 12 12 12 10 10 10 8 8 10 10 7 7 7 9 11 11 11 9 7 10 11
30 33 35 31 29 29 26 24 24 25 23 21 18 15 12 12 14 14 13 12 11 11 10 12 12 11 11 10 10 8 9 12 6 7 11 11 15 13 10 10 9 10 12
30 33 31 28 28 26 24 24 24 23 22 19 16 14 12 13 14 13 11 10 10 9 10 12 11 12 12 10 12 9 6 10 8 6 11 15 14 15 12 13 13 15 13
30 30 27 26 25 24 23 21 22 21 20 17 15 13 12 12 12 10 10 10 10 10 12 12 11 12 11 11 9 6 4 9 11 9 10 16 13 11 12 12 14 13 13
27 26 25 24 22 21 20 20 20 19 18 16 14 12 11 10 10 9 10 10 9 11 13 12 12 12 12 12 10 7 5 6 11 12 11 15 12 11 12 11 10 11 11
26 24 20 20 19 19 19 20 19 18 17 15 14 11 9 9 8 9 9 10 11 12 12 11 12 13 14 13 13 10 9 8 5 9 14 12 10 11 12 11 9 8 8
23 21 19 19 18 19 19 19 19 17 16 14 12 10 8 7 7 8 8 10 12 13 12 11 11 11 13 12 12 13 12 10 5 7 11 11 10 9 8 8 7 6 6
19 19 18 19 19 19 19 19 17 16 15 13 11 9 7 6 7 8 10 11 11 11 10 9 9 10 11 12 13 14 13 10 10 7 9 8 10 8 6 6 5 7 7
19 17 17 18 20 20 19 18 16 15 14 13 11 8 6 4 4 6 10 11 10 9 9 9 9 8 8 8 10 12 13 12 14 12 3 8 9 7 5 4 5 5 6
18 18 18 19 19 18 18 17 15 15 14 12 10 7 3 1 2 4 6 7 6 7 6 7 7 7 7 7 7 9 10 11 11 11 9 7 7 5 4 2 3 4 3
19 20 19 19 19 18 16 15 14 13 12 11 8 6 3 2 4 3 4 2 4 5 5 6 7 8 7 9 7 10 8 13 11 5 6 4 5 5 4 2 2 3 2
21 21 20 19 17 16 15 14 13 12 11 9 5 4 3 2 1 5 2 4 6 6 2 6 5 6 6 8 10 13 11 10 15 11 6 2 2 4 3 3 0 2 3
18 18 19 18 17 16 16 14 12 11 10 7 5 4 1 2 5 4 3 6 5 4 7 6 6 9 8 10 10 9 9 13 14 11 7 4 3 2 1 3 6 4 2
17 17 17 18 15 15 15 12 11 10 8 8 8 3 2 2 2 6 2 3 4 5 8 4 11 13 13 13 12 9 9 9 13 11 8 4 4 5 2 0 2 0 5
15 15 15 13 11 10 8 10 10 10 10 9 7 6 5 3 5 5 6 7 7 9 8 10 11 12 13 13 16 15 14 9 5 8 4 2 4 5 4 1 1 1 6
13 14 14 12 12 10 9 7 5 5 6 5 7 2 10 6 3 4 5 8 8 10 10 11 12 11 12 13 19 18 14 11 7 6 3 1 4 7 6 3 2 2 5
10 11 14 13 12 9 7 7 6 6 7 9 9 7 8 7 5 5 5 9 11 6 10 12 11 13 13 17 20 17 13 9 8 5 3 1 3 6 8 6 6 5 5
14 14 12 13 10 9 7 7 8 8 8 11 13 8 11 10 7 6 7 7 9 8 15 14 11 10 11 18 16 15 8 7 5 6 1 1 3 5 8 9 8 8 8
17 13 13 12 11 9 9 9 11 12 12 12 13 12 9 6 7 4 9 8 12 11 13 13 12 12 15 16 14 12 7 5 6 5 6 4 3 5 6 9 9 10 10
19 16 14 12 11 13 12 12 13 13 12 13 13 10 9 7 8 6 11 9 12 12 11 12 10 13 13 11 9 8 3 2 6 5 4 3 5 5 5 4 7 9 9
22 19 17 17 14 13 15 13 12 11 11 11 10 11 9 11 12 10 10 11 11 9 8 9 12 12 12 9 7 7 3 5 6 7 7 4 1 5 9 5 6 7 7
22 19 18 19 19 15 14 14 14 12 13 14 15 15 12 10 12 12 11 7 5 4 6 9 11 13 13 10 7 1 2 3 6 9 5 5 4 1 6 6 8 9 9
26 22 19 17 19 17 14 15 16 17 15 13 16 11 9 10 9 7 4 1 2 5 8 9 11 13 14 14 9 5 1 2 3 12 10 10 4 4 4 5 7 9 7
30 25 23 20 20 18 18 16 16 17 16 13 11 6 6 9 7 5 4 2 3 6 8 8 10 13 13 14 12 8 5 6 8 11 10 13 12 4 5 4 8 10 10
22 26 27 23 23 21 21 19 17 18 16 14 13 10 9 9 7 5 3 2 3 4 8 11 15 16 18 16 14 13 8 6 10 14 16 15 17 11 8 9 10 9 11
17 19 24 29 26 24 22 21 19 17 15 14 13 11 14 11 9 7 5 2 2 4 9 11 14 19 25 22 16 13 14 11 9 10 13 15 17 20 21 11 7 7 9

GFSSE_700_spd_012.txt.gz
Wind_Speed
25 26 30 27 27 29 30 29 27 27 25 22 18 15 13 13 15 14 12 13 12 12 11 11 11 11 9 8 7 10 14 10 10 11 9 7 9 9 10 8 8 11 11
30 32 33 32 32 31 28 27 26 25 23 20 16 15 14 14 14 13 12 12 11 11 11 11 11 11 9 7 6 9 13 10 8 11 9 10 14 11 8 9 8 10 9
33 32 33 32 31 28 26 25 24 23 22 18 16 14 15 14 14 12 13 12 12 11 11 12 12 11 9 8 9 9 11 13 6 8 9 13 14 14 11 12 12 14 10
30 31 31 29 26 25 24 24 23 22 20 17 15 14 14 13 13 14 13 11 12 12 12 13 13 12 10 9 8 8 10 11 10 5 10 12 15 13 12 14 13 13 13
28 27 28 26 25 23 22 23 21 19 18 16 15 13 12 12 13 13 11 12 13 12 12 14 14 13 13 11 10 9 8 6 9 9 11 13 14 11 13 11 12 11 10
27 26 24 23 22 21 21 21 19 18 16 15 14 12 11 11 11 11 11 11 12 12 12 13 13 13 13 12 12 9 6 5 6 12 11 14 12 10 10 10 10 9 7
25 23 21 21 20 20 20 19 18 17 15 14 12 11 10 9 10 9 9 11 12 12 12 12 12 12 13 12 12 13 12 12 21 9 10 13 10 8 9 7 7 6 6
19 20 19 20 20 20 19 18 17 16 15 13 11 9 8 9 9 9 8 8 10 11 10 8 8 8 9 9 10 13 11 13 14 6 5 9 8 8 7 5 6 7 8
19 17 18 19 21 21 19 18 16 15 14 12 10 8 6 7 6 6 6 6 8 9 9 7 6 6 7 8 9 10 12 13 13 11 3 4 6 8 6 5 5 5 5
19 18 18 20 20 20 19 17 16 15 13 11 9 7 6 4 3 3 5 6 5 7 7 7 6 6 7 9 8 10 8 7 8 7 6 2 4 6 6 3 3 3 4
21 20 19 19 19 18 18 16 16 14 13 11 8 5 4 5 4 4 4 4 2 4 5 5 6 5 6 9 8 9 9 8 6 2 1 3 5 7 5 4 2 3 2
22 22 20 19 19 18 17 16 14 14 12 9 7 4 3 3 2 3 4 1 3 5 2 4 3 5 8 6 7 9 8 7 7 2 2 4 5 6 5 5 4 4 1
20 20 20 20 19 17 17 15 14 12 10 8 6 5 3 2 7 2 4 3 3 1 2 1 5 8 7 7 10 7 12 11 6 2 1 2 4 6 6 5 2 7 2
19 20 19 19 18 17 17 16 14 12 10 8 4 4 3 3 3 3 3 1 5 5 4 4 6 9 10 7 12 5 7 10 7 4 3 3 5 6 6 5 1 3 5
20 19 20 18 18 16 16 14 12 11 11 10 7 6 4 2 1 1 3 3 4 6 6 8 10 12 16 13 16 16 9 5 5 5 1 2 4 7 7 7 5 4 8
18 21 20 17 15 15 15 12 10 9 11 10 10 7 5 3 3 4 6 6 5 7 8 10 10 10 13 13 17 18 11 6 3 3 1 3 3 6 8 8 7 9 9
18 19 17 16 16 14 12 9 7 9 6 8 6 6 6 5 5 7 7 5 5 6 8 11 9 10 8 11 17 15 8 7 5 1 3 4 4 6 8 8 8 8 9
19 18 17 16 13 12 11 9 8 6 6 4 4 5 6 6 8 8 6 7 8 11 8 10 9 8 7 10 12 10 5 6 5 4 3 4 5 6 8 8 8 9 9
16 16 15 12 11 12 11 10 9 8 8 8 7 7 6 4 8 8 8 8 9 10 10 9 7 9 10 11 11 4 2 5 6 2 1 4 5 6 6 8 9 9 10
18 16 13 14 15 13 12 12 12 12 10 9 8 7 9 6 7 9 10 9 10 10 8 7 10 12 12 12 10 4 1 1 5 4 4 4 3 2 4 4 8 8 10
20 19 18 17 16 15 12 11 10 9 9 9 7 9 9 10 10 12 12 8 7 6 7 10 13 14 14 13 10 6 3 2 4 2 6 5 2 1 3 5 6 6 8
19 19 20 19 18 15 15 14 12 11 11 13 12 14 12 13 13 13 9 6 3 7 7 9 11 12 13 14 13 8 6 7 6 3 5 5 5 5 4 4 4 5 7
24 22 19 17 18 17 17 17 17 17 15 11 10 11 11 13 11 7 2 4 6 6 6 8 12 14 16 14 12 11 8 6 6 6 6 7 4 8 6 5 5 5 7
28 24 22 21 19 18 18 18 17 16 15 12 10 8 6 12 7 6 7 6 7 6 7 10 13 15 17 16 12 10 10 8 10 8 8 10 10 9 3 8 9 8 9
29 29 25 24 23 22 21 19 18 17 15 15 13 11 10 10 10 10 9 8 7 6 7 9 12 20 22 19 8 10 9 8 10 11 12 12 11 8 8 9 8 11 9
19 21 23 27 28 26 25 22 20 17 16 16 14 12 11 12 14 12 11 9 5 4 5 7 6 15 24 18 11 12 13 13 11 11 11 11 13 14 12 6 8 7 11

GFSSE_700_spd_015.txt.gz
Wind_Speed
22 26 32 26 28 29 28 27 26 24 22 19 16 13 13 14 13 12 11 11 11 11 11 11 9 8 8 8 10 13 9 9 10 9 7 5 9 9 8 7 9 9 9
24 30 32 31 31 30 30 28 26 24 20 18 14 13 15 14 13 12 11 11 11 12 12 11 9 10 11 8 10 13 11 8 11 9 9 11 10 9 9 9 7 7 7
26 28 28 31 31 30 28 27 25 23 19 16 14 15 15 14 13 12 12 11 12 13 13 11 10 12 11 11 10 12 13 8 7 10 8 12 10 10 10 9 11 10 8
30 32 33 31 30 28 26 26 24 21 18 16 15 15 14 14 13 12 12 12 13 14 13 12 11 12 12 10 9 8 10 12 7 7 6 9 12 12 13 12 12 12 11
31 31 30 28 27 26 25 24 23 19 17 15 14 13 13 13 12 12 13 12 13 13 12 12 12 13 11 10 9 9 9 13 14 8 6 6 11 13 12 12 12 11 11
29 28 27 26 25 24 23 23 21 18 16 14 13 13 11 11 10 12 12 12 12 12 10 11 11 11 11 14 10 12 12 3 8 7 7 5 9 11 10 10 9 8 8
27 25 24 23 22 22 21 21 19 17 15 13 11 11 9 9 9 10 11 10 9 10 10 10 10 11 11 12 10 13 13 17 19 6 6 6 7 9 8 7 6 4 5
22 23 22 22 21 21 20 19 18 16 14 12 10 9 8 7 8 9 9 8 7 9 9 8 7 8 9 8 9 10 10 9 2 2 8 6 6 7 6 5 5 5 4
21 20 20 20 21 20 19 18 17 15 14 11 9 7 5 5 7 7 6 7 7 8 8 8 7 8 7 8 8 10 9 8 3 6 6 6 7 7 6 6 6 4 3
19 19 19 19 20 19 19 18 16 15 13 10 8 6 4 5 5 4 3 5 5 5 5 6 6 5 5 7 7 6 6 4 3 6 6 5 5 7 8 6 6 5 4
21 20 20 19 19 18 17 16 15 14 12 10 7 5 5 6 6 4 2 2 3 2 2 3 4 5 5 8 8 9 5 3 3 3 2 3 4 4 7 7 6 6 5
21 21 21 21 19 18 17 16 15 13 11 9 6 5 5 4 3 2 2 2 3 5 2 5 2 7 9 8 10 9 7 1 1 4 4 6 4 4 5 7 6 7 6
20 21 21 20 19 18 17 16 15 13 11 9 7 6 4 3 4 2 0 1 4 5 6 6 9 10 9 6 9 7 7 5 2 3 6 8 8 5 5 6 3 5 6
20 20 20 20 19 19 18 16 15 13 11 9 7 6 4 4 2 5 2 2 6 6 6 7 6 9 11 8 13 12 11 4 1 3 7 8 10 9 6 6 3 6 5
19 20 19 18 18 18 16 15 14 13 11 10 8 6 4 4 3 3 1 2 5 6 8 8 10 9 10 9 13 17 11 5 3 1 5 8 10 10 9 6 5 4 7
19 20 20 19 18 17 14 13 13 13 11 9 8 7 4 6 4 1 3 5 7 8 6 10 11 9 10 10 14 15 11 5 1 1 5 8 9 9 10 8 6 5 8
18 19 19 19 18 16 15 14 12 11 10 9 6 4 6 4 4 3 4 6 7 8 12 11 12 12 11 10 15 14 8 5 1 2 3 8 10 10 10 10 9 9 9
19 20 20 19 17 16 14 13 11 8 6 7 6 4 3 4 4 5 4 7 8 9 10 11 11 12 13 11 13 12 6 5 2 3 4 6 9 11 11 10 10 10 10
22 22 22 21 19 17 15 13 11 10 7 6 7 6 4 4 4 5 5 7 8 10 9 9 8 9 11 11 10 6 4 3 4 5 1 3 6 9 12 12 11 11 11
24 23 21 20 19 18 17 14 12 11 9 6 6 6 7 7 7 7 6 7 7 7 4 7 8 11 13 13 11 7 4 2 3 5 3 1 1 3 7 12 13 13 12
23 24 22 21 19 18 15 14 11 7 6 5 5 5 7 10 10 9 9 5 3 4 6 8 10 12 12 13 12 8 5 3 2 3 3 2 1 2 3 5 7 9 11
22 23 23 20 20 17 14 13 12 10 9 9 10 10 10 12 13 12 8 3 6 6 8 9 10 12 12 11 10 9 8 8 9 4 6 6 4 4 3 4 6 9 11
24 24 21 19 19 18 16 16 14 15 14 11 8 9 10 13 14 8 4 9 9 9 8 9 11 14 11 9 7 7 8 9 10 9 6 7 6 6 3 4 5 7 9
26 26 24 22 22 20 19 18 17 16 15 11 9 10 10 13 14 7 11 12 11 9 8 11 14 20 16 9 6 8 9 9 9 9 10 11 10 9 6 6 8 8 8
23 25 25 24 23 22 20 19 19 18 15 16 16 14 11 8 11 13 15 15 12 9 8 8 9 15 23 12 11 10 10 10 10 10 10 9 9 10 7 10 9 7 8
16 19 27 26 25 24 23 21 20 20 18 19 18 15 13 10 12 16 17 16 13 10 7 5 3 9 17 21 17 12 11 11 11 12 12 12 12 10 10 9 8 7 7

GFSSE_700_spd_021.txt.gz
Wind_Speed
17 32 29 27 26 29 31 30 28 24 20 18 19 18 16 15 14 12 12 12 13 13 13 12 10 9 11 13 11 10 11 11 8 7 4 3 4 6 9 12 10 8 6
23 24 30 27 28 29 29 28 26 22 19 19 19 16 14 14 12 12 12 12 13 13 13 12 11 10 12 13 13 10 9 13 11 10 9 8 6 7 9 10 9 8 7
27 27 31 28 28 28 27 26 23 21 20 20 17 15 13 12 12 12 11 11 12 12 12 10 10 11 12 11 12 12 11 12 13 11 11 8 7 7 9 9 9 8 6
30 30 30 28 27 27 26 24 22 21 20 18 17 15 13 12 12 11 11 11 12 13 12 12 13 13 11 8 8 10 12 11 12 12 11 10 11 9 11 11 8 7 6
29 30 30 28 28 26 24 23 21 20 18 17 15 13 12 12 11 11 10 12 12 12 13 14 14 13 10 10 9 6 8 11 13 13 11 11 12 12 13 11 9 8 7
29 28 28 26 27 25 23 21 20 18 17 15 13 12 11 11 11 11 11 10 11 11 14 14 14 14 13 12 10 8 5 10 12 12 11 10 10 11 12 13 11 9 8
28 28 27 25 26 23 21 20 19 17 15 13 12 11 11 11 11 11 9 10 11 10 11 11 10 10 10 10 10 10 10 8 9 10 10 9 9 10 10 10 8 7 7
26 25 25 25 24 23 21 19 18 16 14 12 11 11 12 10 9 9 9 9 10 9 9 7 7 8 8 8 7 8 6 3 2 7 8 9 7 6 7 8 9 8 6
25 23 23 24 23 22 20 18 17 14 12 11 10 9 10 9 8 8 8 8 9 8 7 7 7 7 9 8 6 6 6 7 5 6 7 7 6 5 6 7 7 7 7
24 22 22 22 22 21 20 18 16 14 11 9 8 7 6 6 7 6 7 6 6 7 8 7 7 7 9 9 7 6 4 3 4 5 5 7 6 4 5 6 5 5 6
24 23 22 22 21 21 20 18 16 13 10 8 7 6 5 5 7 5 5 6 6 5 7 6 6 10 10 9 9 5 4 3 6 8 7 7 5 4 5 5 4 3 5
23 23 23 22 21 21 20 18 16 13 10 9 7 5 5 4 5 6 5 6 6 7 8 8 8 10 11 8 11 8 2 5 8 9 8 8 9 6 3 4 5 2 3
20 22 23 23 22 21 19 17 15 12 10 8 7 5 3 3 3 4 4 2 6 7 8 10 11 9 8 8 7 8 4 4 7 9 12 11 9 9 8 6 7 7 5
19 21 23 23 22 21 19 17 15 13 11 9 7 5 3 2 3 5 3 2 4 5 7 9 11 12 12 10 10 8 9 1 6 8 10 12 11 9 7 7 4 7 6
19 21 22 23 22 21 19 17 15 13 12 10 7 5 4 3 1 0 1 2 5 6 7 10 13 12 13 9 10 8 10 2 3 6 9 10 11 10 8 7 3 6 6
21 21 22 23 22 21 19 17 16 15 13 11 9 7 6 4 2 0 1 2 4 6 9 11 12 13 13 10 7 9 8 4 2 6 7 9 10 11 9 8 7 5 6
20 22 22 23 22 21 19 18 17 16 14 11 10 10 10 7 5 2 2 2 3 6 10 12 12 12 11 11 8 8 7 4 3 6 8 8 9 9 10 8 6 6 9
21 22 23 23 21 20 19 18 17 16 14 13 12 10 11 10 7 4 3 1 3 5 6 7 8 10 11 11 9 7 5 5 5 7 8 8 9 9 10 9 8 7 8
22 23 24 23 22 20 20 19 17 16 14 13 12 10 10 9 6 6 3 2 2 4 3 4 7 8 10 11 10 6 4 5 4 5 7 8 8 9 10 9 9 10 9
25 25 26 24 23 21 20 20 19 17 16 14 13 12 11 8 7 7 5 2 2 2 3 5 5 7 9 10 9 8 6 5 7 7 5 5 6 8 10 10 11 11 11
28 28 27 25 24 23 21 19 17 15 15 13 11 11 11 10 9 8 6 2 3 3 3 2 5 8 7 7 9 10 10 8 6 7 6 3 2 3 5 8 13 15 13
29 28 27 24 24 21 19 18 16 14 13 13 13 13 11 11 10 11 8 6 7 6 4 2 5 7 4 5 8 9 11 11 10 8 7 7 5 2 2 4 6 8 10
30 29 27 23 22 21 21 21 20 18 16 15 13 12 10 11 12 12 10 8 11 9 7 4 6 4 4 7 9 9 9 9 9 9 8 8 8 6 3 1 2 5 8
25 27 26 25 24 23 22 22 18 15 13 10 9 10 12 14 14 14 12 13 15 12 9 8 8 9 9 8 9 9 9 9 7 6 6 5 5 6 6 4 5 5 6
25 27 26 25 25 22 23 22 20 18 15 15 15 15 15 14 13 16 16 19 18 16 12 10 13 11 11 12 12 11 11 10 9 8 7 7 6 6 5 5 7 7 7
24 29 29 30 29 26 24 24 23 21 20 18 17 16 15 12 11 18 22 24 22 19 15 11 11 12 12 12 12 12 13 13 14 11 8 6 7 7 7 7 8 7 7

GFSSE_700_spd_024.txt.gz
Wind_Speed
27 34 37 28 35 36 32 28 24 21 21 22 19 17 15 14 12 12 11 10 11 10 9 9 9 9 8 9 9 9 9 6 5 3 4 5 5 7 10 11 10 8 6
24 31 30 33 35 33 29 25 23 22 22 20 18 16 13 13 12 12 11 11 11 9 11 10 10 9 9 11 9 8 8 9 8 8 9 7 6 5 6 9 8 7 6
29 28 32 33 32 30 27 24 23 23 22 19 16 14 13 12 12 12 12 11 11 11 10 10 10 9 8 10 12 11 9 9 10 10 8 8 8 8 9 8 7 6 4
30 28 31 31 30 28 25 24 23 23 20 18 15 13 12 12 12 12 13 13 12 12 13 12 10 8 7 7 7 10 9 10 11 10 12 13 10 11 11 10 9 6 4
29 29 28 29 28 26 24 23 23 21 19 17 14 13 13 12 12 12 12 13 13 12 13 13 11 11 11 9 7 8 9 10 11 11 13 16 12 13 13 12 10 7 6
32 29 27 28 27 25 24 23 21 19 18 15 14 13 12 12 11 11 11 12 13 13 14 13 12 12 10 10 11 8 8 10 10 10 12 12 13 13 13 12 12 10 9
30 28 27 27 26 24 23 21 19 17 15 14 13 12 12 12 12 10 11 11 11 11 11 10 10 10 10 10 11 13 7 8 10 8 11 10 11 10 11 10 10 9 7
29 28 27 27 25 23 22 19 17 15 14 13 12 12 11 10 10 10 10 11 11 10 9 8 8 9 10 9 9 8 4 2 4 7 7 10 8 7 8 7 7 8 7
28 27 26 25 25 23 21 19 16 14 13 12 11 10 10 9 9 9 10 9 9 9 9 8 8 7 9 7 6 6 4 3 7 6 6 7 7 5 6 7 7 7 7
27 26 25 25 24 23 20 18 16 13 12 10 9 8 7 7 7 7 8 8 7 9 8 6 7 9 9 7 6 3 3 2 4 5 5 7 7 6 5 5 6 6 7
26 26 24 24 23 22 20 18 15 12 11 8 7 6 6 6 6 6 7 8 6 6 7 6 7 11 10 8 10 2 2 1 3 5 5 5 5 6 6 5 5 5 5
24 25 24 24 22 21 20 18 15 12 10 8 6 5 6 6 5 4 6 8 7 7 8 9 10 10 16 9 13 14 4 3 3 5 6 6 6 5 5 4 4 5 4
22 23 24 24 23 22 20 18 15 13 11 8 6 5 4 5 3 5 4 5 6 7 11 11 10 10 6 5 6 7 9 4 1 3 9 7 6 5 5 4 5 3 4
22 22 22 23 22 21 20 18 16 13 11 9 7 5 4 3 6 4 3 3 5 6 6 7 6 9 9 8 9 4 5 4 1 3 8 11 8 7 4 4 3 3 3
20 22 22 22 22 21 19 19 17 14 12 11 8 5 4 4 4 2 1 1 3 6 8 8 10 11 12 10 5 7 4 1 2 2 6 10 11 9 6 5 3 6 4
21 22 23 22 22 20 19 18 16 14 13 12 9 7 5 4 3 3 1 1 3 3 5 8 9 12 13 8 5 7 5 3 1 4 5 10 9 11 7 6 5 4 4
19 22 23 23 23 21 19 18 17 15 14 12 11 9 6 5 5 3 1 1 3 4 5 6 8 12 13 10 9 5 5 6 0 4 4 5 8 8 9 7 6 7 6
23 24 24 24 24 22 20 18 17 16 14 13 11 10 9 8 6 5 2 2 2 3 3 4 6 7 8 8 7 5 4 4 1 2 5 5 6 5 8 9 7 7 6
24 25 25 25 24 22 21 20 18 17 15 14 13 11 9 8 8 7 5 2 2 1 1 3 4 6 8 9 8 4 5 4 5 2 3 6 8 7 6 9 8 9 8
26 26 26 26 25 24 22 21 19 18 16 15 13 12 10 9 9 10 6 4 2 1 0 1 3 5 6 7 8 5 5 6 6 5 4 1 4 7 7 10 8 10 10
28 28 28 27 26 25 23 20 18 17 15 14 12 13 12 11 10 9 6 5 2 2 3 3 4 6 5 6 9 10 11 10 9 8 6 3 1 3 5 8 10 12 12
29 29 29 28 27 25 23 20 19 17 16 14 14 14 13 13 11 9 8 6 5 5 3 2 5 3 3 6 8 7 5 8 9 8 7 4 3 3 2 5 8 10 12
29 28 29 28 27 25 24 23 21 19 18 17 16 14 12 11 10 10 10 9 9 8 3 3 3 5 6 6 7 8 5 3 1 5 5 4 3 3 1 1 4 6 9
23 28 29 28 28 26 25 24 22 18 16 15 13 12 13 13 12 13 13 13 13 10 6 2 7 8 7 7 7 9 9 7 4 4 5 4 4 4 3 3 5 6 6
23 28 30 30 30 28 25 24 22 20 18 17 16 15 15 14 13 13 15 14 17 14 9 7 9 9 11 11 10 11 12 11 10 7 4 8 5 4 5 5 5 5 4
24 26 30 30 28 27 24 26 24 21 19 17 15 16 15 14 13 14 16 19 20 18 14 12 13 12 12 10 10 10 10 10 9 10 8 5 3 8 6 5 4 4 5

GFSSE_700_spd_027.txt.gz
Wind_Speed
38 38 29 31 30 28 26 22 18 18 20 19 18 17 15 14 11 10 9 9 9 7 7 6 7 7 7 8 6 7 6 6 4 3 3 4 5 6 9 7 6 5 2
37 31 34 36 32 28 25 21 19 22 21 19 17 15 14 12 10 9 11 11 10 9 8 8 7 7 9 7 7 7 8 7 10 9 8 7 4 5 7 7 4 4 3
29 31 35 38 33 27 24 21 22 21 19 17 15 14 13 11 11 10 12 12 12 10 9 8 7 7 9 10 9 9 8 8 10 8 8 12 7 7 9 10 7 5 3
30 36 36 35 30 25 23 23 22 20 18 16 15 13 12 12 12 13 14 12 12 11 10 9 8 8 9 8 9 8 8 8 9 10 10 14 9 10 12 11 9 7 5
33 35 34 32 28 25 24 23 22 20 18 16 14 14 13 12 13 13 13 14 13 13 13 12 11 10 10 9 7 8 8 8 10 15 10 8 14 11 13 12 9 8 6
33 33 31 30 26 24 24 23 21 19 17 16 15 15 14 13 12 12 13 13 12 13 12 12 11 10 10 11 9 10 10 9 8 15 9 11 13 11 12 11 9 9 9
30 31 30 28 25 24 23 21 20 18 16 15 15 14 14 13 13 12 11 10 10 10 10 9 10 10 10 11 13 9 8 9 9 9 10 11 11 11 11 11 10 9 8
28 30 28 27 24 23 22 20 18 16 15 15 15 13 12 13 13 12 11 10 9 8 9 9 10 11 10 8 8 7 5 3 7 6 9 9 8 8 8 7 7 6 6
27 28 27 25 24 23 21 19 17 15 14 14 13 13 12 11 11 11 9 8 8 9 9 9 10 12 11 8 7 8 7 6 6 7 5 5 6 7 7 7 6 5 6
26 26 26 25 23 22 20 18 16 14 13 12 11 10 10 10 8 8 8 8 7 9 9 9 12 14 13 12 8 6 5 4 7 7 4 4 3 5 5 6 5 5 6
27 26 26 25 23 21 20 17 15 12 11 10 8 8 10 7 7 11 8 9 7 10 11 11 12 12 12 18 15 9 13 9 7 3 2 3 4 4 5 4 4 4 5
28 23 22 25 23 21 19 16 14 12 10 8 8 9 11 4 6 9 7 8 8 9 11 11 13 12 14 3 13 19 11 6 6 7 4 4 3 4 6 5 4 4 3
23 21 24 23 23 20 18 16 14 11 9 7 6 6 6 5 8 5 3 6 8 10 10 6 10 10 7 1 1 6 6 14 7 14 5 4 5 4 3 3 3 1 2
24 23 22 23 23 21 18 17 14 10 9 5 5 5 6 8 3 6 4 5 8 7 5 9 8 12 7 6 3 3 5 7 7 16 7 9 5 4 3 2 2 2 1
24 25 23 23 22 21 19 18 14 13 9 7 7 4 5 2 3 3 2 4 2 1 3 6 7 11 11 4 4 4 4 7 14 9 4 9 8 6 3 2 2 3 2
24 24 24 22 21 20 19 17 15 12 11 10 7 5 4 5 4 2 1 4 2 3 2 4 6 5 14 5 4 5 5 4 5 13 6 6 7 7 5 4 4 3 2
22 24 24 20 20 20 19 16 15 13 11 9 7 5 5 4 5 5 3 2 4 3 4 5 6 13 15 6 6 10 8 7 1 12 3 7 6 6 7 5 4 4 3
23 23 22 21 21 21 19 17 16 14 12 10 9 8 7 6 5 5 4 1 5 5 3 5 6 8 3 7 8 9 1 6 7 5 8 4 5 6 8 8 7 5 5
25 24 24 23 23 21 20 18 16 14 13 12 11 10 7 7 8 8 5 3 2 6 6 4 5 4 5 1 4 1 4 0 10 7 2 3 8 2 7 9 8 8 7
27 26 26 26 25 23 21 20 18 16 14 13 12 11 8 7 8 7 5 3 2 3 4 4 4 4 3 5 4 5 4 3 7 7 11 2 4 7 8 10 9 9 9
27 27 27 27 26 25 24 21 19 16 15 13 13 12 10 8 7 7 7 8 4 6 5 5 3 3 2 2 9 6 4 6 7 8 5 2 2 10 9 7 8 11 8
29 27 28 28 27 25 24 22 20 17 16 14 13 12 12 11 9 9 9 8 6 6 6 5 7 2 3 3 11 1 4 8 5 1 1 3 3 3 4 5 7 10 12
30 27 28 29 27 26 25 24 22 20 18 16 15 14 12 12 11 10 11 10 8 8 8 5 4 6 1 3 3 12 5 4 5 12 5 2 5 5 5 4 4 5 9
27 27 28 29 28 26 26 24 21 18 17 15 14 13 13 13 12 11 12 11 10 10 6 4 3 7 4 6 7 8 7 8 5 6 11 11 5 4 4 6 8 5 6
27 28 28 29 30 28 26 25 22 22 18 16 15 14 14 13 13 12 12 13 12 12 10 6 6 5 8 10 10 8 7 8 5 4 4 9 12 8 7 5 5 9 7
25 28 30 31 31 30 26 26 23 22 21 20 18 16 14 13 12 11 12 13 16 15 13 9 9 11 10 9 9 7 7 9 9 8 5 9 6 11 11 11 9 8 10

GFSSE_700_spd_030.txt.gz
Wind_Speed
33 35 33 30 28 26 23 20 17 17 17 17 16 15 14 13 13 11 10 10 9 8 7 7 9 9 8 8 6 6 4 4 2 4 4 5 5 6 8 6 5 3 2
36 30 29 30 28 25 20 17 17 19 18 17 15 14 14 14 13 13 12 11 11 10 9 8 9 11 10 8 8 7 7 8 10 8 6 7 6 6 8 6 5 4 3
34 30 29 30 28 23 19 18 20 19 18 16 15 14 14 15 13 13 13 12 11 11 10 8 9 10 10 8 9 9 9 9 9 9 8 10 11 9 10 9 5 5 4
34 32 31 29 26 21 20 20 19 18 16 15 15 15 15 15 14 14 14 14 14 12 11 10 9 9 7 8 9 9 9 10 10 10 8 13 14 12 12 10 7 6 4
33 35 32 28 24 21 21 20 18 16 16 15 15 15 16 15 14 14 15 15 14 14 13 13 13 11 11 9 8 10 10 11 13 9 10 13 14 13 12 11 9 7 4
37 35 30 27 24 23 22 20 18 17 17 17 16 16 15 16 14 14 14 14 14 14 12 11 11 12 13 14 11 12 11 11 10 11 13 12 13 12 11 10 9 8 8
35 35 29 26 24 24 22 20 19 18 18 17 17 16 15 15 13 13 13 12 11 11 10 11 13 12 11 12 9 8 10 9 7 11 13 13 13 11 11 10 10 9 8
33 33 28 26 25 23 22 20 18 18 18 17 16 15 16 14 13 12 12 11 11 11 12 12 12 11 10 10 8 7 9 8 10 9 8 10 9 9 8 8 7 7 6
30 29 26 25 25 23 21 19 18 19 17 16 15 14 15 14 12 11 10 11 12 11 11 11 12 11 10 8 8 10 10 8 7 9 8 7 7 7 6 7 6 5 6
30 27 25 24 23 22 21 18 18 18 16 14 13 13 11 11 11 10 9 9 11 11 11 13 13 10 13 17 12 11 7 5 6 5 7 6 5 5 5 6 5 5 5
25 26 24 23 22 21 19 17 17 16 14 12 10 12 17 9 10 11 11 8 9 11 10 14 14 10 11 17 16 12 8 5 7 6 4 3 3 4 4 4 4 5 5
24 27 24 22 21 20 19 16 15 13 12 10 5 11 14 15 13 9 11 6 8 11 9 12 10 10 11 9 16 17 15 13 8 2 1 2 2 2 3 3 4 4 4
25 23 25 23 21 20 18 14 13 12 10 9 5 2 6 13 5 8 9 6 10 10 13 9 9 8 9 8 13 12 12 13 12 9 3 3 2 2 2 2 3 2 3
22 17 15 23 21 21 19 14 12 10 8 10 5 4 8 6 4 8 3 9 13 9 9 9 11 10 4 4 3 10 6 6 3 10 7 5 3 1 0 2 2 2 2
21 25 20 21 22 20 17 16 13 9 6 5 7 4 6 8 6 4 7 5 6 7 4 8 8 13 6 4 4 7 6 15 15 6 4 3 4 1 2 2 2 1 1
19 22 21 19 21 19 17 18 16 14 8 12 5 7 1 5 0 4 5 2 4 7 4 5 6 8 7 6 4 8 1 2 21 9 3 2 4 4 2 0 1 1 2
26 28 26 19 22 19 17 14 11 13 9 10 10 8 4 2 2 3 0 1 4 7 6 5 7 11 12 18 12 10 5 9 10 4 2 1 4 4 4 2 0 1 2
26 27 26 20 22 20 18 15 14 12 9 7 7 5 4 4 3 3 2 2 8 5 6 7 10 6 10 4 11 8 9 11 9 4 4 4 6 4 3 4 3 1 2
28 28 25 20 19 19 17 16 15 12 9 7 6 4 4 4 5 5 5 2 4 7 10 6 6 3 2 2 6 2 2 8 7 11 6 4 2 2 5 3 4 4 4
26 24 22 21 20 20 19 18 16 13 10 8 7 8 4 5 5 5 4 2 3 4 6 7 7 6 4 4 8 2 2 10 3 13 14 7 7 8 8 7 6 6 5
29 24 23 23 22 21 21 19 17 14 12 11 10 11 6 7 5 5 4 6 8 7 5 7 7 6 4 4 7 14 15 11 11 10 1 7 1 3 10 8 4 5 8
29 24 24 25 24 21 21 19 18 16 14 12 11 11 8 8 6 6 5 6 5 6 6 7 10 3 6 4 11 4 8 11 11 7 9 4 4 2 4 7 8 7 7
29 23 22 26 24 22 22 21 21 19 16 14 13 11 8 7 8 9 8 8 7 6 5 5 5 4 7 6 4 8 3 2 2 8 10 11 8 8 7 8 7 8 9
25 22 21 25 25 24 23 22 20 17 15 12 12 11 8 8 8 9 10 11 8 6 4 2 1 4 5 8 6 7 7 3 4 3 10 12 10 9 8 12 11 7 11
21 21 21 24 27 27 27 24 21 19 17 15 13 12 11 11 10 10 10 11 10 9 5 2 3 2 5 8 9 8 6 4 2 4 7 14 11 14 12 5 8 9 9
23 24 25 26 29 29 28 25 23 21 19 17 15 14 12 9 10 9 9 9 11 11 8 5 6 7 8 5 6 9 8 7 7 4 6 10 12 13 16 13 8 9 10

GFSSE_700_spd_033.txt.gz
Wind_Speed
34 35 31 30 29 25 22 19 17 16 16 16 15 15 14 12 11 12 11 10 10 9 10 12 12 11 9 8 7 7 5 3 4 6 6 6 8 8 7 6 6 5 6
33 34 31 30 27 24 20 17 17 17 17 16 15 15 14 12 13 14 13 13 12 10 11 13 13 12 10 10 8 7 7 7 7 5 6 9 10 10 10 8 6 5 6
34 33 29 28 24 22 18 18 18 17 17 15 15 15 14 13 14 13 13 13 12 11 11 12 11 10 9 9 9 8 9 8 9 8 7 9 13 13 10 10 7 7 7
31 33 28 26 22 20 18 19 18 17 16 15 16 15 14 14 14 15 14 13 12 13 14 13 12 11 9 9 10 9 9 10 11 13 10 12 15 15 11 9 9 7 5
32 31 28 25 21 19 20 19 18 16 16 16 16 16 15 15 15 15 15 15 16 15 14 13 13 13 12 11 11 11 11 14 11 13 15 15 16 15 12 9 7 6 5
32 31 27 23 20 20 20 18 17 17 17 17 17 17 16 15 16 16 16 15 14 13 13 12 12 13 16 15 15 14 12 10 14 13 16 15 14 14 12 10 8 7 8
33 31 26 22 21 22 21 19 18 18 18 18 18 16 15 15 15 15 14 13 12 12 12 10 10 11 13 12 9 9 11 8 14 13 15 14 12 11 10 10 10 9 8
33 30 25 23 23 23 21 20 19 19 20 19 18 16 16 15 15 14 14 14 14 12 11 10 10 10 10 12 11 10 11 10 11 12 12 12 11 10 9 8 8 8 8
30 28 26 25 25 24 22 21 19 19 19 18 17 16 16 15 14 14 14 13 11 9 10 11 14 13 8 11 12 13 14 13 9 10 10 10 9 9 8 7 7 8 8
29 27 26 25 25 24 22 21 20 19 18 17 15 14 15 15 13 13 12 11 11 11 11 17 17 19 19 13 14 15 12 12 14 11 8 8 8 8 7 7 7 7 8
30 26 25 25 24 24 21 21 20 17 15 16 13 13 10 14 15 11 9 12 14 13 13 11 12 18 16 13 13 16 15 8 8 8 8 8 6 6 6 6 7 7 7
30 26 24 25 23 22 21 20 18 15 14 13 8 12 11 12 12 12 10 12 9 9 8 12 10 7 11 10 15 13 10 12 6 6 6 5 5 5 5 6 7 6 6
28 27 24 24 23 21 20 18 16 13 13 14 16 13 14 10 7 10 9 8 11 12 10 11 11 5 8 11 8 5 5 5 5 2 3 4 6 7 5 4 5 5 5
28 26 24 24 23 22 20 18 13 12 15 13 14 12 10 8 6 7 9 8 9 10 7 11 13 13 11 9 4 4 3 6 3 3 3 4 6 6 5 5 5 4 4
25 26 26 23 21 22 21 18 14 12 14 14 13 11 5 8 5 6 9 6 5 8 9 12 8 12 7 7 3 7 2 4 7 5 6 6 6 5 4 4 4 3 3
19 24 25 23 23 21 20 19 15 13 11 8 9 9 6 3 1 5 5 4 6 9 9 6 6 10 4 8 5 9 6 7 10 9 5 6 5 4 3 3 4 4 2
17 18 18 21 20 18 15 14 15 16 12 13 7 8 9 5 1 0 1 2 8 6 7 3 5 11 12 14 15 10 9 3 6 6 2 4 4 3 3 2 3 4 4
19 16 15 19 22 18 16 13 10 12 15 13 10 6 4 3 1 1 3 2 7 7 9 8 6 6 8 5 12 7 7 7 5 3 6 4 5 5 3 3 2 2 3
19 15 17 20 22 20 17 16 14 12 10 11 10 9 5 3 3 4 3 2 5 6 8 6 8 8 4 10 6 7 10 10 10 13 13 8 2 3 1 5 4 3 1
20 18 17 19 21 21 20 18 17 16 13 10 8 8 7 5 5 5 3 1 3 8 7 7 7 5 3 6 13 8 3 9 13 8 13 10 7 3 4 2 4 3 3
27 23 20 19 22 23 21 20 18 15 15 12 9 6 6 5 5 4 3 0 1 5 6 7 8 2 3 5 13 15 12 13 11 13 15 13 11 12 10 9 4 2 4
26 22 20 20 20 22 20 18 17 15 14 12 10 7 7 7 6 5 4 3 1 4 6 8 8 6 6 6 8 13 8 11 14 14 14 8 10 10 11 9 10 9 7
23 21 20 21 19 21 20 20 20 20 18 16 12 7 8 7 7 6 6 5 1 2 5 6 8 8 5 8 9 8 10 7 10 7 9 9 13 10 10 9 7 9 6
17 16 19 22 21 21 22 22 20 16 14 11 10 8 8 8 8 7 7 6 3 0 3 4 7 8 5 7 9 11 10 13 11 7 12 12 13 12 10 10 7 10 8
18 19 18 20 23 22 24 22 20 18 16 15 13 11 10 10 9 8 8 7 6 4 3 3 5 7 7 6 8 12 11 12 11 10 10 11 14 15 14 15 12 10 10
19 19 23 24 24 25 25 23 22 20 18 17 15 13 11 10 8 6 6 6 7 4 5 5 5 7 8 6 5 8 10 10 8 8 9 9 10 14 17 18 14 11 11

GFSSE_700_spd_036.txt.gz
Wind_Speed
32 35 32 29 28 26 22 19 18 16 17 17 15 13 12 11 9 9 9 9 9 10 10 10 11 10 8 7 6 5 4 3 5 7 8 10 11 9 8 6 5 5 6
35 33 31 29 26 23 19 17 16 16 17 17 15 14 14 13 12 11 11 11 11 11 11 12 12 10 10 8 7 7 7 8 8 7 8 11 12 12 8 7 6 5 6
33 33 31 27 24 20 18 17 17 17 17 16 15 15 14 13 13 13 13 13 13 12 11 10 9 8 8 8 8 7 8 9 8 9 9 12 15 14 11 8 7 6 6
32 31 30 25 21 18 17 19 17 17 17 15 14 15 15 14 14 14 15 15 15 14 13 12 9 7 9 10 10 9 10 11 7 8 10 14 18 15 12 9 8 6 6
32 29 26 23 19 17 20 19 18 17 16 15 15 15 15 15 15 17 17 17 15 13 12 11 11 10 14 13 11 12 12 10 9 10 11 15 17 14 11 9 7 6 6
31 28 24 20 18 19 20 19 18 17 17 16 16 16 16 15 17 16 15 13 11 10 10 9 11 14 15 14 14 13 11 14 14 14 15 15 14 12 9 7 6 8 9
30 28 24 20 19 20 20 19 18 17 18 17 16 16 16 16 16 13 12 10 9 9 8 8 8 8 10 12 12 13 12 13 16 16 15 15 13 10 9 8 9 9 10
29 27 23 21 21 20 20 19 19 19 18 17 17 16 16 16 15 13 11 11 10 10 11 9 8 8 9 12 13 15 11 10 15 16 15 13 13 12 9 9 8 9 9
29 25 23 22 23 21 21 20 20 19 18 17 16 15 15 15 15 13 12 11 11 12 12 15 14 11 11 13 16 16 14 13 12 13 12 11 10 10 9 7 8 9 9
28 24 23 24 23 22 21 20 20 19 17 17 16 14 12 14 16 14 12 12 13 14 15 12 14 14 13 14 15 17 17 16 13 11 10 10 10 9 8 7 8 9 9
29 25 26 25 24 22 21 20 19 18 16 16 15 13 13 11 12 13 13 12 14 13 10 11 11 10 11 15 17 15 12 15 11 10 10 9 9 9 8 7 8 8 8
28 28 28 26 24 22 21 20 18 17 15 15 13 13 14 11 10 12 13 11 12 11 11 8 6 7 11 11 13 13 12 10 8 8 9 8 9 9 8 7 7 7 7
27 28 29 26 24 22 21 19 16 15 14 14 12 14 14 8 10 12 9 10 9 9 11 12 6 6 6 5 6 9 9 9 5 4 7 8 9 10 8 6 6 7 7
29 27 28 27 25 23 21 19 16 16 17 12 17 14 11 8 7 10 7 9 9 11 8 10 9 8 4 2 7 8 9 9 2 6 7 9 9 9 9 7 4 5 5
29 28 28 27 25 23 21 19 18 14 15 15 19 14 9 7 6 8 7 6 7 5 7 11 8 7 5 4 4 6 1 6 5 8 7 7 6 6 7 6 4 4 4
28 28 28 27 25 23 20 18 17 15 16 17 17 13 10 5 6 5 5 6 6 6 8 11 11 7 8 2 1 1 4 4 2 5 3 9 7 5 5 4 5 4 3
27 28 28 27 26 23 20 18 16 17 20 18 14 11 11 8 5 3 4 3 7 7 7 7 6 9 8 14 7 9 10 8 5 4 3 7 7 6 5 4 3 3 4
24 27 28 28 26 24 21 16 12 15 18 15 13 12 8 4 5 5 5 4 6 8 6 2 5 7 4 8 9 4 13 13 8 5 6 6 6 6 6 5 3 3 2
17 31 31 28 26 24 20 17 13 12 11 12 14 12 10 7 4 2 3 4 7 7 6 3 7 6 7 7 11 5 11 15 9 10 9 5 2 2 4 5 5 5 4
18 23 25 24 23 22 21 20 18 15 13 10 11 10 8 5 3 3 2 1 5 7 6 5 4 5 8 11 11 10 10 8 13 15 14 10 12 8 3 3 6 6 4
18 20 22 24 22 22 22 22 20 16 14 11 8 8 7 6 5 5 4 3 3 5 7 7 7 4 8 13 13 12 13 9 16 15 14 13 12 10 8 7 3 5 5
18 19 21 21 21 22 21 20 18 16 14 12 11 11 9 8 7 5 5 4 3 5 5 7 8 6 7 6 6 11 13 11 11 14 13 10 8 9 8 8 6 5 4
23 20 20 21 21 24 22 22 22 22 22 18 13 11 11 11 10 7 5 4 4 3 6 8 7 8 8 9 10 8 8 11 14 14 13 11 12 10 8 10 7 6 7
25 21 19 21 23 25 26 25 25 21 17 13 11 11 13 12 11 9 7 5 5 4 6 8 7 8 8 11 12 11 10 10 13 12 12 12 14 13 11 10 8 8 7
23 26 22 22 25 26 28 27 25 23 18 17 16 16 16 13 11 9 7 6 6 5 6 8 7 8 9 9 10 11 11 10 10 9 9 13 15 16 15 12 10 8 7
19 23 26 27 27 27 29 29 26 24 22 21 20 18 16 13 11 9 7 5 7 8 7 8 9 9 9 10 10 7 8 9 8 8 9 10 12 13 13 14 12 9 6

GFSSE_700_spd_039.txt.gz
Wind_Speed
33 29 29 26 23 20 17 15 14 15 15 14 14 13 12 12 10 9 9 10 10 9 9 10 9 7 5 4 3 3 2 4 6 8 11 12 10 8 7 5 4 4 5
31 31 28 26 22 19 16 14 13 15 15 14 12 12 11 11 9 8 9 9 10 10 11 10 8 7 7 7 6 5 5 3 4 7 10 14 13 9 7 5 4 4 5
32 30 29 26 22 19 17 16 15 15 14 13 12 12 12 11 11 11 11 11 10 9 9 8 6 7 8 8 8 8 8 7 6 7 11 15 15 11 8 6 5 5 5
30 28 28 25 20 18 16 17 17 17 15 14 14 14 13 12 13 13 13 12 11 10 9 7 6 8 9 10 11 10 8 8 8 9 11 14 15 11 8 7 6 5 4
29 28 26 22 18 16 17 18 18 16 15 15 15 15 15 14 14 14 14 12 10 8 8 7 7 9 12 12 14 11 8 9 10 9 11 14 13 11 8 7 5 3 4
29 27 23 20 17 18 19 18 17 16 15 15 16 15 15 15 15 13 12 10 9 8 8 8 8 13 14 13 14 12 12 13 12 13 13 12 12 10 8 6 4 5 7
29 25 22 18 19 19 19 17 16 16 15 15 15 15 14 13 12 10 9 9 8 8 8 10 9 8 12 12 14 14 13 13 15 16 15 13 12 9 8 7 8 8 8
26 24 20 19 20 19 17 16 15 15 15 15 15 14 14 12 10 10 11 10 8 7 9 9 10 10 11 12 12 15 14 14 17 16 16 13 12 11 10 8 8 8 9
26 22 19 20 20 18 17 17 16 16 15 15 14 14 12 9 10 12 11 10 11 13 14 12 11 12 14 15 15 13 14 14 14 14 14 13 11 10 9 8 8 9 9
25 21 19 20 19 18 18 17 17 17 15 14 14 12 11 10 10 11 12 11 12 13 13 15 12 11 14 15 16 16 13 13 13 13 12 12 12 10 9 8 8 8 7
26 21 21 21 20 20 19 17 16 16 14 13 13 13 12 11 8 10 12 13 11 12 11 11 11 10 14 14 15 15 12 11 11 12 12 11 12 11 10 8 8 6 6
26 23 24 23 21 20 19 17 16 15 13 13 12 13 12 11 10 9 11 11 10 11 9 7 9 7 11 13 13 11 10 8 9 9 9 10 10 10 10 8 6 5 5
24 25 26 24 22 19 18 16 15 14 14 10 11 13 13 12 10 8 10 9 8 9 9 7 5 7 8 7 6 9 8 5 7 6 8 10 8 9 9 8 6 5 5
25 26 26 25 22 20 19 16 14 12 12 12 11 13 11 12 7 6 8 10 11 8 8 5 3 2 6 5 9 6 8 4 7 7 8 8 7 7 7 7 7 6 5
26 28 27 26 23 21 19 17 15 13 11 14 13 11 8 10 7 4 5 8 7 7 6 6 4 1 3 4 4 3 6 8 7 9 10 7 5 5 5 6 6 5 5
27 28 28 26 24 21 19 17 16 15 12 12 12 9 11 9 7 4 6 8 8 6 7 10 9 8 4 5 3 3 6 8 9 9 10 8 6 5 5 4 5 3 4
26 28 29 27 25 22 19 17 16 15 13 12 13 11 10 10 8 5 4 2 6 6 6 7 10 9 10 10 4 10 11 11 9 8 9 8 7 5 4 5 4 3 3
28 29 29 28 26 23 20 17 15 14 15 15 14 10 9 8 6 6 2 4 3 6 5 4 6 6 6 9 6 15 15 11 7 8 7 5 7 6 4 3 3 2 2
28 29 30 29 27 25 22 19 15 14 17 16 14 11 8 8 6 6 3 3 5 4 4 4 7 6 8 7 8 15 13 11 11 9 7 4 2 4 6 5 4 3 3
26 29 31 30 28 25 23 20 19 15 17 16 13 11 8 7 6 5 4 2 4 3 3 4 4 7 7 9 10 15 14 12 14 13 11 9 8 3 3 4 5 5 5
28 29 34 31 30 28 26 24 22 17 15 14 12 10 9 7 7 5 3 3 2 4 5 4 6 7 9 12 8 14 14 12 14 13 12 10 9 8 7 4 2 5 6
29 30 31 30 31 28 26 22 19 16 13 12 13 12 9 7 7 9 6 4 3 3 6 6 6 7 7 7 10 9 11 11 13 13 10 7 8 8 7 8 6 3 0
30 31 31 31 30 28 25 24 22 21 20 18 15 12 9 8 8 9 7 5 4 4 5 6 8 9 7 8 11 9 10 11 12 12 10 8 9 9 7 8 7 5 4
27 28 28 29 29 28 26 25 24 22 20 15 13 13 12 12 10 8 8 7 6 4 5 6 9 10 9 9 10 11 11 11 12 12 11 10 10 10 8 8 6 7 6
25 26 27 28 28 27 26 25 24 22 19 17 16 15 15 14 12 9 8 9 8 7 7 7 8 10 9 9 9 10 9 9 9 10 11 11 10 9 8 7 6 7 7
21 25 25 27 29 28 27 26 26 24 22 21 20 19 16 15 14 12 10 10 10 9 8 9 9 10 10 9 8 9 8 9 10 10 11 11 10 10 9 8 6 6 7

GFSSE_700_spd_042.txt.gz
Wind_Speed
29 28 27 24 23 22 20 18 18 18 18 17 16 15 14 13 13 12 11 10 10 9 10 9 8 5 3 3 3 3 3 4 7 11 11 8 7 7 6 5 5 5 5
27 28 26 24 21 18 16 16 17 18 18 15 13 12 12 12 11 10 10 9 9 10 10 8 7 6 6 6 6 4 4 6 7 9 12 11 9 7 5 5 4 4 5
26 26 25 22 19 16 14 14 16 17 16 14 13 13 12 12 11 10 10 8 8 7 7 5 6 6 8 8 8 8 8 7 9 11 11 13 10 7 5 4 4 4 6
26 25 23 20 16 14 14 15 16 15 14 13 13 12 13 13 11 10 10 8 6 7 6 5 6 8 10 11 11 10 8 8 9 12 12 13 11 8 6 5 5 5 6
26 24 21 19 15 13 13 15 16 15 13 13 13 12 13 13 11 11 10 8 7 7 6 6 9 10 12 13 12 10 10 11 11 13 14 15 11 8 6 5 4 5 6
26 24 21 17 15 14 15 14 14 14 13 13 13 14 14 13 12 11 9 7 7 7 8 10 13 13 13 13 12 12 13 13 13 15 15 13 11 7 6 4 4 6 7
27 23 20 17 16 17 16 15 14 14 14 13 13 13 13 13 11 8 7 7 6 8 8 10 8 12 12 12 13 14 15 15 16 16 14 13 10 8 7 6 7 7 7
25 22 18 17 18 18 16 15 15 14 14 13 13 12 11 10 9 8 8 7 9 8 9 10 9 9 12 12 13 14 14 15 16 15 14 13 11 10 9 7 7 7 8
25 20 17 18 18 17 16 15 15 14 14 13 12 11 9 9 9 7 9 13 15 14 14 10 9 11 13 13 12 13 13 14 16 16 15 13 11 10 9 8 8 8 7
25 20 17 19 18 16 16 15 15 15 14 12 10 10 8 9 10 8 10 12 12 14 15 12 10 12 13 13 12 11 11 12 13 14 14 13 11 10 10 8 8 7 7
25 21 18 19 17 17 17 16 14 14 13 12 10 10 9 9 10 10 11 11 12 12 13 13 10 10 13 13 14 13 10 10 10 11 12 12 11 11 11 9 8 8 7
25 22 21 20 18 18 18 16 14 14 12 11 10 11 9 10 10 9 8 9 12 10 8 9 9 10 11 10 10 10 10 9 10 9 10 10 9 10 10 9 8 8 7
23 22 23 22 20 18 17 15 13 12 11 11 11 10 10 11 10 9 9 6 8 9 8 8 9 9 5 6 6 5 6 8 8 8 9 9 9 9 9 8 8 7 6
23 22 23 24 21 19 17 15 13 12 12 11 12 10 10 10 8 8 8 8 6 6 6 5 5 6 5 4 5 7 5 5 6 8 9 10 9 8 7 7 8 7 5
23 24 24 24 22 19 18 15 12 11 12 11 12 9 8 8 8 7 7 6 5 4 4 6 5 2 3 3 3 6 7 6 7 9 9 8 7 7 7 6 7 6 5
24 25 25 24 22 20 18 15 12 10 11 13 11 7 8 7 8 7 6 8 6 5 6 6 7 5 2 3 2 5 9 8 8 9 9 6 6 5 5 6 5 5 5
23 27 26 24 23 21 18 15 13 11 10 12 10 10 6 8 9 6 5 5 8 5 4 8 8 10 9 6 5 9 12 10 8 10 9 6 5 4 5 5 4 4 3
25 28 28 26 23 22 20 16 13 11 11 10 10 10 8 6 7 6 5 8 6 3 3 5 3 9 10 8 8 14 12 10 9 10 8 6 5 5 4 4 4 3 2
24 27 29 28 25 21 21 18 14 11 12 11 11 11 9 7 6 5 5 6 5 3 2 3 3 4 7 6 8 11 9 12 11 9 6 5 6 6 5 4 4 3 3
27 27 29 29 27 24 23 21 17 14 13 13 13 11 10 8 6 5 4 4 4 4 2 1 4 4 5 7 10 10 10 13 12 10 7 5 4 4 5 6 6 6 5
29 30 30 31 30 28 25 22 19 15 13 15 15 12 9 7 6 6 5 4 3 4 3 2 4 6 7 8 10 11 11 10 9 9 8 8 8 6 5 3 6 5 6
31 31 33 32 31 28 26 22 19 16 15 15 17 13 9 7 7 6 5 4 3 2 4 4 5 6 8 10 10 8 9 7 7 7 7 5 6 7 6 5 5 5 3
33 33 33 33 33 30 27 25 22 21 21 20 17 12 9 7 7 6 5 4 4 2 3 4 6 6 8 8 12 11 10 9 7 7 8 5 3 5 6 6 6 7 6
30 31 31 31 33 30 29 27 25 22 20 18 16 14 11 9 9 9 7 6 5 5 5 5 6 8 12 10 9 11 11 10 10 9 8 8 6 6 7 8 8 6 5
28 30 30 32 33 31 29 28 26 24 21 18 16 15 14 12 11 11 11 10 8 7 6 6 8 10 12 12 11 9 9 10 10 10 10 9 8 7 8 8 9 8 7
27 31 31 31 32 33 31 30 29 26 21 19 17 16 14 13 12 11 11 12 11 8 8 8 9 10 11 11 10 9 8 8 9 9 10 11 10 9 10 10 11 9 9

GFSSE_700_spd_045.txt.gz
Wind_Speed
28 29 29 28 26 25 22 20 18 18 18 17 16 15 15 14 13 11 10 9 9 10 10 8 6 5 4 3 4 4 5 7 8 9 7 7 6 5 5 7 7 8 8
26 26 28 25 23 21 19 19 20 20 18 16 15 14 13 12 11 10 10 10 10 10 9 7 5 5 5 5 5 4 4 8 8 11 9 7 5 5 6 6 7 7 7
26 26 26 23 21 20 19 19 19 18 16 14 13 13 13 12 11 9 9 10 9 7 6 5 5 6 7 7 8 7 7 8 10 11 12 9 6 6 6 7 6 5 7
25 25 24 21 19 18 18 19 18 15 14 14 14 14 13 12 11 9 8 9 8 7 6 7 6 8 9 11 9 8 7 10 12 13 13 11 8 7 6 5 5 5 7
25 24 21 18 17 16 17 18 16 14 14 14 13 13 13 11 10 9 9 8 7 7 8 9 9 10 11 11 8 10 11 11 13 14 15 12 9 7 6 5 5 5 7
26 23 19 17 16 15 17 17 16 14 13 13 13 13 12 12 10 8 7 6 6 7 10 11 12 12 12 13 14 12 12 13 14 14 15 11 9 7 5 4 6 7 8
25 21 17 16 15 16 17 16 14 14 13 13 13 13 12 11 8 7 6 6 5 7 10 10 10 12 12 14 14 15 15 16 17 16 14 11 9 7 6 6 7 7 8
22 20 15 15 16 16 16 15 14 13 12 12 13 12 10 8 7 8 6 5 6 8 9 10 9 11 13 13 14 15 15 16 15 15 13 10 9 8 8 7 7 8 8
23 19 14 16 18 16 15 14 14 13 12 12 11 10 8 7 8 9 11 12 12 12 11 11 10 10 11 11 14 13 14 14 14 14 13 12 10 9 9 9 8 8 8
23 19 16 18 18 17 16 15 15 13 12 12 11 10 8 7 9 10 12 11 14 14 13 12 12 11 10 11 11 11 11 11 11 11 11 10 9 9 10 9 8 8 8
24 20 19 19 18 18 16 16 15 14 13 11 10 11 9 8 9 10 10 11 12 13 14 11 11 11 11 11 10 9 9 9 10 10 10 9 9 9 9 8 7 7 7
25 22 21 20 18 18 17 16 14 13 12 11 10 11 9 9 8 9 8 11 10 10 12 11 10 9 9 10 10 9 9 9 10 10 10 9 9 9 9 8 8 7 6
24 22 22 20 20 19 18 16 14 13 11 11 11 10 9 9 10 9 7 7 8 8 9 12 10 9 6 6 5 6 8 8 8 9 9 10 9 9 8 7 7 7 7
23 21 22 22 21 20 18 15 13 13 12 12 11 10 8 7 8 9 9 7 6 7 7 6 7 5 4 6 6 4 5 6 7 9 9 9 8 7 7 6 6 6 5
22 22 23 23 22 19 17 15 13 13 12 12 10 10 7 6 5 7 8 6 6 7 8 7 4 2 2 3 4 7 5 7 7 9 8 8 7 7 6 7 6 5 5
22 23 23 23 21 19 17 14 12 12 12 12 10 7 7 6 6 6 7 7 5 7 9 7 5 2 0 2 4 7 8 7 8 9 8 6 5 5 4 5 5 5 4
22 24 23 23 21 19 17 14 12 12 14 14 10 8 6 6 5 8 7 6 6 5 6 6 8 7 7 4 4 10 9 7 8 9 8 6 5 4 3 4 5 4 3
24 25 25 24 22 20 17 14 12 12 12 13 9 8 6 6 5 7 8 7 7 5 5 5 8 7 5 4 11 11 9 7 8 9 8 6 5 4 3 3 2 2 1
24 25 26 25 23 20 18 16 14 12 11 11 10 9 6 5 5 6 7 6 6 5 3 5 3 6 6 5 9 8 8 9 9 8 7 6 5 5 5 4 5 3 3
27 27 27 26 25 23 20 18 16 13 11 10 10 10 7 5 5 4 5 4 5 4 2 3 2 3 5 6 8 3 9 9 7 4 3 2 4 6 6 6 5 4 4
29 29 30 29 27 26 24 20 17 13 11 11 10 10 8 6 5 4 4 4 5 4 3 1 2 4 5 7 6 9 9 8 6 5 5 5 3 1 1 3 5 6 6
30 30 30 31 29 27 24 20 17 15 13 14 15 13 10 6 6 5 5 3 3 5 4 2 3 6 8 9 9 8 7 5 4 4 5 4 4 5 6 5 4 2 3
34 32 32 32 31 29 27 24 22 21 19 18 16 13 11 9 7 7 5 3 4 5 4 3 4 7 8 10 10 11 8 7 6 5 5 5 5 6 7 6 5 6 6
35 33 33 33 33 31 29 27 23 21 19 16 14 15 13 11 9 8 6 4 3 4 5 5 6 8 10 12 11 11 10 9 8 7 7 8 8 9 9 9 9 10 8
33 35 35 35 36 34 31 28 25 25 23 21 19 18 15 13 11 10 7 6 5 5 5 7 9 10 10 11 12 11 9 9 9 9 9 10 10 10 11 13 15 15 13
33 35 36 36 37 38 34 31 29 26 24 22 20 19 16 13 12 12 10 10 9 7 7 8 12 10 9 9 9 10 10 8 9 9 9 10 11 14 15 15 15 14 13

GFSSE_700_spd_048.txt.gz
Wind_Speed
34 33 32 29 27 24 22 19 18 16 14 13 12 12 12 12 11 9 7 6 6 7 7 5 2 1 3 3 4 4 6 7 7 7 6 5 5 5 7 8 9 9 11
32 32 30 27 24 22 21 18 17 16 15 15 14 13 12 12 11 10 9 9 8 8 5 4 3 3 4 5 4 5 6 7 8 9 7 6 5 5 6 7 8 9 9
29 28 27 25 22 21 20 19 18 17 15 14 12 11 11 10 10 10 9 8 8 6 5 5 4 5 6 6 6 6 7 9 10 11 8 6 5 5 6 8 8 9 8
26 26 24 23 21 20 21 19 16 14 14 13 12 12 11 10 10 9 9 8 7 5 6 6 7 8 9 9 7 5 7 10 10 11 10 7 4 5 7 7 7 7 9
26 24 21 21 20 20 19 17 16 14 14 13 13 12 11 10 10 9 8 6 6 6 7 8 8 10 9 7 8 5 9 12 12 12 12 8 7 6 6 6 7 8 9
25 23 20 20 19 19 18 17 16 15 14 13 12 11 11 11 9 8 6 5 6 8 10 10 11 11 10 11 9 9 11 13 15 15 12 8 7 6 6 7 8 9 10
25 21 19 18 18 18 18 16 15 14 14 13 12 11 11 9 8 7 6 6 7 9 10 10 10 10 12 12 13 12 13 14 16 15 12 9 7 6 7 8 8 9 9
24 20 18 17 18 19 18 15 14 14 13 13 12 11 8 7 8 7 6 7 8 8 8 10 11 11 12 13 15 16 15 15 15 14 11 7 6 7 7 8 9 8 8
24 20 17 19 19 18 17 15 14 13 13 12 11 9 8 9 8 10 11 12 10 9 9 9 10 11 12 12 15 15 14 13 13 11 10 8 8 7 7 8 8 8 8
23 19 18 20 20 19 17 16 15 13 13 12 10 10 10 10 9 11 11 12 11 11 12 12 11 10 10 11 12 11 11 10 11 10 9 8 8 7 8 7 7 7 7
23 19 20 20 19 17 17 16 15 14 13 11 10 11 11 10 9 10 11 11 13 12 12 12 12 11 10 9 9 9 8 9 9 8 9 7 8 8 7 7 6 6 5
23 20 21 21 19 18 17 16 15 14 13 11 11 11 12 9 8 8 11 9 9 10 11 11 10 10 15 7 8 6 8 7 6 7 7 7 8 8 8 6 6 6 5
22 21 22 21 21 20 18 17 14 13 11 12 11 11 12 10 7 7 8 10 9 9 9 10 8 9 8 10 6 5 6 7 6 5 6 7 7 7 7 5 5 5 5
22 22 23 22 22 21 20 17 15 14 13 12 10 12 11 9 8 8 7 8 9 8 8 8 6 5 4 5 5 5 5 6 5 6 5 5 6 5 5 4 5 4 5
22 22 23 23 23 21 19 17 16 15 14 13 10 11 9 7 7 7 7 8 8 7 6 6 5 4 3 4 6 7 6 7 8 7 6 5 5 5 4 4 4 4 5
22 21 23 24 22 20 18 16 16 14 14 13 10 7 7 6 4 6 7 8 7 8 5 4 4 4 4 3 5 6 7 8 8 8 7 5 4 3 2 2 3 3 4
22 23 23 24 22 20 18 17 15 15 14 13 9 8 6 7 4 4 4 8 6 6 6 6 5 6 5 3 7 7 6 8 8 8 6 4 3 2 2 2 2 2 2
23 24 25 24 22 20 17 16 15 14 14 12 9 7 6 7 6 5 5 5 7 6 6 5 6 4 5 5 9 6 6 5 7 7 6 4 4 4 3 2 1 1 2
24 25 26 24 22 21 18 17 16 14 15 11 8 6 4 5 6 6 5 6 5 6 6 4 5 5 7 6 5 5 5 4 4 4 4 4 4 4 4 3 3 3 3
26 26 27 26 24 22 20 17 16 14 13 11 9 7 4 3 4 3 4 4 4 5 4 5 3 5 7 10 8 6 5 4 3 2 1 2 3 4 5 5 4 4 5
29 29 29 29 27 24 20 17 15 12 12 11 9 7 5 3 2 2 2 3 3 5 5 5 5 4 5 7 6 8 8 6 4 3 3 5 3 3 3 2 3 5 4
29 28 30 30 28 25 22 19 17 15 13 13 12 9 7 5 4 3 4 3 4 4 5 3 5 6 7 9 9 6 3 7 3 2 3 4 5 5 7 7 6 6 6
31 31 31 31 29 27 25 23 20 18 16 14 13 11 10 8 6 4 3 3 4 4 4 4 5 5 5 8 9 10 5 5 4 7 6 7 7 9 9 8 9 9 8
33 31 31 32 32 30 28 26 23 19 17 15 13 13 12 11 9 7 5 3 3 3 4 3 7 9 10 9 10 9 11 9 6 5 9 12 13 12 12 11 12 11 11
35 33 33 33 33 33 31 28 25 23 21 18 17 16 14 12 10 9 8 6 4 4 4 4 7 10 11 11 9 10 10 9 8 10 5 7 13 13 12 12 14 14 13
34 35 34 35 34 34 33 31 29 26 23 23 20 17 15 13 12 11 9 7 6 5 5 6 6 8 10 10 10 10 8 6 3 6 6 6 9 12 14 15 16 15 14

GFSSE_700_spd_051.txt.gz
Wind_Speed
32 34 30 28 24 21 19 17 15 13 14 11 9 8 7 6 6 5 4 4 4 5 5 4 2 1 1 3 5 6 7 6 6 5 6 6 7 8 9 9 10 11 11
31 31 28 26 24 21 16 15 14 13 12 11 10 10 9 8 7 6 7 8 6 5 4 4 3 3 4 4 4 6 8 9 9 7 7 7 7 7 8 9 11 11 12
30 28 26 24 21 19 17 15 14 13 12 12 10 9 9 8 7 7 8 7 5 4 5 4 5 4 5 5 6 6 7 9 9 9 8 7 6 7 9 10 11 12 13
28 26 23 21 19 18 18 17 15 13 11 10 9 8 8 7 7 7 6 6 4 4 4 5 6 6 7 6 6 6 8 10 10 9 10 6 6 7 9 11 12 12 12
26 24 22 20 20 19 18 15 14 12 11 10 10 10 9 8 7 6 6 6 5 6 6 7 7 7 6 7 6 7 10 12 13 10 6 7 8 8 9 11 9 11 12
22 22 21 20 20 19 17 15 14 13 12 11 11 10 10 9 7 5 6 6 7 8 9 10 9 9 9 8 7 10 12 13 13 12 10 7 7 8 8 8 9 10 11
20 22 19 20 20 19 16 14 14 13 12 12 11 11 9 7 6 5 5 5 8 9 9 9 10 10 11 12 12 13 14 14 14 12 8 8 8 7 8 9 10 11 11
19 20 19 19 19 19 17 15 14 13 12 12 12 10 8 7 6 5 5 6 8 7 8 9 11 12 13 14 15 15 14 16 12 9 7 6 7 7 8 9 9 9 10
18 20 18 19 20 20 18 16 14 13 12 12 10 9 9 8 9 10 10 8 8 8 8 9 10 12 14 15 16 15 13 11 12 8 6 7 7 7 8 8 8 8 8
18 19 20 20 20 20 18 16 14 13 12 11 10 10 9 10 11 10 11 9 9 9 8 9 10 11 13 14 15 15 13 10 15 4 7 6 6 8 8 7 6 6 7
19 16 16 19 21 18 18 16 15 14 12 10 10 10 10 11 11 9 11 10 11 9 9 9 11 10 12 12 11 10 10 15 4 4 6 5 6 6 6 6 6 6 6
19 17 17 16 20 18 18 17 15 14 12 11 10 10 12 12 8 10 8 9 11 8 9 11 9 8 10 18 7 5 10 12 4 4 5 6 5 5 5 6 6 6 5
20 19 21 18 20 15 16 16 15 10 9 13 10 13 8 11 11 7 9 10 11 11 7 9 4 10 8 19 4 12 9 11 3 8 6 6 4 4 5 6 5 5 5
21 21 15 21 20 23 18 14 12 7 11 12 11 11 11 10 9 9 8 5 5 1 8 8 2 3 3 7 0 8 11 5 5 7 4 4 4 5 5 5 4 4 5
22 21 22 22 22 16 20 15 14 13 11 9 9 9 13 6 4 5 7 3 5 4 5 2 1 2 2 5 2 4 2 7 4 4 6 4 4 4 5 5 4 4 4
23 21 21 21 24 24 23 21 18 17 13 10 10 9 9 6 6 6 6 5 9 6 3 3 5 11 7 1 4 4 5 6 4 5 4 4 3 3 3 4 4 4 5
23 22 21 21 22 21 18 17 15 16 12 10 8 6 7 7 5 5 4 6 5 3 4 6 7 11 6 2 5 6 1 4 7 5 1 2 1 1 2 3 3 3 4
25 24 23 22 21 20 19 17 20 15 13 7 6 4 5 5 5 6 4 6 5 7 4 8 2 6 13 1 8 4 6 2 5 3 3 2 2 0 1 2 3 3 4
24 24 25 25 22 20 18 16 15 15 15 10 5 6 4 3 5 4 3 4 9 8 2 7 2 6 13 4 5 5 4 3 12 6 4 3 2 6 3 2 3 3 5
26 26 27 26 24 21 18 16 16 16 17 12 10 3 4 3 3 5 3 4 3 8 8 7 7 3 14 10 9 5 3 1 3 3 7 8 3 2 6 4 5 4 4
28 27 28 28 25 23 20 17 15 14 15 12 10 9 4 2 2 2 2 3 6 4 7 3 7 9 8 9 6 5 3 5 8 4 3 2 6 5 6 5 5 5 5
30 28 29 29 26 24 22 20 17 14 12 12 9 8 6 3 1 2 3 3 2 4 3 3 12 6 4 15 12 2 1 6 4 1 1 4 5 2 5 7 8 9 10
32 29 29 29 27 25 24 23 20 18 16 14 9 10 7 4 3 3 3 3 3 4 3 2 6 15 4 15 17 12 7 11 1 6 6 8 2 7 5 6 9 10 10
32 31 29 29 28 27 26 24 22 18 14 12 12 9 9 7 5 6 5 4 3 3 3 3 5 14 10 4 10 13 11 11 10 7 9 7 6 10 10 13 12 12 13
32 30 30 30 30 30 28 26 24 22 18 14 12 16 13 10 8 7 6 5 3 2 2 3 5 6 11 10 6 6 8 5 11 15 9 8 10 11 12 14 15 15 15
33 31 30 30 30 31 30 29 27 25 22 18 17 16 15 12 11 9 8 6 5 4 3 2 5 7 6 10 13 10 3 6 8 5 4 5 4 8 12 15 15 16 16

GFSSE_700_spd_054.txt.gz
Wind_Speed
30 30 28 26 22 19 18 17 13 13 12 9 7 6 5 4 4 4 4 4 5 6 7 5 4 2 3 3 5 6 6 6 7 7 7 8 11 11 12 13 15 14 14
32 30 26 23 20 18 15 13 12 12 10 9 9 9 8 7 7 7 7 8 7 6 6 6 4 4 4 4 5 6 7 8 8 8 8 9 11 13 15 13 13 12 14
29 27 24 21 19 16 14 13 11 11 11 10 9 8 8 8 8 7 7 7 6 5 6 6 6 6 6 6 5 7 8 9 9 9 9 11 11 12 12 12 11 13 14
26 24 22 21 18 15 12 12 11 11 10 8 7 7 7 7 7 7 7 6 5 5 5 6 7 8 8 8 7 8 10 11 11 9 11 11 10 11 10 12 12 14 14
25 23 21 19 17 15 14 13 10 9 9 8 8 7 7 7 6 7 6 7 6 6 7 8 8 7 7 6 7 11 13 13 13 8 10 11 10 10 11 13 14 13 14
25 21 19 17 17 17 14 13 11 10 11 10 10 9 8 7 6 6 6 8 9 10 11 10 9 10 8 9 11 13 15 14 11 11 11 10 10 10 11 12 12 12 13
22 19 17 17 18 16 15 13 12 12 12 11 10 10 9 7 6 5 7 8 10 10 11 10 11 12 12 12 13 13 14 13 11 11 9 9 9 11 11 12 12 12 13
17 18 18 19 18 16 15 14 13 13 13 11 11 9 9 7 9 8 8 8 9 10 11 12 13 14 16 16 16 15 13 13 14 10 8 9 9 10 11 10 11 11 12
15 18 18 19 19 17 16 15 14 14 13 11 11 10 9 11 11 12 11 9 10 10 11 12 13 15 17 17 16 14 12 11 9 11 9 8 8 8 9 9 10 10 12
16 19 17 19 19 18 16 15 14 13 12 10 11 11 12 12 12 14 14 11 12 12 11 11 13 15 16 18 18 17 14 15 10 8 7 6 7 8 8 8 9 9 10
16 18 17 20 20 18 16 16 14 13 12 10 10 13 13 13 13 13 16 12 12 12 11 11 12 15 16 17 17 17 16 10 5 8 7 5 7 7 7 7 8 8 9
11 11 14 22 20 19 17 16 14 12 12 12 9 10 12 9 13 13 12 11 12 9 11 11 9 10 8 15 18 15 12 6 6 6 6 5 7 6 7 7 8 8 8
14 17 13 21 18 19 17 15 14 10 14 12 11 11 11 12 10 9 11 6 11 11 8 7 8 8 16 17 19 13 12 5 9 6 7 7 7 6 6 6 7 8 8
20 20 23 13 16 20 14 14 15 10 14 11 7 11 12 13 10 5 9 8 9 10 6 8 9 3 9 17 16 11 8 5 6 5 7 7 7 7 7 8 8 8 7
22 19 18 21 21 22 20 11 8 16 5 14 8 10 9 11 11 6 4 7 2 8 4 2 7 9 7 9 6 7 5 6 4 6 6 7 7 8 9 9 9 9 8
21 23 20 18 15 20 19 16 17 16 10 9 10 4 9 9 8 5 5 4 6 6 3 5 8 11 11 3 5 7 2 4 4 7 5 5 7 7 7 8 9 9 9
25 25 24 27 23 24 20 15 19 18 15 10 12 6 5 7 5 8 5 0 5 6 8 8 7 9 7 6 5 2 4 0 2 3 3 4 6 5 6 6 7 7 7
24 24 20 22 20 18 16 17 17 12 13 10 8 6 6 5 5 5 7 3 8 7 7 9 6 9 6 12 6 3 5 8 2 1 3 8 5 4 4 5 5 5 5
27 24 22 22 22 20 18 17 13 12 13 10 6 9 5 5 4 4 10 9 3 4 6 7 13 14 14 12 11 6 7 12 4 6 6 6 6 5 3 2 3 3 4
29 24 24 24 23 20 18 18 17 16 13 13 8 7 4 3 1 4 9 9 1 5 2 5 9 13 9 6 11 4 5 5 5 9 7 9 8 4 5 3 3 4 3
27 25 25 26 24 22 19 18 17 18 15 12 12 7 5 4 1 7 4 7 3 6 6 5 13 14 8 13 8 8 9 7 17 15 9 9 9 11 9 10 9 8 9
26 25 27 27 24 23 20 18 17 16 15 12 8 6 6 4 1 4 5 7 2 5 6 5 11 13 5 13 9 6 6 7 9 4 5 4 4 5 10 10 13 12 12
28 25 27 28 24 23 22 21 19 20 17 14 13 11 8 5 4 4 4 5 5 5 6 5 9 10 15 12 7 8 6 10 8 8 7 10 5 6 11 10 12 14 16
28 25 27 28 26 25 24 22 20 16 16 13 9 9 10 6 4 4 2 4 3 6 6 5 7 9 7 8 9 12 9 10 10 7 17 16 6 10 12 13 17 15 18
28 24 27 29 28 28 25 23 21 20 16 14 13 8 8 7 6 5 4 3 2 3 5 9 7 6 12 14 10 6 6 13 16 12 8 11 11 13 15 16 18 18 18
29 24 25 30 29 30 28 26 24 22 20 17 15 17 12 9 8 7 7 4 3 2 4 7 7 6 7 8 7 9 11 16 12 9 7 5 11 12 15 17 16 15 15

GFSSE_700_spd_057.txt.gz
Wind_Speed
29 28 27 25 23 21 18 16 14 14 12 9 7 7 7 7 7 6 7 8 8 8 7 6 5 5 4 4 4 6 7 8 8 10 10 11 12 13 13 12 15 13 14
27 28 26 23 21 20 17 13 13 12 9 7 8 10 10 9 8 9 9 9 8 7 6 7 7 7 7 6 6 7 8 8 9 10 10 11 12 12 11 14 14 14 14
27 26 23 20 18 17 14 13 12 11 10 10 10 10 10 9 9 9 8 7 7 6 7 9 9 8 7 7 9 10 12 12 12 10 10 12 11 13 15 16 14 15 15
25 23 21 19 17 15 13 12 12 12 11 10 10 10 9 9 8 8 8 7 6 7 7 10 11 10 8 9 10 12 13 13 11 10 10 13 12 14 14 14 15 15 16
24 20 19 16 15 13 13 13 12 11 10 9 9 9 9 9 7 8 8 8 10 10 11 11 9 7 9 10 11 13 14 13 13 13 12 12 11 11 13 14 15 16 16
24 21 18 16 15 14 14 12 10 11 11 10 9 9 9 8 8 9 9 12 14 14 14 13 10 9 11 13 15 17 16 13 12 12 13 11 11 12 13 15 16 16 15
23 20 18 17 16 14 12 12 12 12 11 10 11 9 8 8 8 10 12 14 14 14 15 15 13 13 15 16 17 17 17 14 13 12 12 11 11 13 13 15 15 15 14
21 19 17 18 17 14 12 12 13 13 12 11 10 9 10 12 12 12 14 13 14 16 17 18 19 19 19 18 19 19 14 13 12 11 10 11 11 12 13 13 13 13 14
18 15 16 17 17 15 14 13 14 15 13 11 10 12 14 16 15 16 15 14 14 15 16 17 19 21 20 19 18 14 14 13 12 10 11 10 10 11 12 12 12 12 13
14 15 16 17 17 16 14 14 15 14 12 11 11 13 16 16 19 17 16 15 15 15 14 15 15 18 17 19 20 18 16 13 14 12 10 10 9 10 10 10 11 11 12
17 16 17 18 18 17 15 14 15 14 13 12 13 16 15 17 17 15 16 16 15 16 16 16 15 13 14 14 16 9 13 12 14 12 11 9 9 9 9 9 9 10 11
16 20 17 18 19 17 15 15 14 13 13 13 13 13 14 13 14 17 17 13 12 15 14 18 14 11 11 9 11 10 12 12 14 12 11 10 10 10 10 10 10 10 10
11 21 20 19 20 18 17 15 14 12 14 13 12 8 11 14 15 16 15 11 13 11 10 11 15 20 14 12 7 15 15 15 10 10 11 11 10 10 10 11 11 10 10
13 21 20 23 20 20 19 14 11 12 16 12 10 9 10 11 8 12 13 10 12 11 9 10 10 10 10 7 9 11 12 4 8 10 9 11 11 11 11 11 11 11 10
15 15 19 17 17 22 19 16 11 15 16 17 10 11 9 9 11 10 8 8 10 6 9 10 11 13 10 6 8 8 8 5 4 8 9 9 10 10 11 11 11 11 10
21 14 18 18 15 19 18 18 14 17 16 15 13 10 9 6 10 8 8 8 6 7 6 7 9 11 10 10 4 1 4 1 5 8 8 8 8 9 9 10 10 9 9
21 15 17 20 22 19 17 15 15 14 13 10 10 10 9 6 5 6 9 8 4 8 10 12 5 12 14 9 7 6 4 5 4 6 7 7 7 7 8 7 7 8 9
23 19 21 24 22 22 15 15 18 14 16 14 11 10 7 8 6 4 5 12 10 10 15 14 7 17 14 11 7 5 6 10 5 6 9 8 6 5 5 5 5 6 6
26 22 20 27 26 25 18 20 21 17 16 15 9 8 8 7 6 4 6 10 11 10 7 4 17 19 15 12 7 6 10 9 4 10 8 7 7 4 3 3 5 6 8
28 23 21 26 26 23 22 24 20 19 14 11 13 10 10 8 7 9 4 5 9 9 9 11 15 14 11 9 9 9 15 15 8 9 11 10 11 8 10 7 8 10 12
27 23 24 24 29 24 24 24 17 18 14 14 12 10 9 11 6 9 6 10 8 6 12 14 13 14 12 12 8 11 12 16 13 14 14 10 14 15 14 14 14 14 14
27 23 23 24 26 24 22 21 19 17 16 12 10 9 8 10 8 7 7 8 10 6 8 11 14 14 17 12 9 14 7 11 10 10 11 10 13 14 15 17 17 16 19
30 26 25 25 26 25 25 22 21 24 20 17 14 11 7 8 5 7 7 9 7 7 7 10 10 8 13 11 7 10 7 8 15 19 19 12 8 12 19 20 18 20 22
30 26 26 25 26 25 26 24 21 19 19 16 12 11 10 7 5 8 5 7 6 7 9 7 12 11 10 8 12 13 12 11 13 16 17 15 12 12 20 20 22 23 22
28 26 28 25 28 27 26 23 20 17 16 17 18 13 10 9 7 6 7 7 6 9 8 9 8 8 10 14 15 13 12 18 14 9 13 15 14 16 19 20 18 19 18
29 25 28 27 29 30 27 25 23 19 16 16 17 14 16 12 9 8 5 5 8 8 7 8 10 10 9 14 16 17 23 14 17 10 9 15 17 17 17 16 15 15 15

GFSSE_700_spd_060.txt.gz
Wind_Speed
31 30 30 28 26 23 22 20 18 16 13 10 9 8 7 6 5 5 7 8 8 6 4 3 4 6 7 8 9 8 8 8 8 9 10 9 11 13 12 15 14 15 15
29 29 27 26 24 21 19 17 16 13 10 9 9 8 7 7 8 9 9 9 7 6 5 5 6 6 7 8 9 10 9 9 9 9 10 10 11 12 14 15 15 16 15
27 28 25 23 21 18 15 15 13 10 10 11 10 9 9 9 9 9 7 6 6 6 7 7 8 7 8 8 10 12 11 11 10 9 10 11 11 12 15 14 15 16 15
26 25 22 20 19 16 15 14 12 12 11 10 10 9 9 9 8 7 6 6 7 9 10 9 9 10 10 10 11 13 12 11 10 9 9 11 12 13 14 15 16 16 15
25 22 20 18 16 15 14 14 13 12 10 10 9 9 9 8 7 8 8 9 11 12 11 9 8 9 12 13 13 14 12 12 10 10 10 12 12 13 15 15 15 15 14
23 20 18 16 14 15 14 13 12 11 11 10 10 9 8 8 8 11 12 15 15 13 12 10 10 10 13 16 16 15 17 11 12 12 11 12 12 13 14 14 14 14 14
21 19 17 16 16 15 13 12 12 13 12 11 11 8 7 8 11 14 15 16 15 14 12 14 17 18 18 20 19 16 13 12 12 12 12 12 12 13 13 13 13 13 14
18 18 16 16 16 14 13 12 12 13 12 12 10 10 12 12 14 14 15 17 16 16 16 17 19 20 19 20 19 17 15 12 12 12 11 11 11 12 12 12 13 13 14
18 15 16 16 15 14 14 13 13 13 12 11 11 13 14 14 16 16 16 17 18 18 18 17 18 20 21 22 19 16 12 12 12 12 11 11 10 11 11 11 12 13 14
18 16 15 15 14 14 14 14 13 12 11 13 13 13 15 17 16 17 16 14 16 19 20 19 17 19 20 20 20 15 13 12 12 12 12 11 10 10 10 10 11 13 13
18 15 15 15 15 15 15 14 12 11 12 14 14 14 15 19 17 16 17 17 15 16 18 18 17 15 18 17 15 13 14 15 14 13 13 12 11 10 10 10 11 12 12
14 14 14 15 15 16 16 15 12 11 12 14 12 13 15 17 19 18 17 18 18 16 16 14 14 12 15 15 15 8 13 16 17 14 13 12 11 11 11 10 11 11 10
13 16 15 17 17 17 16 13 13 13 13 12 10 11 14 16 16 18 15 15 14 15 12 12 15 12 13 13 13 12 12 17 17 14 13 12 11 11 10 10 10 10 9
15 16 16 18 19 17 16 15 12 13 13 12 11 9 9 12 13 16 17 12 10 12 12 17 12 14 8 7 10 9 9 15 13 12 11 11 11 11 11 10 10 10 10
14 18 18 19 19 17 17 16 13 12 12 14 12 10 8 13 12 10 13 10 9 13 11 11 9 12 9 11 9 7 14 12 11 11 11 10 10 10 10 10 10 10 9
16 22 20 19 18 17 17 16 17 16 15 15 14 9 5 9 10 8 9 10 7 10 10 15 15 7 7 13 10 8 8 10 10 9 9 8 8 7 8 8 8 8 8
17 19 16 16 18 19 16 16 20 20 17 14 12 8 5 7 8 6 7 7 11 10 10 15 12 11 10 13 10 11 7 9 9 8 7 7 6 6 6 7 7 8 8
10 9 13 15 15 17 16 15 19 20 17 15 13 8 7 7 3 5 5 9 11 4 8 13 15 16 15 14 10 5 12 11 8 7 7 7 5 5 5 6 8 8 10
10 11 14 14 17 19 16 17 17 16 15 14 14 12 9 6 5 8 10 12 10 8 4 18 15 16 14 13 8 10 10 11 9 10 7 6 6 5 4 6 8 11 13
17 14 13 16 19 21 18 19 20 17 14 14 12 11 10 7 8 9 7 9 9 9 9 14 11 16 16 14 12 14 17 15 10 11 11 11 11 11 11 12 13 15 17
23 22 17 18 25 21 24 20 17 16 14 12 14 11 8 6 6 8 7 9 8 12 13 12 11 14 13 11 11 17 14 9 13 13 15 14 14 15 16 17 17 18 20
28 24 22 21 26 22 24 23 13 16 12 16 12 11 11 8 6 7 8 7 9 11 10 11 14 11 12 12 13 14 11 9 16 15 15 16 16 16 16 21 22 24 24
33 26 22 21 23 22 24 24 21 22 21 15 16 14 11 11 8 6 8 7 7 10 9 14 14 14 11 10 6 7 10 16 17 17 17 19 17 17 19 22 24 25 24
38 31 22 20 22 24 25 26 24 23 19 15 13 12 12 10 10 7 8 8 8 8 10 11 11 10 12 12 14 11 14 14 14 15 17 20 18 19 22 22 22 21 20
35 33 24 22 23 28 27 26 23 22 22 20 17 16 12 12 12 9 8 8 8 8 10 10 12 11 11 16 15 15 16 10 12 15 18 19 22 22 21 21 18 17 18
39 34 29 25 26 29 29 26 23 20 20 21 21 17 15 13 11 12 9 8 8 8 9 8 11 10 12 16 16 18 19 13 14 12 17 20 22 20 20 18 16 15 15

GFSSE_700_spd_063.txt.gz
Wind_Speed
30 28 28 25 22 18 16 15 15 14 11 9 8 6 5 3 2 2 3 4 4 3 4 5 5 6 6 6 5 6 7 7 7 8 10 10 11 13 14 14 14 14 15
28 28 27 24 22 18 17 15 13 10 7 6 6 5 4 4 5 6 6 5 4 2 3 4 6 6 7 7 8 8 7 7 7 9 10 11 11 13 14 14 14 14 14
29 28 26 24 21 18 16 15 12 9 8 8 8 7 7 7 7 7 5 4 3 3 3 5 7 8 9 9 10 10 9 9 9 9 11 12 12 13 14 14 13 14 13
26 25 24 21 19 15 14 13 10 10 10 9 8 7 7 7 6 5 4 5 6 7 7 8 8 8 10 11 12 12 11 10 10 10 10 11 12 13 14 13 13 13 13
24 22 21 18 15 14 13 13 12 11 10 8 8 8 7 5 6 7 8 8 9 9 9 9 9 10 12 13 14 13 11 10 10 10 9 12 12 13 13 13 13 13 12
23 20 18 15 13 13 13 12 11 10 9 8 8 7 5 6 9 12 13 12 9 9 10 10 11 13 15 16 15 15 12 11 10 10 11 12 11 12 13 13 13 13 12
20 18 16 14 13 14 12 10 10 10 9 8 7 5 6 10 13 13 13 13 10 9 10 13 15 16 17 18 16 14 12 10 10 12 12 11 11 12 13 14 13 14 13
16 15 14 14 14 12 11 11 10 10 10 7 6 7 9 13 14 14 14 13 12 13 14 16 17 18 19 17 15 12 12 11 11 13 12 11 11 12 12 13 13 13 13
16 14 13 14 12 11 11 11 10 9 8 7 7 10 12 15 15 16 15 15 16 17 17 17 18 19 18 15 15 13 10 10 13 13 12 12 11 11 11 12 13 14 14
16 15 14 14 12 11 11 11 10 8 6 7 8 10 14 15 17 15 16 17 16 19 18 19 20 21 16 16 13 10 9 11 13 13 12 12 11 10 10 11 12 13 14
17 15 16 14 13 11 10 11 10 8 7 8 9 11 14 17 17 16 15 17 16 16 18 18 20 20 17 15 12 11 9 11 13 14 13 12 11 11 10 10 11 12 13
17 16 16 14 12 11 10 11 9 7 9 10 10 12 15 18 20 17 16 16 16 15 16 16 17 19 15 12 10 10 10 12 14 15 13 12 12 11 10 11 12 12 11
15 14 14 14 13 12 10 9 9 8 9 9 9 10 13 17 18 18 16 14 11 10 12 13 16 16 12 11 11 11 12 13 14 14 12 12 11 11 11 11 11 11 10
14 14 13 15 14 13 12 10 9 9 8 8 8 8 9 12 14 15 13 10 9 9 13 15 16 15 14 9 10 11 11 13 14 13 12 11 11 11 11 10 10 10 9
13 13 13 15 15 13 13 11 9 11 9 10 9 7 5 11 11 11 13 11 9 6 9 6 9 14 15 11 9 11 11 13 13 11 11 10 10 10 10 9 9 9 9
12 12 15 16 15 14 13 13 11 10 10 11 14 11 11 6 7 9 9 10 9 7 12 10 8 8 13 10 8 10 11 12 10 9 9 8 9 9 9 10 9 8 8
7 12 16 17 16 15 13 14 13 12 11 11 12 12 10 7 5 3 6 6 10 9 10 10 9 10 14 9 10 10 12 9 8 8 7 8 8 8 8 8 8 8 9
15 17 14 16 15 16 14 13 13 14 11 11 10 10 8 7 5 3 4 7 11 10 11 9 9 13 14 11 10 12 11 9 8 8 8 7 7 6 6 7 8 11 13
14 15 14 14 13 15 14 13 13 15 11 9 9 8 7 5 5 6 7 9 9 9 15 14 10 11 11 12 11 11 10 10 9 9 9 7 7 6 7 10 12 15 16
10 9 11 10 12 14 13 13 18 17 14 9 8 7 5 5 5 7 7 8 4 7 16 12 10 12 13 14 10 12 11 11 9 10 10 10 12 14 15 15 16 18 21
17 11 9 8 11 14 15 11 15 16 14 10 10 7 7 5 5 6 5 5 5 5 12 13 15 12 14 14 15 15 13 12 11 12 13 13 15 17 18 20 21 23 24
23 14 9 8 11 14 14 13 14 16 15 10 10 7 7 6 4 4 6 6 8 9 8 11 9 13 11 9 12 11 5 10 13 14 14 15 16 18 20 23 24 24 23
26 23 11 9 11 15 18 17 18 20 18 15 11 9 6 5 7 5 5 6 7 7 11 10 11 9 9 12 9 10 12 11 14 16 15 16 20 22 23 24 24 22 21
24 24 15 10 12 14 19 20 20 17 14 14 13 9 7 6 7 6 4 5 7 6 9 14 12 13 11 9 14 14 14 13 13 15 16 19 23 22 24 23 22 20 19
25 24 18 18 15 15 19 21 20 19 15 16 15 14 11 8 7 8 5 2 3 6 6 10 11 9 9 13 13 14 13 12 13 17 20 22 25 23 22 20 18 18 16
19 23 22 24 18 18 22 23 20 20 19 17 17 15 12 10 9 7 7 5 4 6 6 6 9 10 12 16 15 15 14 11 13 17 20 22 24 23 20 17 15 14 12

GFSSE_700_spd_066.txt.gz
Wind_Speed
30 27 26 26 25 23 20 17 16 14 12 10 8 6 4 2 1 1 1 1 2 2 2 1 3 3 3 3 5 6 8 8 9 11 12 12 12 13 14 15 15 16 16
27 26 25 24 21 18 15 14 13 10 8 7 5 4 3 3 4 4 4 4 4 3 2 4 4 4 4 5 6 6 7 7 10 10 11 12 12 13 14 14 14 15 15
25 24 22 20 17 17 15 12 9 6 6 6 6 5 5 5 5 4 3 2 2 3 5 5 6 7 7 7 8 7 9 9 10 9 11 12 13 14 14 14 13 13 13
24 22 20 19 15 14 12 9 6 7 8 7 7 6 5 4 3 1 1 1 3 5 7 8 9 9 10 11 11 11 9 9 9 9 12 12 13 13 13 14 13 13 12
23 21 18 17 12 10 11 8 8 7 7 6 6 5 4 3 2 2 3 4 5 6 8 9 11 12 13 14 13 10 9 9 9 10 11 13 12 13 13 13 13 13 13
22 20 18 15 12 11 10 10 7 6 5 6 5 3 2 4 7 8 9 8 6 6 8 9 12 14 16 15 13 12 10 9 9 10 12 13 12 13 13 14 14 13 13
19 18 16 13 12 12 10 9 7 6 5 5 3 2 5 9 10 10 9 8 6 6 8 10 13 15 17 16 13 10 10 9 10 12 12 12 12 13 14 14 14 14 14
16 15 13 13 13 11 9 8 8 6 4 3 3 3 9 11 11 11 10 10 9 10 11 14 16 17 16 14 12 10 9 8 11 12 12 12 12 13 14 15 15 15 14
16 13 12 13 12 10 8 8 8 6 4 4 5 6 11 11 11 13 13 15 16 15 15 18 19 19 16 12 11 9 7 8 11 12 13 12 12 13 13 15 15 16 14
15 13 13 12 11 10 8 8 7 5 4 5 6 9 11 12 12 13 15 17 18 18 17 18 18 15 12 12 10 9 8 9 11 12 12 12 12 12 13 14 15 14 14
17 15 15 12 11 10 8 7 7 4 6 8 8 10 11 13 13 12 14 16 17 19 19 19 17 17 15 12 10 9 9 10 11 12 12 12 13 13 13 12 12 12 12
15 15 16 13 11 10 9 6 6 5 8 8 8 10 11 12 13 13 12 14 15 16 17 16 16 14 15 12 10 10 9 10 11 12 13 13 13 13 12 11 11 10 11
15 15 15 14 11 10 9 6 5 6 8 9 9 9 11 11 13 13 12 13 11 12 14 15 14 11 11 9 9 10 10 10 10 12 12 12 13 13 11 10 10 10 10
15 15 14 14 12 11 10 7 6 6 6 7 10 10 11 10 11 12 10 9 11 13 13 14 11 10 11 11 10 10 10 10 11 12 12 12 12 12 11 10 9 9 10
14 14 13 14 13 11 10 8 6 7 6 6 8 10 8 9 8 8 6 9 8 8 13 13 11 11 13 11 10 8 10 10 11 11 11 11 11 11 10 9 9 9 9
15 14 12 14 14 12 9 9 7 6 5 7 10 11 13 8 8 7 4 5 5 3 6 11 12 12 10 9 9 8 10 9 10 9 8 9 10 9 9 8 8 8 9
13 13 14 14 15 12 10 9 8 7 7 8 8 10 10 7 8 6 4 3 3 4 6 9 9 10 9 9 9 9 9 9 8 8 8 8 8 8 7 7 8 11 13
10 14 18 16 16 14 11 9 8 9 8 10 8 8 8 7 7 6 5 4 5 6 6 5 6 11 8 8 11 10 7 8 8 8 8 7 7 7 7 9 12 14 15
11 14 16 15 15 14 12 11 9 11 8 7 9 7 6 5 5 4 5 7 5 6 8 7 9 10 9 7 10 9 8 8 8 8 8 7 7 10 11 13 14 16 19
15 13 13 13 13 15 13 14 8 13 10 8 6 6 6 4 5 5 7 7 5 4 9 7 8 7 9 8 7 8 7 6 7 8 9 12 13 16 16 16 18 20 21
18 17 14 12 11 14 13 10 10 12 10 8 5 4 5 5 4 3 4 6 6 5 10 8 9 8 8 9 10 8 6 4 5 8 11 15 17 18 19 21 22 22 20
20 18 14 10 9 12 11 10 10 11 12 10 7 5 3 3 3 3 2 4 5 6 8 10 9 8 6 7 8 9 5 4 5 8 12 14 17 21 23 22 22 21 18
24 19 15 9 5 7 11 12 13 16 15 11 8 4 3 3 4 3 3 2 2 5 6 9 9 13 8 8 9 9 8 6 5 8 11 15 19 22 23 23 21 18 17
23 22 13 11 6 7 11 12 13 15 14 10 11 8 5 4 4 5 4 3 3 5 8 8 9 6 7 6 9 11 10 7 7 9 12 17 21 23 23 21 19 17 14
24 22 16 15 11 6 9 11 14 15 15 13 13 10 7 6 5 6 5 4 2 3 5 10 11 8 10 8 15 12 9 7 7 10 13 17 21 21 21 18 16 14 11
23 20 21 18 13 8 10 11 14 15 15 15 13 11 10 8 7 6 4 4 2 3 3 7 9 8 7 13 16 12 9 7 10 12 14 17 20 19 18 16 14 10 7

GFSSE_700_spd_069.txt.gz
Wind_Speed
27 24 26 27 25 23 20 18 15 12 10 8 6 4 2 2 2 1 1 1 2 1 1 2 2 2 3 4 7 9 11 11 12 13 13 14 14 15 16 15 16 16 16
24 25 24 24 23 20 16 13 11 9 6 5 4 2 2 2 2 3 4 4 4 3 2 3 4 5 6 5 7 9 10 10 12 12 12 13 14 15 15 15 15 15 15
24 25 23 22 18 16 14 12 9 6 5 5 4 4 5 5 5 5 4 3 3 3 4 5 7 9 8 9 9 10 10 9 11 11 12 13 15 15 14 14 14 14 14
24 24 21 19 18 15 13 10 7 7 7 7 6 5 4 4 3 2 2 3 4 5 6 7 9 11 11 12 11 10 9 9 10 11 13 14 15 15 14 14 14 14 14
23 21 19 17 16 12 9 7 9 9 7 6 6 5 4 4 3 3 3 4 6 6 8 9 11 13 15 12 11 10 10 10 10 12 13 14 14 15 14 14 13 14 14
22 20 17 14 14 12 9 9 9 7 6 6 5 5 5 5 6 6 6 6 6 6 9 11 13 17 17 13 10 10 11 11 11 13 14 14 14 15 14 14 14 14 14
20 18 15 13 13 12 10 8 8 7 6 5 5 5 6 7 8 8 7 7 6 8 9 12 16 18 16 12 10 10 11 10 12 14 14 14 15 14 14 14 15 15 15
18 16 13 13 13 11 9 8 8 8 6 5 5 6 9 8 9 9 9 9 10 11 13 15 17 16 14 10 9 9 9 9 12 14 14 13 15 14 15 15 15 15 15
17 15 14 14 13 10 9 8 8 7 7 7 7 9 9 9 11 12 13 16 16 16 18 18 17 15 12 10 9 8 7 9 12 13 14 14 13 14 14 15 15 16 15
17 15 15 13 11 11 9 8 8 7 8 7 8 10 9 10 11 13 15 19 17 18 19 20 17 16 13 11 10 7 7 9 11 12 13 13 13 13 14 14 14 15 15
17 15 16 12 11 11 10 9 8 8 9 10 9 10 9 10 11 13 15 17 17 17 18 16 15 14 13 9 8 8 8 9 10 12 13 12 13 12 12 12 12 13 13
16 16 15 13 12 11 10 10 9 8 10 11 10 10 9 9 11 13 14 15 16 17 16 14 14 15 12 11 8 8 9 10 10 11 13 12 12 11 11 10 10 11 10
16 15 15 14 12 12 10 10 10 10 10 11 10 10 10 9 11 12 13 13 14 15 14 13 10 7 9 10 10 9 9 10 10 11 12 11 11 11 10 10 10 9 9
15 15 15 14 13 11 11 10 11 9 9 9 10 11 10 10 12 12 11 10 9 13 12 10 9 11 10 10 9 9 10 10 11 11 11 10 11 10 9 9 9 8 9
14 14 15 14 13 11 11 10 10 8 8 9 10 10 8 9 8 9 11 12 13 12 11 9 10 8 9 9 8 9 9 11 11 11 11 10 9 9 9 8 7 7 8
14 13 14 15 14 12 11 10 10 9 8 9 8 9 9 7 7 8 9 9 9 10 9 8 10 9 9 8 8 9 8 9 8 9 9 9 8 7 7 7 6 7 9
14 14 14 15 15 13 11 10 10 9 9 10 9 11 6 5 5 5 4 6 6 9 10 9 9 7 7 8 9 9 7 7 7 7 7 7 6 6 6 7 8 10 12
16 15 15 16 16 14 12 10 9 9 9 10 7 8 8 5 6 4 3 4 4 7 10 8 6 7 6 7 8 7 6 6 7 6 6 5 5 7 8 10 11 14 16
15 17 17 17 16 15 13 11 10 10 9 6 6 6 6 5 6 5 5 4 3 3 6 6 8 9 6 7 8 7 5 5 5 5 4 5 7 11 12 13 15 17 19
15 20 20 18 17 16 14 12 11 10 8 7 5 4 5 5 5 6 7 5 3 1 6 7 8 7 5 6 5 5 4 4 4 3 5 10 13 14 16 17 20 20 17
20 20 20 17 15 17 12 12 7 11 8 6 6 4 4 5 6 6 7 6 4 1 5 8 9 6 5 4 6 5 3 3 3 5 9 12 16 19 21 22 21 18 15
19 19 18 16 13 14 13 10 10 13 9 8 6 5 4 3 3 4 5 5 6 4 5 5 10 8 5 6 7 6 4 4 4 7 9 13 17 20 21 21 18 15 13
23 23 20 16 14 15 13 12 11 13 11 7 6 5 4 3 3 3 4 4 7 8 7 7 9 9 6 7 7 7 6 6 6 9 11 14 19 21 21 18 15 13 10
25 23 21 18 15 13 12 11 10 9 8 7 7 5 4 3 2 2 3 4 5 7 8 8 10 10 8 9 8 8 9 8 7 9 13 16 19 20 18 16 14 10 7
27 25 21 20 17 14 11 11 12 13 12 13 9 6 5 3 3 2 3 4 3 4 6 8 11 10 9 8 11 11 9 9 8 10 14 16 19 18 16 13 11 7 5
29 27 25 22 19 15 12 10 13 15 13 14 10 8 8 4 3 3 3 3 2 3 5 9 11 9 10 11 14 12 10 9 10 11 14 16 17 17 15 12 9 5 3

GFSSE_700_spd_072.txt.gz
Wind_Speed
25 24 24 22 21 18 17 16 14 11 8 6 5 3 2 1 1 1 0 2 2 3 2 3 3 4 7 8 9 11 12 14 14 14 14 15 16 17 16 16 16 16 16
24 25 25 24 22 19 16 13 10 8 6 4 3 2 2 1 1 3 3 4 3 4 5 6 7 7 8 9 9 11 13 13 13 14 14 15 16 16 15 15 16 15 15
25 25 23 22 20 16 13 11 8 5 4 3 3 2 3 4 4 4 3 3 4 4 6 8 10 10 10 10 11 11 11 13 14 14 14 15 16 16 15 15 15 14 14
23 23 20 18 15 14 11 7 6 6 5 5 5 4 4 3 3 3 3 4 5 7 8 10 12 12 13 13 10 10 11 13 13 13 15 15 16 16 15 14 14 13 14
23 21 17 16 15 13 9 7 7 7 6 5 5 5 4 4 4 5 5 6 7 9 10 12 14 15 16 11 10 11 12 13 13 14 14 16 16 15 15 14 13 14 14
21 19 16 15 13 11 8 8 7 6 5 4 5 6 6 7 7 8 8 8 9 10 11 15 19 15 16 11 12 12 11 12 14 15 15 16 15 15 15 15 14 15 14
21 18 15 14 13 12 11 8 7 6 6 5 6 8 9 9 8 8 8 9 10 11 13 17 17 16 11 11 12 11 11 12 14 16 15 14 14 15 15 15 15 15 14
19 16 14 14 15 12 10 9 8 7 6 5 7 9 10 9 9 8 8 10 12 13 15 16 15 13 11 10 10 11 10 11 13 15 14 14 15 15 16 15 15 15 14
19 15 13 14 14 12 10 10 9 7 7 7 10 10 11 11 12 12 14 16 17 17 17 17 14 12 11 11 10 10 9 9 12 14 12 13 15 15 15 15 14 15 15
19 15 14 12 12 12 11 10 9 8 8 9 12 11 12 13 14 15 16 18 20 18 18 16 13 11 12 11 11 10 9 8 11 11 13 12 13 14 14 13 13 14 14
19 16 15 11 12 12 11 10 9 10 9 10 12 11 11 13 15 15 16 17 18 18 15 14 13 11 11 11 10 9 8 9 10 11 12 11 12 12 11 11 11 12 12
18 18 16 12 12 12 11 10 11 10 10 10 11 11 10 12 13 15 15 17 18 16 15 14 13 11 11 11 10 10 10 9 9 9 10 10 11 10 9 9 10 10 10
17 17 15 14 13 13 12 11 12 11 12 11 11 10 11 12 12 15 14 16 14 13 13 11 8 10 10 11 12 11 10 10 10 9 9 9 9 9 8 9 10 10 10
17 16 15 14 14 13 12 13 12 11 11 12 11 11 10 12 12 11 12 14 14 11 11 9 10 9 8 10 11 12 10 11 11 11 10 9 9 8 8 8 9 9 10
16 16 15 14 14 13 12 13 12 10 10 12 12 10 12 11 9 10 11 13 11 10 8 7 7 8 7 9 10 10 10 10 10 11 10 9 8 8 8 8 8 9 12
15 16 14 14 14 13 13 12 12 10 8 9 8 8 10 10 11 12 10 10 11 11 7 7 7 7 6 8 9 9 8 8 7 8 9 9 8 7 7 8 9 13 16
14 14 15 14 14 13 12 13 12 11 10 8 7 7 7 8 8 10 9 8 9 9 8 7 6 6 6 8 9 8 7 6 6 6 7 7 7 6 8 10 14 17 19
14 14 15 16 15 14 12 12 12 12 13 8 7 5 4 5 5 6 8 9 10 9 9 7 6 5 6 7 7 6 7 6 5 5 6 6 6 9 11 13 16 18 18
14 15 15 17 16 15 13 11 12 12 13 8 7 5 3 3 3 5 6 8 9 9 8 6 6 8 7 7 5 5 5 5 4 4 4 5 8 11 14 17 18 18 16
17 18 18 19 18 16 14 11 12 12 10 7 6 4 4 4 3 4 6 7 9 8 7 7 8 8 7 7 6 4 5 4 4 4 4 7 10 14 17 19 18 15 13
18 19 22 20 19 16 13 11 12 11 10 7 4 4 3 4 5 3 6 5 7 8 9 9 7 6 4 4 6 3 3 4 5 6 7 10 14 17 18 18 15 12 11
16 20 23 21 19 17 14 14 11 13 10 8 4 4 4 3 4 3 5 3 4 6 8 7 9 6 6 6 5 7 3 10 4 6 10 13 16 19 18 16 13 11 10
20 22 21 19 18 18 16 14 12 14 9 7 5 4 4 3 3 3 3 3 4 4 6 8 10 10 3 7 5 10 6 3 7 6 12 16 18 18 16 13 11 9 9
23 23 22 19 18 19 16 13 11 12 10 9 7 3 3 2 3 3 3 4 5 5 5 8 10 9 9 6 7 7 9 8 13 3 11 16 17 16 14 12 9 8 8
23 25 24 22 20 17 15 14 13 13 13 12 8 6 2 1 2 3 3 3 5 7 8 9 10 11 12 8 7 6 8 9 8 15 6 13 14 14 12 10 7 5 6
24 26 27 24 21 18 16 13 13 14 14 12 7 7 5 3 1 2 3 2 2 4 7 9 13 12 13 10 10 11 7 11 6 7 6 12 12 14 11 9 6 2 3

GFSSE_700_spd_075.txt.gz
Wind_Speed
26 25 22 21 17 18 19 17 12 10 7 5 4 4 4 3 3 2 2 4 4 4 4 5 6 8 9 10 12 14 17 17 17 16 17 18 19 18 16 17 16 16 16
25 23 22 19 17 17 16 12 9 7 5 4 4 4 4 3 3 3 4 5 5 6 7 8 8 9 10 11 13 14 16 17 16 16 17 18 18 17 16 16 15 14 14
24 22 21 20 18 15 12 9 6 4 3 4 5 5 5 5 5 5 5 5 6 6 9 10 11 11 11 13 13 15 15 15 16 15 17 16 16 16 16 15 13 13 13
23 23 20 18 15 12 9 7 6 6 5 5 5 5 4 3 3 3 5 7 8 9 11 13 13 13 14 15 10 12 13 15 13 23 12 16 16 15 14 14 13 12 12
21 21 17 14 13 10 7 7 7 7 5 5 4 4 4 4 4 6 7 9 10 11 13 17 16 17 14 10 9 11 12 13 14 15 15 16 16 15 14 14 12 12 13
18 16 14 13 11 8 8 8 7 5 5 5 5 7 8 9 9 8 9 10 11 13 17 18 15 16 9 10 11 12 12 12 16 15 15 17 15 15 15 14 13 14 14
15 16 14 12 10 9 8 7 6 6 6 6 8 10 10 9 8 9 10 11 13 14 18 17 16 14 11 11 12 12 11 15 13 14 14 15 16 16 16 14 14 14 15
12 15 12 11 11 10 8 7 6 5 6 7 11 11 11 9 8 8 11 12 14 15 18 16 14 12 11 12 12 12 10 12 14 13 13 15 16 16 15 14 14 14 14
10 11 12 12 11 9 9 7 6 7 8 10 12 12 11 11 12 13 14 14 16 16 15 14 12 10 11 11 12 11 10 10 15 10 12 13 14 14 14 14 14 14 14
12 11 11 11 11 10 9 8 7 8 10 12 13 12 13 13 14 17 17 18 16 16 15 12 11 11 11 12 11 10 9 10 7 12 10 11 13 13 13 12 13 13 13
18 12 12 9 11 11 9 7 8 9 11 12 13 11 19 11 16 17 18 18 17 17 14 11 11 12 12 12 11 9 10 15 8 7 9 9 11 11 11 11 11 12 11
15 13 12 8 7 11 8 8 11 14 9 11 13 12 15 7 15 16 16 16 14 14 13 12 10 13 17 12 10 7 13 11 6 8 8 9 10 10 10 10 11 10 10
15 12 10 14 10 7 7 9 10 8 11 14 13 12 14 13 14 15 15 15 14 12 13 12 8 15 20 8 7 9 12 14 4 9 9 9 9 10 10 10 11 11 12
17 16 13 15 15 11 10 9 12 7 10 14 12 12 10 12 13 12 8 12 9 11 10 7 6 9 10 12 10 12 12 8 2 9 10 10 10 10 10 11 11 12 13
17 15 12 14 14 12 12 11 6 12 4 13 12 15 13 7 8 9 15 8 11 4 9 6 12 6 10 8 9 10 10 9 10 8 10 10 10 9 10 11 12 15 17
16 16 13 13 13 11 10 14 15 14 10 8 9 9 13 5 10 9 12 6 7 12 9 9 9 10 5 8 8 11 8 8 8 9 10 9 9 9 11 13 16 19 20
15 15 13 13 13 12 10 11 10 11 10 7 7 8 9 6 7 8 5 5 9 6 5 8 4 8 5 6 8 9 6 6 7 6 8 8 9 11 13 16 18 19 19
16 15 14 13 13 11 11 11 10 13 13 6 5 5 6 8 6 8 5 5 10 6 2 12 4 9 3 7 9 7 7 7 8 5 7 7 12 14 15 17 17 18 16
15 14 14 15 15 13 11 12 14 12 9 5 7 1 2 6 5 7 5 8 11 8 8 4 8 6 5 11 10 7 9 9 14 4 6 10 11 14 17 17 17 15 16
16 15 15 16 16 15 13 12 12 14 9 9 6 6 2 2 4 5 8 5 8 3 11 7 9 5 12 4 13 3 5 2 5 4 7 10 10 15 16 14 15 15 14
16 16 17 18 18 16 14 12 13 11 10 7 4 3 2 4 3 5 7 5 11 11 10 9 12 9 5 11 9 7 7 9 8 6 5 8 9 16 14 14 13 13 13
16 16 19 19 19 18 16 13 14 6 3 9 3 4 3 3 3 3 5 5 10 6 9 9 12 10 1 11 11 7 0 10 4 4 7 11 15 15 14 11 12 12 13
20 15 20 21 20 19 19 15 13 17 14 4 7 4 3 3 2 1 4 5 7 7 4 10 11 14 7 8 15 17 10 7 3 4 9 12 14 14 12 10 10 11 13
20 15 21 22 21 21 18 17 12 14 8 6 6 4 2 3 3 2 2 3 6 10 10 7 13 14 9 1 8 9 17 17 17 5 7 12 13 11 9 9 8 9 12
19 19 22 22 22 22 19 16 15 14 10 7 9 8 2 2 3 2 2 2 3 4 10 7 12 12 16 12 4 4 6 19 16 13 3 8 10 9 8 6 5 6 10
20 20 24 23 22 22 19 17 14 16 17 12 14 7 6 2 2 3 3 0 2 9 7 7 9 11 15 16 14 12 9 11 13 6 6 8 5 8 7 5 3 2 7

GFSSE_700_spd_078.txt.gz
Wind_Speed
26 24 21 18 17 16 17 13 11 9 7 6 6 6 6 6 6 6 7 7 7 6 6 6 9 11 13 15 16 16 19 19 18 17 17 17 18 17 17 18 16 16 18
26 23 20 17 18 18 15 10 8 7 6 5 6 6 6 7 7 7 7 7 8 8 9 9 10 11 14 15 15 16 17 18 17 18 16 16 17 16 16 16 14 16 17
23 21 17 17 18 15 12 8 6 6 6 6 6 7 7 7 8 7 8 9 9 10 11 12 12 13 14 16 15 17 18 18 14 17 16 15 15 15 15 14 15 16 17
21 19 18 16 14 12 9 7 6 7 7 7 7 7 6 6 6 8 9 10 12 13 14 15 15 16 14 15 14 14 16 18 17 17 16 14 14 14 13 14 14 15 16
21 21 17 14 12 9 8 9 8 7 8 8 7 7 6 6 7 9 10 11 13 14 17 19 17 15 14 12 11 12 14 14 17 14 16 14 12 14 13 14 14 15 14
22 18 12 12 10 8 9 8 8 8 8 8 9 10 11 10 8 9 11 13 13 16 19 19 14 13 12 10 11 14 12 12 16 15 14 15 14 16 15 16 15 14 13
19 15 12 10 8 8 9 8 9 8 8 10 10 10 9 9 10 11 12 14 15 17 15 13 15 12 13 11 13 13 10 13 17 15 15 14 15 16 16 15 15 14 15
13 14 12 9 9 8 8 8 9 8 10 12 12 11 10 8 10 11 13 15 16 17 17 18 12 12 12 12 12 13 9 15 14 14 15 14 16 15 15 15 15 15 15
11 11 11 10 9 8 8 9 9 10 12 13 14 14 14 12 12 13 14 15 16 16 15 13 11 11 11 12 13 13 13 14 12 14 13 14 15 15 15 15 15 15 15
5 7 11 10 9 8 8 9 9 11 13 14 15 16 16 15 15 17 16 17 16 15 14 12 12 12 12 13 13 13 12 12 11 13 13 13 14 14 14 14 14 14 14
17 7 9 10 9 9 8 9 10 13 14 15 13 17 17 17 16 19 18 17 16 14 12 12 13 12 15 14 13 10 16 10 15 13 11 11 12 13 13 13 14 14 13
19 12 5 7 8 8 8 9 12 12 11 15 14 18 20 19 16 16 18 17 16 14 13 12 13 14 13 14 13 14 16 9 13 11 10 11 12 13 13 13 13 13 12
15 13 11 12 11 7 8 9 9 12 11 15 12 12 16 16 17 13 13 16 15 14 12 11 13 9 14 12 11 18 16 11 10 10 11 12 12 12 13 13 12 12 14
15 9 9 9 9 9 12 6 3 13 12 13 13 15 12 15 9 16 11 11 12 10 4 15 15 14 12 9 14 12 9 5 10 10 11 12 12 12 12 13 13 16 19
11 9 10 17 9 12 7 6 8 11 11 14 10 13 12 9 5 10 13 11 11 9 7 8 14 15 9 11 11 13 13 6 13 11 11 12 12 12 13 14 17 19 21
19 14 9 10 12 10 11 14 14 9 13 9 12 13 12 10 11 8 7 8 10 9 7 9 15 9 11 9 12 10 9 8 8 10 9 11 12 13 15 17 19 21 21
18 18 12 13 11 8 11 13 13 13 11 4 7 1 13 8 7 6 9 9 4 8 5 11 13 10 7 11 8 9 10 10 7 5 8 12 13 16 18 18 19 21 21
20 20 9 12 12 11 10 12 12 12 10 11 11 6 7 5 9 3 9 6 7 8 4 10 7 7 10 10 14 13 12 13 7 14 12 14 15 18 19 19 19 20 20
15 16 14 14 13 12 12 10 15 13 9 10 10 12 8 6 2 3 5 3 7 8 10 8 13 9 13 9 13 11 12 13 10 17 9 14 15 18 17 18 19 19 19
15 15 15 18 13 13 12 12 13 11 4 6 3 6 8 10 7 3 7 4 7 7 8 5 9 10 9 11 11 14 12 8 9 10 14 17 10 16 18 15 17 18 18
17 16 15 15 14 14 13 11 11 9 7 8 7 5 2 7 8 7 7 6 9 2 4 10 12 8 5 10 9 6 19 15 15 12 10 6 9 16 14 14 16 17 17
15 13 16 15 15 15 15 14 6 11 12 6 7 3 5 5 7 7 8 7 4 4 8 8 16 11 15 14 11 8 9 13 11 2 10 8 14 14 14 13 15 15 15
24 13 15 15 16 17 18 17 20 16 8 5 8 5 2 4 5 5 5 7 9 5 10 12 13 7 10 12 14 10 11 11 3 4 8 12 11 13 12 13 12 15 15
24 16 15 19 19 20 19 17 16 13 9 8 10 4 6 3 4 5 5 6 6 10 7 8 10 10 10 17 11 10 14 10 6 6 7 7 10 11 8 9 11 14 15
22 22 13 21 22 22 20 19 18 18 15 12 9 10 7 5 3 5 7 7 5 6 11 7 15 15 19 13 12 11 14 17 16 6 5 4 8 8 5 5 7 11 13
23 18 15 21 23 23 22 19 17 20 13 12 9 9 7 5 3 4 6 9 6 8 5 7 8 15 18 18 18 17 22 20 18 13 2 3 2 4 5 3 2 6 9

GFSSE_700_spd_081.txt.gz
Wind_Speed
24 21 18 16 16 16 14 12 11 8 7 7 7 7 7 7 9 9 10 10 11 10 11 13 15 17 18 19 18 18 19 19 18 17 17 18 18 18 19 20 18 18 18
23 20 17 16 15 14 11 10 7 6 5 6 6 7 8 9 10 10 11 11 12 12 12 14 16 17 17 18 18 17 18 17 17 17 17 17 16 16 18 18 17 17 18
22 20 18 18 16 12 9 7 5 5 7 8 8 9 9 11 11 11 10 11 13 14 15 16 17 17 18 18 18 18 16 16 16 17 17 15 14 16 17 16 16 17 18
19 17 17 16 13 10 8 6 6 7 7 7 7 7 8 9 10 11 11 13 15 17 18 17 17 17 17 18 17 17 16 15 15 15 16 14 14 16 15 15 16 17 16
20 19 16 13 11 8 8 9 8 7 7 7 8 8 9 10 11 12 13 14 17 19 20 18 16 16 17 17 15 15 13 16 16 16 15 14 14 17 15 15 15 16 15
21 18 14 12 9 9 9 8 8 8 9 11 12 12 11 10 12 13 14 16 19 19 19 16 16 16 15 15 15 14 15 14 17 17 15 17 16 17 16 16 16 16 16
19 15 12 10 9 9 9 8 9 10 11 11 12 11 11 12 13 15 16 17 19 17 16 15 14 14 15 15 15 16 16 17 16 16 16 16 16 17 16 17 17 16 16
13 13 10 8 10 10 9 8 10 12 12 11 12 11 11 13 14 16 17 18 18 18 17 14 13 14 16 14 15 14 16 18 16 17 16 15 17 17 17 18 17 16 16
13 10 8 9 10 10 9 9 11 14 14 14 15 15 15 15 16 16 18 19 19 18 13 13 13 14 14 14 15 14 18 18 17 18 16 16 17 17 17 17 17 16 15
12 11 10 9 9 10 10 10 13 15 14 16 17 18 20 19 18 19 19 19 18 16 14 13 14 15 15 14 13 15 18 18 17 17 16 15 16 15 15 16 16 15 14
14 14 11 8 9 9 11 11 13 14 15 18 16 18 22 22 20 20 20 19 18 16 15 15 15 16 16 15 15 22 20 16 18 16 14 14 15 15 15 15 14 15 15
14 21 14 11 10 8 10 12 15 12 14 18 16 19 21 24 21 21 19 17 16 15 14 12 11 13 18 19 16 17 17 18 18 15 14 14 14 15 14 15 15 15 17
12 15 9 4 9 5 11 9 16 10 14 14 16 19 20 22 19 18 17 19 18 14 13 11 14 10 21 22 20 17 15 18 13 13 13 14 14 14 14 15 17 20 23
8 6 8 6 6 5 13 11 14 15 13 16 16 16 19 17 14 13 16 16 13 17 12 9 11 16 18 15 14 12 12 11 11 11 12 13 13 14 16 19 22 23 25
4 6 5 7 5 5 14 11 15 16 15 13 14 10 12 8 14 12 14 13 13 16 14 10 14 16 13 14 13 9 12 10 11 11 12 13 15 17 21 23 23 24 25
12 9 9 12 6 4 12 12 11 13 14 11 10 9 11 13 17 11 8 14 12 13 14 14 16 16 11 14 11 6 12 12 10 9 11 15 18 22 22 23 23 24 23
12 11 7 10 9 6 11 13 12 14 14 14 13 10 9 10 11 11 10 12 11 12 11 11 16 16 15 13 13 16 12 14 11 7 12 16 20 22 22 22 22 22 22
15 14 12 12 10 10 9 11 10 15 10 14 14 11 11 10 7 8 4 12 11 12 12 10 10 14 17 16 15 12 15 16 15 15 14 18 20 21 21 21 21 22 20
15 12 13 15 13 10 12 8 11 10 10 11 10 9 9 9 6 7 8 11 9 14 10 12 12 17 16 16 14 15 14 18 18 19 20 17 19 20 20 19 20 20 22
13 13 10 17 16 13 11 10 12 8 6 10 11 7 7 8 8 7 7 14 9 10 10 9 11 13 15 18 21 16 17 15 19 17 18 19 20 18 19 20 19 20 22
14 13 14 9 16 15 12 10 13 12 8 6 10 10 8 7 6 9 7 10 10 16 10 13 12 14 17 9 16 19 18 16 13 15 18 18 17 16 19 18 18 19 19
11 13 16 9 13 15 13 13 17 13 10 10 8 9 10 7 6 7 7 10 5 9 9 10 12 12 12 14 14 13 15 13 10 10 14 17 16 18 18 18 18 19 17
15 14 16 11 13 15 15 15 15 11 9 5 3 7 9 9 8 6 4 5 10 5 14 15 11 13 12 12 9 12 10 9 10 7 9 12 14 14 14 16 18 19 17
19 19 15 13 14 17 18 17 14 11 11 11 11 9 8 8 8 8 7 8 7 7 12 15 12 13 15 17 17 13 11 7 12 12 11 13 11 12 12 11 14 17 16
17 19 16 14 17 19 19 18 15 17 14 10 7 8 7 7 7 9 8 9 12 15 5 8 13 15 17 19 17 22 16 12 10 13 8 8 8 9 11 9 11 13 15
25 23 21 17 19 23 23 20 16 16 11 10 9 8 7 8 7 9 6 7 8 7 10 10 13 12 20 17 20 22 19 16 10 12 10 6 6 5 5 5 6 8 11

GFSSE_700_spd_084.txt.gz
Wind_Speed
26 22 20 19 17 14 13 12 11 10 9 8 9 9 10 11 11 11 9 9 10 11 13 15 16 17 17 17 17 18 20 19 17 17 17 17 17 17 18 18 18 19 19
22 20 18 18 16 13 11 10 8 7 7 7 8 10 10 11 12 11 12 12 13 14 14 16 16 16 17 16 16 16 16 16 17 17 16 16 16 17 18 17 18 19 18
18 17 16 15 13 10 8 7 7 7 8 8 9 10 12 11 11 12 13 14 16 17 17 16 16 16 16 15 15 15 15 15 14 16 16 15 15 16 17 17 18 19 18
19 19 18 15 11 8 6 6 7 7 7 6 7 9 11 11 12 13 15 18 18 18 17 17 15 16 15 15 16 15 14 14 15 15 15 14 15 15 15 16 17 17 15
17 19 16 13 9 6 7 7 7 6 6 8 9 10 11 12 13 15 16 19 20 19 17 16 16 16 16 14 15 17 16 16 16 16 15 15 14 15 15 15 16 16 16
17 16 14 11 8 9 8 7 7 8 10 11 11 12 14 14 15 16 18 21 20 19 17 16 17 17 17 17 16 17 17 18 19 18 16 16 15 16 17 16 16 15 16
16 14 11 9 10 9 8 6 8 10 11 12 13 13 15 16 17 18 20 21 20 16 17 16 17 17 17 17 16 17 19 20 19 18 17 16 16 17 17 16 16 15 15
12 12 9 9 9 9 7 7 10 11 12 12 14 16 17 19 19 20 20 18 17 16 15 16 15 16 16 16 15 16 21 20 19 18 17 16 16 16 16 16 17 15 15
13 10 9 9 9 8 7 9 11 12 15 15 16 18 20 20 20 22 21 21 18 14 13 14 15 16 17 18 17 16 20 19 18 17 16 16 16 16 16 15 15 15 14
14 11 9 8 8 7 9 11 12 14 17 17 18 21 20 21 21 21 20 18 15 13 12 12 13 15 17 16 20 18 17 17 17 16 15 14 16 15 15 15 15 15 16
16 14 11 8 9 8 11 13 12 14 17 19 19 21 22 22 21 20 19 16 14 13 12 12 13 14 19 24 19 17 17 17 17 16 15 14 15 15 16 16 16 17 20
16 15 12 8 9 8 11 14 14 12 16 18 22 20 22 22 22 20 17 15 13 13 12 13 12 15 20 19 19 17 17 18 16 15 15 15 16 16 16 17 20 23 24
17 15 13 7 7 7 10 12 13 14 14 19 20 21 21 21 22 21 18 17 15 14 10 13 12 14 17 18 18 17 18 18 15 15 15 15 15 17 20 23 25 25 25
16 13 9 7 5 4 8 13 11 12 13 16 17 20 19 17 18 18 16 13 15 12 9 10 15 12 12 14 14 15 18 16 14 14 14 15 18 22 25 25 25 25 24
6 10 6 8 4 2 12 11 13 13 16 16 17 12 12 17 15 14 15 14 13 13 11 10 14 15 14 16 13 14 15 13 13 15 15 18 22 24 24 24 24 24 22
5 2 5 6 5 5 11 13 13 15 18 16 11 9 11 13 16 13 12 13 12 15 12 15 14 13 11 13 15 14 11 10 11 15 17 21 22 23 23 23 23 22 21
3 2 6 6 6 7 13 13 13 14 15 15 14 13 14 11 11 12 13 14 15 14 14 14 16 15 14 11 15 18 14 10 14 17 20 21 21 21 22 21 22 21 22
3 2 6 7 8 9 9 10 10 11 11 11 10 13 13 12 10 13 11 11 11 14 14 12 13 16 18 16 13 15 18 20 19 18 19 20 20 20 20 20 21 22 23
6 8 10 11 11 10 7 10 9 4 11 10 9 7 7 9 7 6 12 13 13 12 11 13 17 18 14 13 14 16 20 23 22 19 19 19 19 19 19 19 22 22 22
9 9 7 12 13 10 11 10 11 9 11 7 7 7 8 8 9 8 7 14 9 10 14 15 14 14 11 17 17 15 18 22 23 21 19 18 19 19 19 21 20 20 20
10 7 9 10 13 12 10 9 13 10 9 10 7 7 9 8 7 6 13 15 13 12 12 16 15 15 15 20 19 19 17 19 23 22 20 19 18 18 19 21 19 17 16
13 8 8 5 13 12 11 11 13 12 10 10 8 7 8 9 9 8 8 12 17 10 10 13 13 12 8 14 17 15 15 17 21 21 20 18 18 18 19 20 19 17 18
15 11 11 8 9 13 13 12 14 10 12 9 8 7 9 10 9 9 8 11 9 11 12 14 12 11 14 12 8 16 11 12 18 19 19 18 18 17 17 18 19 17 17
16 14 10 9 11 15 15 13 13 13 12 10 9 9 8 8 7 8 9 9 11 10 15 16 13 13 13 11 14 13 12 13 14 16 18 17 16 15 16 16 16 15 15
18 13 13 11 13 14 16 14 12 13 11 7 9 8 8 9 8 8 9 8 9 10 12 19 13 16 14 15 14 15 12 13 14 13 13 12 11 10 12 11 11 12 13
17 16 13 15 10 16 17 16 13 13 9 11 10 10 8 9 8 8 8 10 12 12 10 15 13 14 18 20 16 14 12 10 14 15 15 12 9 8 9 9 8 8 9

GFSSE_700_spd_087.txt.gz
Wind_Speed
22 20 19 16 15 13 12 11 11 10 9 8 8 8 9 8 8 7 8 9 11 13 13 14 15 15 15 16 17 18 19 16 14 14 14 14 15 15 16 16 15 15 15
18 19 18 15 13 11 10 9 8 8 7 7 7 8 8 9 8 9 10 11 12 14 14 14 15 15 15 15 15 16 16 15 15 14 13 13 15 15 15 16 14 15 15
17 16 17 14 10 8 7 7 7 8 8 8 9 9 10 10 10 11 13 13 13 15 16 15 15 16 16 14 15 13 15 14 13 13 13 12 14 16 15 15 15 15 15
14 15 15 11 8 6 6 7 7 7 7 8 9 10 11 11 12 13 14 15 15 16 15 15 15 15 17 16 14 13 14 14 13 13 12 12 13 15 14 14 14 15 15
16 15 12 9 7 6 7 7 6 6 6 8 9 11 13 13 14 15 16 17 17 16 15 15 15 15 15 15 15 16 14 15 14 14 13 13 13 14 13 14 13 15 15
15 12 9 7 6 6 5 5 5 8 10 11 11 12 13 15 15 17 19 19 17 16 15 16 16 15 16 16 16 17 17 17 16 15 14 13 13 14 14 14 14 14 16
13 9 7 6 6 5 5 6 7 7 9 12 14 15 15 16 18 19 19 18 17 17 15 16 17 16 16 18 17 18 19 18 17 16 15 14 14 15 14 14 15 14 15
11 8 6 6 6 5 6 9 9 7 8 12 15 18 17 17 19 20 19 16 17 15 16 15 17 15 17 17 17 19 19 18 18 17 15 14 15 16 15 15 15 14 14
12 8 7 5 5 6 8 10 10 9 11 15 17 19 19 19 21 19 17 16 14 14 14 15 15 16 17 16 16 17 18 18 17 16 15 14 15 15 15 14 14 15 15
13 10 7 5 5 7 10 11 12 12 14 18 19 20 20 22 20 19 17 14 14 13 13 14 16 16 17 16 15 15 16 16 16 16 15 14 15 14 15 16 16 18 20
14 12 8 6 6 7 11 11 10 14 17 18 20 20 20 21 19 16 13 12 13 13 12 14 14 17 16 14 14 14 15 15 16 16 15 15 15 15 16 17 20 23 23
13 12 9 6 7 8 10 11 10 12 16 20 18 20 20 20 18 16 13 12 14 12 12 14 16 20 16 13 14 14 16 16 17 16 15 15 16 17 19 22 24 23 22
12 10 9 7 8 9 10 10 11 12 16 19 18 19 19 18 16 14 14 13 13 12 11 16 17 17 15 12 13 14 17 17 17 16 15 17 20 22 24 24 23 22 20
12 10 9 9 8 6 10 9 8 12 15 17 19 20 18 16 15 14 11 9 10 10 10 12 15 12 14 12 12 14 17 17 16 16 18 22 24 24 24 23 22 20 18
7 6 8 10 8 5 9 7 10 12 15 17 15 15 17 16 14 11 10 10 7 11 11 9 10 13 15 12 11 14 15 16 17 19 22 24 24 22 22 21 20 18 18
5 4 6 6 9 7 9 9 9 15 16 15 9 10 14 12 13 9 9 8 7 11 11 12 11 11 12 10 10 13 15 16 18 21 22 22 21 20 19 19 18 19 18
4 4 4 4 6 6 9 12 9 12 15 13 13 9 12 13 11 9 9 7 10 13 12 12 12 13 15 13 12 15 16 18 20 21 21 20 19 18 18 18 19 19 19
5 6 1 2 5 10 9 13 11 9 12 12 11 10 13 12 10 11 12 10 11 14 12 10 11 12 15 12 12 17 19 19 20 20 19 18 17 17 16 19 20 19 18
4 3 2 4 4 7 9 9 13 7 8 10 11 9 9 8 8 8 9 9 9 10 12 13 13 10 10 11 12 15 19 19 20 19 18 18 16 15 18 19 19 17 16
3 4 2 1 6 7 12 10 11 8 9 7 7 9 7 5 7 8 11 8 8 11 16 14 11 10 11 9 12 16 18 18 19 19 18 17 16 17 18 18 16 13 13
4 3 4 4 7 7 6 5 9 10 9 7 6 5 8 6 6 7 11 12 10 12 13 12 9 8 13 12 13 15 17 18 18 18 17 17 16 18 18 16 13 13 15
7 4 4 2 4 8 8 9 11 7 8 7 5 5 7 8 7 7 10 7 9 10 10 11 12 9 8 14 14 15 15 17 17 17 16 15 16 17 17 15 14 14 14
6 6 5 2 3 8 11 10 10 8 8 6 5 5 7 7 8 8 9 10 13 6 11 13 13 9 9 9 12 15 15 18 17 17 16 15 15 17 16 16 14 13 12
9 10 4 3 6 9 10 9 10 9 10 7 6 5 6 6 6 10 10 13 11 12 11 13 12 11 13 7 8 13 14 17 18 16 14 13 12 15 14 13 12 11 10
17 9 8 8 8 12 10 10 9 12 10 10 8 5 7 7 6 8 10 10 10 9 12 14 13 13 14 10 9 11 13 16 18 16 14 14 13 13 13 11 9 8 7
19 13 10 11 10 11 9 11 11 9 10 10 10 9 6 6 6 7 9 10 10 10 12 14 12 11 13 14 12 12 11 12 17 17 16 15 13 10 9 9 8 6 4

GFSSE_700_spd_090.txt.gz
Wind_Speed
18 18 17 15 12 12 11 10 10 9 8 8 8 7 7 7 8 10 10 11 12 13 14 15 15 16 16 15 16 17 17 16 14 14 14 14 15 15 14 14 13 13 14
15 17 16 13 11 9 8 8 7 7 7 7 6 6 7 8 9 9 10 11 12 14 15 17 17 17 17 16 15 16 16 15 15 14 13 13 14 14 14 14 13 13 14
13 13 12 12 9 7 6 7 7 6 7 7 7 8 8 9 9 10 11 12 13 14 16 18 18 17 16 16 15 14 14 14 14 14 13 13 14 14 14 14 13 14 14
12 11 10 8 6 6 6 6 6 5 7 8 9 9 9 10 10 12 14 14 14 14 16 17 19 17 16 15 15 14 14 14 15 14 13 12 13 14 13 14 14 14 14
12 11 8 5 5 7 7 7 5 4 5 7 9 10 11 11 13 15 14 14 14 14 16 17 16 16 16 16 15 14 14 15 16 15 14 13 11 13 13 14 14 15 14
14 10 6 5 7 7 7 7 9 9 9 10 10 11 11 14 15 17 15 15 14 14 15 16 16 16 16 15 16 16 17 17 17 16 14 12 12 13 14 14 14 14 14
12 9 6 6 6 7 7 10 10 9 11 13 13 13 15 16 18 18 17 15 15 15 16 17 18 17 16 16 16 17 18 18 18 16 15 14 14 15 14 14 14 14 13
10 7 7 7 7 7 9 10 9 9 11 14 15 15 16 18 19 18 15 14 14 16 16 15 17 16 16 15 16 18 18 19 18 17 16 15 15 15 15 14 13 13 14
9 8 8 8 7 9 10 9 8 10 13 15 16 16 18 19 19 17 14 13 13 16 15 15 16 16 16 16 16 16 17 18 17 17 16 15 15 15 14 14 14 16 18
9 9 9 9 8 10 10 9 9 12 15 16 16 17 20 19 18 16 13 13 12 15 15 15 14 15 15 14 14 15 16 17 16 16 15 15 15 15 15 16 18 19 18
10 9 10 9 8 11 10 11 10 14 16 16 17 19 19 17 17 15 12 12 12 14 14 13 13 14 14 14 13 13 15 16 16 15 15 16 17 17 18 20 20 19 17
9 9 10 9 9 10 11 10 11 13 17 15 16 18 18 16 15 13 11 12 12 11 13 13 14 13 14 14 13 13 15 15 16 16 15 17 19 21 22 21 19 17 15
10 9 9 9 10 11 11 13 12 14 16 17 16 16 16 15 14 13 11 13 12 12 11 15 15 12 13 14 14 14 15 16 16 17 18 21 23 22 21 19 17 15 14
10 8 8 9 10 10 11 12 14 15 16 17 17 16 15 14 13 11 9 9 12 13 14 14 13 11 14 14 15 15 15 17 18 21 22 23 22 20 19 17 16 14 14
9 7 8 8 8 10 10 12 12 14 16 16 16 15 14 14 11 8 8 8 10 12 10 10 11 11 12 14 15 15 14 19 22 23 22 21 20 18 17 16 15 14 14
6 6 7 7 11 11 10 13 12 12 17 13 11 11 11 10 11 10 8 8 8 8 9 10 11 11 9 12 15 16 16 21 23 22 21 19 18 17 15 15 15 15 15
7 7 7 6 7 9 11 13 13 12 11 9 10 10 7 9 6 8 8 7 9 10 7 9 11 10 10 11 14 17 19 21 21 21 19 17 16 15 15 15 16 16 15
10 10 7 6 7 8 9 11 13 12 10 10 10 10 10 7 6 6 8 8 8 8 7 9 12 13 13 11 14 17 19 19 19 18 17 16 15 15 15 15 16 15 14
9 8 7 5 5 8 8 9 11 12 12 12 11 10 9 7 7 7 7 9 9 7 7 10 11 10 10 11 14 17 18 17 17 15 15 14 14 16 15 14 14 12 13
6 7 7 5 5 6 8 9 7 10 11 11 11 10 9 8 8 8 7 8 7 7 8 8 7 7 8 10 13 15 17 17 15 15 13 13 15 16 14 13 11 12 14
6 5 6 3 7 6 5 6 7 7 9 7 9 8 7 8 7 8 11 10 7 8 9 6 5 5 5 8 13 14 16 15 14 12 11 12 15 15 12 11 13 13 14
5 4 5 5 8 6 7 8 11 7 5 6 2 4 6 6 7 6 12 10 9 9 9 4 4 7 5 9 12 14 14 14 13 12 11 11 13 13 10 11 12 12 12
7 4 3 3 5 6 5 5 8 4 4 5 5 4 4 5 7 6 10 9 11 9 7 7 7 4 4 8 11 11 13 14 13 11 9 10 11 10 10 10 9 10 9
7 6 3 2 1 2 5 4 5 8 8 7 5 3 4 4 5 6 5 7 11 7 8 11 10 5 6 5 10 10 11 13 13 11 10 9 10 9 9 8 6 5 6
10 7 6 3 2 2 4 6 7 10 7 6 5 5 4 4 5 7 9 10 11 9 10 11 12 9 10 5 8 10 9 12 13 13 11 10 9 8 8 6 5 2 2
19 18 11 7 5 1 4 6 8 8 10 8 7 7 5 3 3 5 7 10 11 11 11 13 14 13 12 9 9 11 9 11 13 13 13 12 10 9 8 7 5 4 2

GFSSE_700_spd_093.txt.gz
Wind_Speed
18 18 18 17 15 13 12 10 8 8 8 9 8 9 8 8 10 11 11 13 14 16 16 17 17 16 16 15 16 16 17 17 15 15 14 14 14 14 14 14 13 14 14
16 15 15 14 12 10 8 7 7 7 7 6 6 8 8 8 10 12 12 14 15 17 17 17 17 17 16 16 16 16 16 16 15 15 14 13 15 14 15 14 13 14 14
15 13 12 12 8 6 6 6 7 7 7 8 8 9 9 10 12 14 13 14 16 17 17 16 16 16 16 15 15 15 15 15 15 15 14 15 15 15 14 14 14 13 14
14 12 10 8 6 5 6 7 7 7 8 9 9 9 10 11 13 14 14 15 16 16 17 17 16 15 15 15 14 14 14 15 15 14 14 14 14 15 14 14 14 14 13
13 9 8 6 6 6 6 5 5 6 8 9 10 10 11 13 15 14 14 14 16 16 15 16 16 16 16 16 15 14 15 15 15 14 14 13 14 14 14 15 13 13 13
13 9 7 8 7 7 7 8 9 9 10 11 11 12 13 15 15 15 15 14 15 16 15 15 15 15 16 16 16 16 16 16 16 15 15 14 14 14 14 14 13 12 12
11 9 8 9 9 9 10 10 10 10 11 13 13 15 16 17 16 16 15 14 15 16 16 16 15 16 16 16 16 17 16 16 17 17 16 15 14 14 13 13 12 11 12
10 9 9 10 9 10 11 10 10 11 12 14 14 16 18 18 16 15 15 14 14 14 15 15 16 15 15 15 16 16 16 17 18 17 16 15 15 14 13 12 12 14 14
10 10 9 9 10 11 10 9 10 12 14 15 15 18 19 18 16 15 15 14 12 13 15 16 15 15 16 15 15 14 15 16 17 16 16 15 15 14 13 13 15 16 15
10 10 10 9 11 11 12 10 12 15 15 14 16 18 18 17 15 15 14 13 12 12 14 15 16 15 15 15 14 13 14 15 16 16 15 14 15 14 15 16 16 15 15
11 10 10 10 12 12 13 12 13 15 15 15 16 19 16 15 13 14 13 12 12 12 11 12 13 15 15 15 14 13 14 15 15 15 15 15 16 17 18 17 16 14 13
10 10 10 10 12 13 11 14 15 17 16 15 17 17 15 14 12 13 13 11 12 9 11 11 12 13 14 14 13 14 14 14 15 15 16 17 19 19 18 16 14 13 12
10 10 10 11 12 12 13 15 16 17 16 16 16 15 13 12 11 13 14 10 11 10 10 11 11 12 13 13 13 13 14 14 16 17 19 20 20 18 17 15 13 12 11
10 8 10 11 12 13 15 17 17 17 17 16 16 14 13 12 12 12 12 12 14 13 10 9 11 10 12 12 12 13 15 17 19 20 21 20 18 17 15 13 12 12 12
11 10 9 11 12 12 14 16 17 17 17 16 15 14 12 12 11 12 11 13 14 12 8 8 9 11 11 12 13 15 17 20 21 20 19 18 16 15 14 13 13 13 14
11 10 9 10 13 11 13 14 16 16 15 14 14 12 10 10 11 12 11 10 11 12 10 11 9 11 11 12 14 17 18 20 20 19 17 15 14 13 13 13 13 14 14
11 10 10 12 13 14 12 14 14 18 12 11 12 10 7 8 7 9 9 9 9 9 9 9 9 10 11 12 15 17 17 17 16 16 14 13 12 13 13 12 13 14 15
15 12 10 12 14 13 14 14 12 12 8 10 10 9 8 8 7 6 10 9 8 9 8 7 9 10 11 13 16 17 17 16 14 12 11 11 11 13 12 12 12 13 14
13 13 10 11 12 12 12 14 11 9 9 10 10 9 7 5 7 8 7 9 8 6 8 10 9 10 11 13 16 17 16 14 12 11 10 10 11 12 11 10 11 12 14
12 11 12 10 11 11 10 12 11 10 8 9 10 9 7 6 7 7 6 7 5 6 8 8 6 8 9 13 15 16 15 13 11 9 9 9 11 11 9 9 11 13 14
11 10 8 10 10 10 10 9 7 10 8 7 7 7 6 6 4 6 8 7 7 7 7 6 5 5 7 11 14 15 14 11 9 8 8 9 9 9 7 9 11 12 12
11 10 8 9 13 10 9 9 10 10 8 8 7 8 7 8 5 6 9 8 5 7 7 4 4 6 5 10 13 14 13 12 9 8 8 9 8 7 5 8 8 8 9
12 9 7 9 10 11 9 7 9 4 5 7 6 7 8 8 7 4 10 9 8 8 8 5 5 5 3 9 13 14 13 12 10 8 6 7 7 5 4 6 6 6 7
14 10 8 7 7 8 10 9 9 8 6 4 2 3 7 7 7 6 8 9 9 8 8 8 6 2 4 7 12 14 14 13 11 8 7 6 7 4 3 3 2 3 4
9 8 8 5 5 6 8 9 9 10 6 5 3 2 4 6 6 7 6 7 11 11 8 9 9 6 6 4 10 12 12 12 12 9 8 7 7 6 5 3 2 2 4
15 14 11 7 6 7 8 8 8 8 8 5 4 5 4 4 4 5 6 7 9 10 11 9 12 11 9 7 8 13 11 13 12 11 9 9 8 7 7 7 6 6 7

GFSSE_700_spd_099.txt.gz
Wind_Speed
20 16 14 13 12 12 13 9 11 10 10 9 8 9 9 10 13 14 14 15 16 17 17 17 17 16 16 16 16 17 17 17 17 17 17 16 16 17 16 15 15 14 14
16 14 13 12 10 10 9 8 7 6 7 7 6 7 8 10 13 15 14 15 17 17 16 16 16 15 16 16 16 16 17 17 18 17 17 16 16 17 17 16 14 14 14
13 12 11 10 10 9 8 7 6 5 6 6 8 9 10 12 13 15 15 16 16 15 16 15 14 14 15 15 15 15 17 17 16 18 19 16 16 17 16 15 14 14 14
12 10 9 9 10 8 9 8 8 8 8 9 10 11 12 13 14 14 15 15 15 15 13 13 13 13 14 14 13 14 15 16 14 20 13 16 15 16 16 16 14 15 14
13 6 9 9 8 7 8 9 9 10 10 11 12 13 15 15 15 15 15 14 14 14 14 13 12 12 12 12 12 12 13 15 14 16 15 16 15 16 14 14 13 13 13
8 7 9 9 8 7 7 8 10 11 12 13 14 16 16 16 15 14 14 13 12 12 13 12 13 12 13 12 12 13 12 11 16 15 15 14 14 15 13 13 13 13 13
7 9 9 8 8 10 10 11 12 12 13 14 16 17 17 15 14 13 14 13 13 13 14 13 13 12 11 11 11 11 10 11 16 12 13 14 13 14 13 14 15 16 16
3 3 8 10 11 11 11 12 14 14 13 15 18 17 16 15 13 13 13 12 13 14 14 13 13 12 11 11 11 11 12 11 13 14 13 12 13 14 15 16 17 17 17
5 4 9 12 11 11 12 14 15 14 15 17 18 17 16 14 13 14 13 12 12 12 13 13 12 12 11 11 11 11 12 10 17 14 13 12 14 16 17 16 17 17 16
11 14 7 8 11 11 14 16 16 16 17 18 16 16 14 12 12 14 12 12 12 12 12 11 11 11 11 11 11 11 11 12 12 13 12 13 17 16 16 16 16 15 15
9 12 3 8 10 11 15 17 16 16 17 16 15 14 14 12 13 12 12 12 12 12 12 12 11 11 11 12 11 10 8 15 8 12 14 16 17 16 16 15 15 14 14
12 11 9 6 7 14 18 17 15 16 16 17 12 11 13 10 14 12 12 12 11 13 12 11 11 9 9 15 7 9 14 12 13 15 16 17 16 15 15 15 15 15 16
12 9 10 11 11 14 19 14 16 15 16 15 13 13 10 10 11 11 11 11 12 12 7 9 13 11 12 10 10 10 11 13 16 17 17 16 15 15 16 16 17 18 18
11 11 11 11 12 16 18 13 11 15 16 10 12 11 10 11 9 11 9 11 15 8 8 7 9 10 11 12 12 11 12 15 18 17 16 15 15 16 17 18 18 19 20
9 11 12 11 12 15 17 15 15 16 12 13 12 11 11 11 10 9 15 7 10 8 6 6 10 12 16 13 9 15 17 18 18 16 15 15 16 17 18 18 18 20 20
11 12 14 12 13 13 14 16 20 14 16 11 11 11 15 8 9 8 10 9 7 6 6 6 11 14 10 10 17 19 18 16 15 16 15 15 17 17 17 17 18 20 21
11 12 15 14 13 13 16 16 15 15 12 8 11 12 11 9 11 10 7 9 4 9 9 11 15 15 9 12 17 18 15 15 13 13 15 15 17 16 16 16 18 19 21
11 11 15 10 14 15 15 17 15 15 9 13 9 8 8 10 8 12 9 6 8 12 9 13 9 9 10 7 10 8 12 13 13 12 12 14 14 14 14 15 17 18 19
13 13 14 15 13 14 15 13 10 9 15 6 5 7 7 7 11 10 9 8 13 11 12 7 10 10 13 11 12 8 10 10 12 11 11 13 12 13 13 13 15 16 18
15 14 13 16 14 14 14 16 8 10 10 8 9 5 4 6 9 12 7 10 10 6 7 11 9 15 10 20 9 5 6 9 11 9 10 11 9 10 11 10 12 16 17
15 15 15 13 13 14 13 12 10 8 6 10 10 6 6 6 6 6 4 6 10 13 7 11 12 11 4 14 13 2 6 8 9 7 7 4 6 9 7 8 12 13 14
15 14 16 18 14 13 13 12 12 8 6 5 5 4 3 4 5 7 9 5 11 7 5 7 13 11 2 16 12 6 5 6 4 1 4 5 5 5 5 7 7 10 13
13 11 13 15 17 15 10 14 12 14 8 10 4 2 3 4 4 6 8 8 7 7 3 7 10 16 4 8 17 15 10 5 1 2 2 3 1 3 2 4 7 9 11
13 12 11 15 14 13 13 12 12 11 8 7 5 3 6 5 5 4 10 8 8 10 7 5 6 14 13 2 9 16 12 12 10 0 1 2 2 1 1 8 6 10 8
15 11 11 13 13 13 13 13 14 10 8 11 9 7 4 5 5 6 6 9 7 7 7 11 8 6 16 13 6 4 8 6 13 12 2 5 3 5 4 2 6 2 10
18 14 11 10 10 12 13 12 13 11 11 10 9 8 3 2 5 6 7 8 8 12 8 6 8 8 6 11 13 13 6 17 10 4 4 5 7 11 8 8 7 4 5

GFSSE_700_spd_102.txt.gz
Wind_Speed
16 13 14 14 13 14 17 16 15 17 12 12 11 13 14 15 15 17 17 17 18 19 18 18 17 18 18 18 18 19 19 18 17 18 18 18 19 18 17 16 16 16 17
14 12 11 11 11 11 11 11 11 10 9 9 11 12 13 14 15 16 18 18 17 17 17 17 16 17 17 17 18 19 19 18 18 19 17 17 18 18 17 17 16 16 16
13 11 10 9 11 10 10 10 10 9 9 11 11 13 14 14 16 16 16 16 16 16 16 16 15 16 16 16 17 19 18 17 16 18 18 16 17 17 17 16 16 16 15
11 11 9 9 10 10 11 11 11 11 11 11 12 14 14 16 16 16 17 16 16 15 15 14 14 14 14 15 16 16 17 19 19 16 18 16 16 18 17 16 16 15 14
10 10 9 8 9 10 10 11 12 12 12 12 13 15 15 15 16 15 15 15 15 15 14 14 13 12 12 14 15 13 14 13 15 17 16 16 15 17 16 15 14 14 15
12 10 8 8 8 9 9 10 12 12 13 13 15 15 15 15 14 14 14 14 14 15 15 14 14 14 14 14 13 13 10 12 16 15 15 15 15 16 15 16 17 17 17
13 9 7 9 11 13 13 14 13 13 14 16 17 16 16 14 13 14 15 15 13 15 15 15 14 14 14 13 12 13 9 15 17 15 14 14 15 18 18 18 18 19 19
8 7 7 10 12 13 15 16 15 15 16 18 17 16 15 14 14 14 14 15 14 15 16 15 16 15 14 13 13 13 10 14 15 16 15 15 18 19 19 19 19 19 19
4 9 10 10 12 14 15 16 16 17 20 18 17 16 15 15 14 14 14 15 15 15 15 15 15 15 15 14 13 12 14 17 15 15 17 18 19 19 19 19 18 18 17
7 7 9 9 12 15 16 17 18 19 19 18 17 16 15 14 14 14 14 15 15 14 15 14 15 15 15 13 12 11 12 17 18 18 18 19 18 18 18 18 17 17 15
5 8 6 12 15 17 17 18 19 19 18 16 14 14 15 14 14 13 13 13 14 13 13 14 15 15 16 15 12 10 11 21 18 19 19 18 17 18 18 18 17 17 16
9 6 4 11 14 17 16 16 17 18 17 16 12 11 12 13 13 11 12 11 13 13 13 13 14 12 11 15 17 12 20 19 20 20 19 18 17 18 19 19 20 19 18
8 8 7 5 15 17 15 18 13 15 17 12 12 11 13 12 12 9 11 8 12 10 14 15 14 9 20 18 21 17 21 22 22 19 18 18 18 20 21 21 21 21 21
15 8 8 7 20 19 13 14 11 16 9 12 10 13 9 13 13 8 6 5 15 11 19 21 20 16 16 18 14 17 21 21 21 19 18 18 20 21 21 21 22 23 23
11 8 9 9 18 23 8 7 15 13 7 9 10 9 10 6 10 4 9 8 17 14 12 11 19 24 17 19 22 20 20 21 20 18 18 19 20 21 20 22 23 24 25
10 9 12 11 11 15 19 19 14 11 7 8 12 9 14 9 9 11 10 10 8 13 20 20 26 21 18 19 22 21 19 16 19 18 19 19 20 20 20 22 24 25 25
12 8 11 12 14 14 20 19 13 11 9 10 10 8 13 10 9 10 14 11 13 13 18 25 21 16 14 17 17 19 17 16 13 17 19 18 18 19 19 21 22 24 24
11 10 11 12 15 16 19 18 18 13 8 10 12 9 10 6 6 9 7 6 8 16 18 14 17 17 15 16 15 16 15 13 13 16 15 16 16 18 18 19 21 22 22
10 12 13 8 16 14 15 14 13 13 10 9 7 11 8 8 9 11 6 9 15 13 14 9 14 16 16 6 12 7 12 11 15 15 11 15 14 15 16 14 18 19 20
10 14 12 15 17 18 15 13 9 12 9 6 6 5 6 9 8 10 11 10 12 7 14 11 13 19 8 17 10 2 9 10 12 10 11 14 9 12 14 8 14 17 18
13 16 16 16 14 17 16 12 9 13 9 10 6 8 6 9 6 9 10 9 6 16 12 20 18 22 20 15 11 9 7 10 8 8 8 10 5 11 7 9 13 13 13
14 15 12 15 14 15 14 16 16 11 9 7 8 7 5 8 7 6 9 12 9 11 7 9 17 20 18 17 12 8 10 10 8 4 6 3 3 6 6 10 9 10 10
14 14 17 14 14 14 13 14 14 14 9 10 4 5 4 5 5 10 9 11 10 9 12 14 15 16 21 14 17 12 10 8 1 1 2 4 0 2 5 3 6 7 9
11 13 14 15 16 15 13 11 9 10 9 3 7 5 6 5 6 8 9 10 11 5 12 15 18 16 15 17 15 17 12 13 11 2 4 2 3 1 4 6 10 6 9
12 11 15 15 15 15 13 13 13 13 11 11 8 3 4 1 5 6 10 10 11 10 8 9 11 16 18 18 15 12 13 13 8 7 5 5 4 3 4 3 7 11 14
19 13 10 15 15 14 13 13 14 12 10 8 7 5 2 7 8 7 6 8 9 14 10 7 7 10 17 18 17 16 17 18 17 11 9 7 4 6 11 8 8 5 10

GFSSE_700_spd_105.txt.gz
Wind_Speed
19 16 19 18 20 18 19 20 16 14 13 14 15 15 17 18 17 17 18 19 19 19 19 19 19 19 20 20 20 19 19 19 18 17 17 18 17 17 16 16 17 17 17
17 15 14 15 15 14 16 14 16 9 10 13 14 15 17 18 17 17 16 18 18 18 18 17 18 18 19 20 20 19 19 19 18 18 18 17 17 17 17 17 17 17 17
13 13 12 11 12 12 13 13 12 10 11 12 14 15 17 18 17 16 16 17 17 17 18 18 18 18 18 19 19 17 17 16 16 18 17 16 17 17 18 17 16 16 16
12 11 12 12 11 12 13 13 13 13 13 14 15 15 16 17 17 17 17 16 16 16 16 17 17 17 17 18 18 18 19 17 18 18 17 16 17 17 17 16 16 16 16
11 12 10 9 11 12 14 14 15 15 14 15 16 16 16 17 17 17 17 16 16 16 16 16 16 15 14 15 16 15 15 16 18 17 17 15 15 17 18 18 18 18 18
11 11 8 8 9 12 13 14 14 16 16 17 16 16 16 16 15 16 16 16 16 17 17 17 17 15 14 13 15 17 15 17 18 16 15 16 17 20 20 20 20 20 19
9 10 8 10 11 13 14 14 15 16 17 16 16 16 15 15 16 17 16 17 17 18 18 17 17 15 15 15 14 15 12 18 18 17 16 19 21 21 21 20 20 19 19
10 9 9 11 12 14 15 14 14 16 17 16 16 15 15 16 16 16 17 17 18 19 18 19 18 17 16 15 16 15 17 19 17 17 20 21 21 20 19 18 18 18 17
11 11 10 12 14 17 17 16 17 18 17 17 16 15 15 16 16 17 18 18 18 18 19 18 18 18 16 16 18 19 19 20 20 20 21 20 19 18 17 17 17 16 15
13 6 12 13 16 19 18 19 21 19 17 16 16 15 15 16 17 18 18 17 17 17 17 16 16 16 16 16 17 18 19 21 24 22 21 19 18 17 17 16 15 15 14
6 14 13 16 17 19 18 20 21 20 18 15 14 15 15 16 15 16 17 15 16 17 16 16 16 16 16 17 18 21 23 24 24 20 19 18 17 17 18 18 17 16 16
5 11 11 16 17 18 17 18 19 18 17 15 12 13 15 15 15 14 15 14 16 14 14 16 15 15 18 17 21 25 25 23 21 19 19 18 19 21 21 21 20 20 19
6 4 17 17 18 18 17 18 18 15 12 13 12 12 17 16 14 13 11 11 15 15 13 16 18 19 19 20 22 25 24 21 19 19 19 20 22 23 23 23 23 23 22
1 4 5 16 17 17 13 16 18 12 11 12 11 13 14 13 9 10 6 15 23 21 17 19 19 22 21 20 25 26 24 21 20 20 20 21 23 23 24 24 24 25 25
7 6 4 17 18 13 12 17 20 11 11 9 9 15 11 12 11 15 18 14 15 16 22 21 21 18 19 21 22 22 22 21 21 21 21 21 22 24 25 26 26 26 26
9 10 10 14 15 14 17 13 10 10 8 8 8 12 12 12 10 11 12 14 23 21 22 23 27 23 21 20 21 20 18 18 21 22 20 21 22 23 24 25 25 25 26
6 11 11 12 14 15 20 14 14 12 12 12 11 12 13 11 13 15 18 24 19 23 24 18 21 22 19 21 19 19 17 16 16 20 19 20 22 22 22 23 23 23 24
5 10 12 15 16 21 20 11 14 15 9 10 12 8 13 10 10 13 11 17 17 20 19 18 23 21 20 16 16 17 18 17 14 16 17 17 20 20 18 21 20 22 21
2 9 13 14 16 17 16 15 16 11 11 8 6 8 9 10 13 13 14 19 19 21 19 22 16 13 16 13 15 13 13 15 14 18 14 15 16 17 17 16 18 19 20
6 9 14 12 17 17 17 12 11 10 12 11 12 7 6 8 10 9 13 16 11 15 15 17 19 17 11 6 10 10 11 12 13 14 11 16 13 12 15 13 15 15 18
9 12 17 17 15 17 16 11 14 11 11 7 8 7 10 8 6 9 11 8 16 17 19 17 17 13 17 12 8 13 14 12 10 10 10 12 10 10 13 12 12 12 12
12 13 15 14 16 18 14 15 12 14 11 9 10 9 9 6 7 9 6 12 14 14 16 18 19 19 16 15 13 14 11 10 11 8 7 8 8 7 8 8 8 9 9
11 12 13 16 16 17 15 10 14 10 12 10 8 8 9 6 5 4 5 5 8 9 15 17 21 20 17 14 12 11 8 4 8 6 3 3 4 4 4 2 7 10 10
5 10 14 18 16 13 13 13 10 7 7 6 6 6 6 6 4 7 6 10 8 9 14 17 19 20 19 15 14 11 9 9 7 3 8 5 6 5 11 9 3 3 6
6 5 9 13 16 15 12 12 12 13 10 7 8 7 5 6 5 8 11 9 11 5 10 14 14 17 18 16 16 17 12 14 10 9 7 6 6 4 9 7 8 11 10
8 5 6 15 16 16 15 12 12 11 4 5 10 7 7 5 5 5 8 8 5 8 7 9 12 12 15 16 16 17 17 14 10 10 8 11 8 9 11 10 15 16 14

GFSSE_700_spd_108.txt.gz
Wind_Speed
27 25 25 22 28 22 21 15 15 13 14 15 15 17 18 18 19 19 19 19 20 19 18 18 18 19 19 19 18 17 17 18 17 17 16 15 15 14 15 16 16 16 17
20 21 21 22 21 22 17 15 13 10 14 15 15 16 18 19 19 18 17 18 18 18 18 17 18 18 20 19 18 17 17 16 16 17 16 15 15 15 15 16 16 16 16
14 15 16 15 16 16 15 11 9 11 15 15 15 16 17 18 18 18 18 18 16 17 17 17 18 19 18 18 17 17 16 14 15 15 14 15 14 15 16 15 15 16 15
12 11 12 13 13 13 12 11 10 12 15 15 16 16 17 17 17 17 17 17 17 17 17 17 17 17 16 16 17 15 16 16 16 16 15 15 14 15 15 15 16 16 15
12 11 11 11 12 13 13 13 12 14 15 16 16 17 17 18 18 17 16 17 17 17 16 16 16 16 15 14 15 15 17 16 17 16 14 14 15 16 17 18 18 17 17
12 12 11 11 12 13 13 14 15 15 17 17 16 17 16 16 16 17 17 17 17 17 17 15 15 17 16 14 13 13 15 16 17 16 15 16 18 19 19 19 19 19 18
10 11 10 11 13 14 15 15 15 16 16 16 16 16 16 16 16 16 17 17 17 18 17 16 17 16 17 16 16 14 16 17 19 18 17 17 19 20 19 18 18 17 16
9 10 11 12 15 16 16 16 18 18 17 17 16 16 17 16 16 17 17 18 18 18 18 18 18 17 16 16 17 15 18 21 20 19 18 17 18 18 17 15 15 15 14
12 11 11 12 16 16 17 18 19 19 18 16 16 16 16 16 16 18 18 18 18 18 17 18 18 18 17 18 18 17 19 21 20 18 16 15 15 15 14 14 14 12 12
11 10 13 14 17 17 18 21 20 19 17 17 16 16 17 16 17 18 16 17 17 18 18 17 17 18 18 19 18 19 21 20 19 17 16 14 14 13 13 13 12 12 12
10 13 14 16 17 18 19 20 18 18 16 15 14 16 15 14 15 16 15 13 15 17 19 18 17 17 17 18 19 21 22 19 18 18 15 14 15 15 15 15 15 15 14
12 12 17 17 17 19 19 18 17 16 15 15 15 12 13 12 13 15 14 14 14 15 15 18 18 19 23 22 22 22 21 20 19 18 16 17 18 18 18 19 18 18 16
10 10 18 17 18 18 18 17 17 15 12 13 13 12 9 11 14 13 12 10 12 13 14 15 18 20 21 21 23 21 20 20 19 18 18 19 19 21 22 21 21 20 20
8 8 17 17 19 20 18 17 15 12 12 12 10 10 10 11 12 11 10 12 13 13 14 20 16 20 21 22 22 21 20 22 19 18 19 19 21 22 23 22 23 22 22
6 6 14 17 19 20 19 18 15 13 12 10 11 13 13 16 16 21 20 16 18 20 16 15 12 18 22 22 20 20 19 22 19 19 20 21 23 24 24 23 24 24 24
6 4 9 14 15 18 22 18 15 15 13 10 9 11 11 12 14 17 15 16 24 25 25 22 19 21 22 21 19 19 17 19 20 20 21 21 22 23 23 23 23 23 24
5 5 10 18 12 18 26 15 16 13 12 10 14 11 12 16 13 17 20 23 23 25 24 23 23 22 19 18 17 16 15 14 16 19 20 21 20 21 22 21 21 22 22
1 9 11 12 11 16 15 13 12 18 14 12 10 10 10 11 16 20 19 12 24 20 24 21 21 20 20 19 16 15 15 13 13 16 17 18 19 18 18 19 20 20 20
1 7 12 13 16 17 14 14 16 14 15 10 11 7 8 10 9 12 12 11 13 17 15 20 18 19 18 19 17 15 14 14 11 14 14 16 16 16 16 15 17 19 19
3 4 12 14 16 15 16 13 12 12 10 10 11 11 11 10 6 12 18 18 17 16 19 12 11 13 15 16 13 12 13 15 13 14 14 13 13 12 13 13 14 15 15
2 2 16 16 16 16 18 17 13 13 12 10 10 8 12 10 9 12 13 13 15 15 17 18 15 10 13 12 13 14 13 13 11 9 15 11 13 11 14 11 11 12 12
4 5 9 15 16 17 15 11 13 13 11 11 10 9 10 9 8 8 9 13 10 16 18 19 17 11 12 11 13 11 11 10 10 9 7 8 9 8 9 9 6 6 4
5 5 6 14 18 17 13 15 12 11 9 10 10 8 9 8 9 11 9 8 11 15 18 19 13 17 14 11 11 11 10 10 8 9 7 5 5 5 5 2 1 1 5
3 5 8 16 16 18 14 12 13 13 10 11 8 8 8 7 7 11 11 11 11 11 14 15 16 18 16 13 11 11 9 7 7 7 7 3 4 4 3 4 7 7 10
7 5 9 13 14 16 16 14 13 11 12 10 11 9 8 7 7 9 12 11 7 9 11 15 13 22 18 16 14 12 11 11 8 8 7 6 7 7 7 6 7 7 7
12 9 4 10 12 13 14 15 13 9 9 9 10 8 8 7 6 7 9 12 12 9 11 12 16 15 18 19 15 15 15 15 12 11 13 12 11 8 11 11 11 13 15

GFSSE_700_spd_111.txt.gz
Wind_Speed
23 23 25 21 16 16 21 17 11 12 11 12 14 15 17 19 20 20 18 18 17 17 17 16 17 17 17 16 16 15 14 15 15 14 13 12 11 11 12 11 12 12 12
23 21 25 18 19 20 14 13 11 12 12 12 15 15 17 18 18 17 17 17 16 16 16 17 16 17 16 16 16 15 15 16 15 13 12 12 12 11 12 12 12 13 13
20 19 20 18 16 14 13 16 8 12 13 15 16 17 16 17 16 17 16 16 16 16 16 17 17 17 18 16 14 14 14 13 13 13 12 11 12 12 12 12 12 12 11
17 16 16 13 13 12 8 8 8 12 13 14 15 16 16 16 15 16 15 15 16 15 15 16 17 17 16 15 14 13 13 14 14 14 12 11 11 12 12 12 12 12 11
15 15 12 12 12 10 9 9 11 14 14 14 15 16 16 16 16 15 14 15 15 14 15 15 15 16 16 15 14 14 13 13 13 13 12 12 12 14 14 14 14 13 13
12 12 13 12 11 11 12 12 14 15 15 15 16 16 15 15 15 15 15 15 14 14 15 15 14 14 12 12 12 13 13 13 15 14 15 15 15 15 16 16 15 15 14
10 11 11 12 12 12 13 13 14 15 15 15 14 15 15 16 16 16 16 15 15 15 16 15 15 14 13 14 12 13 14 16 17 17 17 16 15 16 16 15 14 13 12
10 10 10 12 13 13 15 15 17 16 15 15 15 15 15 15 16 16 16 15 15 16 16 16 16 15 16 14 13 12 16 18 18 18 16 14 13 13 13 13 12 12 12
12 11 11 13 14 13 14 15 16 16 15 15 15 14 15 15 16 16 15 15 15 15 15 15 16 16 17 16 15 16 18 18 18 17 14 13 11 11 11 11 11 11 10
11 13 14 16 15 15 17 18 17 15 15 15 15 14 14 14 14 15 15 16 16 16 17 17 18 18 18 16 17 18 18 18 17 15 14 12 10 10 10 10 11 11 10
12 13 16 17 16 19 20 18 16 16 15 15 14 14 14 13 13 14 14 14 15 15 17 18 18 19 18 17 18 18 17 17 17 15 15 14 12 13 12 12 12 12 11
11 14 17 16 18 21 19 18 16 14 14 14 14 13 15 14 15 15 14 13 14 14 14 16 18 18 19 20 19 18 17 17 18 18 17 16 16 16 16 16 16 15 14
11 14 17 16 18 18 17 16 14 13 12 12 12 12 13 14 15 14 13 12 12 11 10 15 20 20 20 20 19 18 18 20 19 20 19 18 19 18 19 20 19 18 19
11 13 15 17 19 18 16 14 13 12 12 12 12 14 14 12 10 7 12 11 14 11 13 14 18 20 21 20 18 18 20 21 20 20 21 20 20 21 22 22 21 21 22
9 9 13 15 18 18 15 11 10 11 11 11 11 13 14 11 14 18 15 11 15 16 15 13 16 19 20 19 19 18 20 21 21 21 22 21 22 22 23 23 22 23 23
7 6 14 14 15 17 15 13 13 13 13 12 12 15 15 17 18 14 14 17 15 16 14 16 18 18 18 18 18 18 17 20 21 21 21 20 20 21 22 22 21 21 21
4 4 12 15 15 18 17 13 14 11 12 12 11 13 13 13 15 10 12 18 18 19 18 19 20 19 18 19 18 17 17 16 17 18 20 19 18 19 20 20 20 19 19
2 5 10 13 15 17 16 12 12 13 14 13 14 15 12 10 14 13 17 16 17 21 20 21 20 18 18 19 17 18 17 16 15 15 16 17 16 17 16 17 17 17 17
1 5 8 10 17 19 14 15 13 13 13 12 13 12 13 11 15 16 13 20 15 17 20 21 21 18 17 17 16 15 17 14 15 15 15 14 14 15 14 14 14 13 14
3 1 8 10 15 18 17 14 14 13 12 11 13 11 11 11 11 11 15 17 19 16 20 16 17 16 15 15 15 15 14 14 13 14 12 12 12 11 12 11 10 9 9
2 1 8 10 15 13 14 15 11 12 11 10 10 11 11 9 11 12 17 18 15 15 18 14 14 14 13 12 13 14 15 14 12 9 11 13 13 12 9 6 5 6 8
2 2 6 11 14 15 14 13 11 11 10 10 8 10 10 10 9 11 11 8 10 13 12 14 13 12 10 12 12 13 14 13 10 9 8 8 9 7 5 4 3 5 8
3 3 4 12 14 15 13 12 12 10 9 9 8 9 11 10 12 11 12 11 14 16 19 14 15 12 10 12 13 11 12 11 10 10 11 9 7 5 5 2 4 6 7
4 3 7 12 13 15 13 13 11 9 9 10 9 8 9 9 10 12 14 13 11 13 17 18 14 11 14 12 11 10 11 10 9 10 9 7 8 7 6 4 6 6 10
7 3 7 12 11 14 12 12 13 11 10 10 9 9 9 8 9 13 13 12 11 10 13 17 17 14 14 15 14 12 12 12 10 9 9 9 9 8 9 8 8 8 8
10 9 7 12 13 15 14 14 14 13 11 9 8 7 7 6 7 10 11 13 11 11 14 15 16 15 19 18 19 16 15 13 13 12 13 14 15 15 14 13 11 12 14

GFSSE_700_spd_114.txt.gz
Wind_Speed
18 19 21 23 23 22 18 13 12 12 13 17 16 16 18 20 19 18 17 15 15 15 15 16 15 16 16 16 15 14 13 13 12 11 11 10 10 10 11 12 12 11 10
17 21 15 20 22 20 14 10 9 11 11 12 15 17 17 18 18 18 16 15 15 15 15 15 15 15 15 15 15 15 15 14 12 11 11 10 11 10 11 11 11 11 10
16 15 12 18 16 14 13 11 10 11 13 15 16 17 17 17 16 16 14 15 15 15 16 16 16 15 15 14 14 14 14 13 12 11 11 10 11 10 11 10 10 10 9
14 14 12 10 11 12 11 6 9 11 13 15 15 17 16 16 15 15 14 14 15 16 17 17 15 14 15 13 14 14 13 13 12 12 11 11 10 10 10 10 10 10 9
11 11 10 8 7 7 8 8 10 11 12 14 15 16 15 14 13 14 13 14 14 16 16 16 15 15 14 15 13 13 13 12 13 13 12 12 11 12 12 13 13 13 13
12 11 9 8 8 7 8 11 13 13 14 14 16 15 14 14 13 13 13 13 14 15 15 15 13 12 11 12 12 12 13 14 16 15 14 14 14 15 15 15 15 15 14
10 10 10 10 9 10 11 13 14 14 15 15 14 14 14 14 14 14 12 12 14 14 15 14 13 12 12 13 12 13 15 17 18 17 17 16 15 16 14 14 13 12 12
11 10 11 11 11 12 12 14 15 15 15 14 14 14 14 14 13 13 13 12 14 14 15 14 13 13 13 14 14 15 17 19 18 17 16 14 14 13 13 11 11 11 11
12 12 13 12 12 13 14 15 15 14 14 14 14 14 14 14 14 13 13 14 14 14 14 14 14 13 15 14 15 16 17 17 16 15 14 13 13 11 10 10 9 9 10
12 12 14 14 13 14 17 16 16 15 15 13 13 13 13 13 14 13 13 13 14 15 15 15 15 16 16 17 18 17 16 15 14 14 13 12 11 11 10 9 10 10 10
12 13 15 14 14 17 17 16 14 14 14 13 14 14 15 14 14 13 12 13 13 14 15 17 18 17 17 18 18 16 15 15 14 15 15 15 14 13 11 11 12 12 12
13 14 15 15 17 19 16 15 15 13 14 13 14 14 15 14 15 14 13 13 13 13 15 17 18 17 19 18 17 16 16 17 17 18 18 18 17 15 15 14 15 15 15
15 16 16 18 20 18 16 14 14 13 13 13 13 13 15 14 13 13 13 13 13 13 13 16 18 19 19 17 16 16 18 18 19 19 19 20 20 18 19 19 20 20 20
15 14 16 19 18 18 16 14 13 12 11 12 13 13 14 13 11 11 10 10 10 11 14 17 19 19 18 18 17 18 19 19 20 20 21 21 22 21 22 22 23 22 23
11 13 14 16 17 16 15 12 12 12 13 14 13 12 13 10 9 13 10 13 10 15 16 17 19 19 18 18 18 18 19 20 21 21 22 22 22 22 22 22 21 21 21
8 12 13 14 15 14 12 11 11 13 16 15 13 11 10 14 16 12 14 15 17 16 18 18 19 17 16 17 18 17 17 19 21 21 21 20 20 20 20 20 19 18 18
7 10 13 13 13 13 11 13 12 11 12 11 13 11 13 14 10 12 12 14 16 14 16 19 19 17 15 17 18 18 17 17 17 19 19 18 16 17 17 17 17 16 15
6 7 13 13 13 15 12 12 11 11 14 13 11 11 9 9 9 14 15 13 16 16 18 19 18 16 16 17 17 18 16 17 17 14 15 16 15 15 14 13 12 13 13
3 6 9 12 13 15 13 11 10 13 13 12 11 10 9 11 13 16 14 13 18 19 19 18 18 16 15 16 17 16 15 15 16 14 13 13 13 13 11 11 10 12 13
2 6 9 10 14 17 13 13 13 11 13 13 11 10 11 14 16 10 13 14 15 17 17 17 17 15 14 15 16 13 12 13 14 13 11 11 10 9 9 9 8 11 13
3 6 9 11 14 14 13 12 12 11 10 12 11 9 13 11 14 12 11 18 12 13 16 14 14 13 11 11 12 12 11 10 9 8 8 8 9 7 5 5 6 9 10
4 3 10 12 14 14 15 14 12 11 10 10 9 10 10 10 10 13 13 14 15 13 17 14 13 12 10 10 11 11 10 9 7 5 4 3 3 1 1 2 4 6 7
4 3 7 12 14 15 15 14 12 10 7 7 6 7 8 8 9 12 15 13 13 13 14 13 11 13 10 10 11 11 11 10 9 7 5 6 6 6 5 4 7 6 7
7 3 7 14 16 16 14 13 12 10 9 8 8 8 8 7 7 7 11 11 9 10 12 14 10 14 13 10 10 11 11 11 10 10 9 11 10 9 9 7 7 7 8
9 4 7 13 16 17 15 14 12 11 12 12 9 8 8 9 9 10 9 9 8 10 12 14 15 12 12 14 12 11 11 11 11 10 10 11 11 8 7 10 9 13 14
12 8 8 12 16 18 17 14 12 10 9 8 8 7 8 8 9 11 12 13 12 12 11 13 17 17 16 15 16 16 15 14 13 14 15 14 14 14 16 13 15 16 16

GFSSE_700_spd_117.txt.gz
Wind_Speed
23 22 22 21 23 22 21 21 19 14 13 16 16 17 18 18 18 18 18 16 15 16 17 17 17 16 15 14 13 13 12 12 11 11 12 12 12 12 12 13 13 11 10
20 24 22 24 19 17 16 11 11 12 11 14 16 16 17 18 17 17 17 17 16 17 16 16 16 15 14 13 15 15 14 12 11 11 12 11 12 12 12 12 12 11 11
21 19 17 21 19 17 14 10 11 12 14 16 16 16 16 16 15 16 17 16 16 17 16 15 15 14 13 13 14 13 13 12 12 12 11 11 11 11 11 11 11 10 10
14 17 16 16 15 13 10 9 11 12 14 15 15 15 14 14 14 15 16 16 18 17 16 16 15 14 13 13 13 13 13 13 12 12 11 11 10 12 11 11 10 10 10
10 12 11 11 9 8 5 7 10 12 13 14 14 13 14 13 14 15 16 17 18 15 17 14 14 15 16 14 13 13 12 12 13 14 12 13 13 13 13 13 13 13 12
7 5 4 5 6 6 6 8 10 13 14 14 14 13 12 12 13 14 16 16 16 15 14 15 12 13 14 13 12 12 12 14 16 16 16 15 15 15 15 14 14 13 14
8 6 5 6 7 9 10 11 12 13 14 13 13 13 12 12 12 13 14 14 14 14 12 12 12 12 13 14 13 13 15 17 17 18 17 16 15 15 14 13 12 12 12
11 9 8 9 10 11 12 14 14 13 13 12 12 12 12 11 11 13 13 13 12 12 12 12 12 13 13 14 15 16 17 17 16 16 15 14 13 13 12 11 11 10 10
13 12 11 11 12 13 15 15 14 13 13 13 12 12 12 12 12 11 11 12 12 11 12 13 11 14 15 16 16 16 15 14 14 14 12 12 11 12 11 11 10 10 10
13 14 14 12 13 14 16 15 14 13 13 12 12 12 12 12 12 12 12 11 11 11 12 13 13 14 15 16 15 14 13 12 12 11 11 11 12 13 12 11 11 11 11
13 14 15 14 15 16 15 15 13 12 12 13 13 13 13 13 12 12 12 11 12 11 12 14 15 16 16 14 13 11 11 11 13 12 13 13 14 14 14 13 12 12 12
15 15 15 15 17 17 16 14 12 13 13 14 14 14 13 13 12 12 12 12 13 13 14 16 16 16 15 13 12 12 13 14 15 15 15 16 17 17 16 14 15 16 16
17 16 16 17 17 16 16 14 13 13 13 13 12 12 11 11 12 12 12 12 12 12 14 15 17 16 14 12 12 13 14 15 15 15 17 18 20 19 18 19 20 20 20
16 17 18 19 16 15 14 12 11 12 11 12 11 12 12 10 10 10 11 12 12 13 14 15 16 14 13 13 13 13 15 16 17 18 20 20 21 21 21 21 21 20 20
15 17 19 18 16 15 14 11 12 11 11 10 10 11 10 7 8 9 10 12 11 15 16 17 16 13 12 13 13 12 15 18 18 21 20 20 20 21 20 19 18 17 18
14 15 17 16 15 15 13 12 12 13 12 11 9 7 8 5 10 8 12 12 15 16 17 18 16 13 12 12 12 13 14 16 18 19 19 18 18 18 17 16 15 15 16
14 14 15 15 15 12 11 12 12 14 13 10 10 7 13 12 8 10 13 15 14 16 18 18 15 13 12 11 12 14 14 14 15 16 16 16 16 15 14 13 14 15 16
12 15 14 14 13 12 11 12 12 14 11 11 10 9 11 8 7 9 11 14 13 15 16 15 13 13 12 11 12 14 14 13 13 13 13 12 12 12 12 12 13 15 16
11 13 13 13 14 13 11 12 11 13 12 10 9 10 9 10 9 11 10 13 15 15 16 14 12 12 12 11 11 13 12 11 11 10 10 9 9 9 10 11 11 12 12
9 13 14 13 15 17 12 10 11 12 11 9 9 9 12 11 13 11 10 15 15 15 15 13 12 11 10 10 9 10 10 10 9 8 7 6 5 5 6 7 8 7 7
6 9 12 12 14 17 12 11 11 10 9 8 8 9 12 15 10 8 12 14 12 14 14 12 12 11 11 10 8 8 9 8 6 3 2 1 1 0 2 3 4 4 8
7 8 12 14 14 16 14 12 14 12 9 8 8 9 9 10 11 10 11 13 10 11 12 12 12 11 11 10 9 8 8 8 6 4 2 2 3 4 3 3 6 9 10
8 7 13 15 16 16 17 17 14 12 10 10 8 9 9 8 8 10 11 13 14 10 12 12 13 11 10 9 9 9 9 7 6 5 5 5 6 7 8 9 10 12 11
9 8 15 17 19 19 16 16 13 11 9 10 9 9 10 8 9 11 12 13 13 12 13 14 13 12 11 10 9 10 12 10 10 10 10 10 10 10 11 11 12 14 14
12 8 13 19 19 19 17 16 14 12 12 10 10 9 9 8 9 10 10 16 11 13 15 15 16 12 13 12 12 12 12 12 12 11 11 10 11 11 11 11 14 16 16
15 12 12 17 20 20 20 18 15 14 12 10 8 8 8 8 8 10 11 13 12 9 11 11 15 15 15 14 15 17 15 14 14 15 15 14 13 13 13 14 13 17 19

GFSSE_700_spd_120.txt.gz
Wind_Speed
17 20 19 20 18 20 26 23 19 13 13 13 14 15 16 18 16 16 16 17 17 17 17 17 17 16 14 14 13 13 13 13 13 13 13 13 12 13 13 13 11 11 10
21 20 21 16 18 19 20 22 15 13 15 18 19 16 16 17 16 16 17 18 18 17 17 17 16 15 15 14 15 14 13 13 14 14 12 12 13 13 13 13 13 11 11
18 21 20 21 22 19 15 12 11 10 12 14 15 14 14 15 16 16 17 18 17 16 15 15 16 16 16 15 13 13 12 13 13 13 12 13 12 13 13 12 11 10 10
21 19 16 15 15 14 13 12 12 13 14 14 14 14 15 15 16 17 17 19 17 16 15 15 14 14 15 13 12 12 12 12 12 11 13 12 13 14 13 11 11 10 10
18 18 12 8 9 10 12 13 13 14 14 14 13 14 14 15 16 16 17 17 16 15 15 15 14 15 14 14 13 11 10 11 13 14 14 14 15 15 14 14 13 12 11
14 11 8 6 7 10 12 12 12 12 13 13 12 12 13 14 15 16 16 14 14 16 16 16 15 15 14 13 12 11 12 14 15 16 16 15 16 15 15 14 13 12 11
11 7 6 6 7 10 13 12 13 13 12 11 10 11 13 14 14 14 14 12 12 12 11 13 14 14 13 12 13 13 15 15 17 17 16 16 13 14 13 12 11 10 9
10 8 7 8 10 11 13 13 13 13 12 11 11 11 13 13 13 12 12 11 11 11 11 12 13 12 13 13 15 16 15 14 15 14 14 12 11 11 11 10 10 10 10
10 11 10 9 11 12 13 13 12 11 11 10 11 12 13 13 13 12 11 10 11 12 12 12 11 12 13 15 16 14 13 12 12 12 11 10 9 10 10 11 11 10 10
11 10 11 11 13 14 15 13 12 11 11 11 11 11 12 12 12 12 11 10 10 11 11 11 12 13 14 14 12 10 10 9 10 9 9 9 10 11 12 12 12 12 12
13 14 12 12 14 15 14 13 12 11 11 11 11 12 12 12 12 11 11 11 11 11 12 12 13 13 13 12 10 9 7 8 9 10 10 11 12 13 14 13 13 13 13
14 17 15 15 17 15 14 13 11 10 10 11 12 11 11 11 11 11 12 13 12 13 14 13 14 12 11 11 9 9 11 11 12 13 13 14 14 15 15 16 16 17 17
15 16 16 17 17 16 15 14 12 12 11 10 11 11 10 10 11 12 13 13 13 14 15 15 14 12 10 11 10 10 12 14 14 15 15 16 18 18 18 19 19 19 19
15 16 18 18 16 15 14 13 13 12 10 10 9 10 11 11 11 13 14 14 14 14 14 15 14 11 10 10 11 11 13 15 15 17 17 19 19 19 18 18 19 19 19
15 17 19 16 15 14 13 12 12 12 10 9 8 9 10 9 10 11 12 12 14 14 15 15 13 11 10 10 9 11 13 15 16 18 19 18 18 17 17 17 16 16 17
16 17 18 15 14 13 12 12 11 12 10 9 8 7 5 3 8 8 11 11 13 15 15 15 12 11 11 9 9 12 13 14 15 16 16 15 14 15 15 15 15 15 14
16 17 17 16 15 12 10 11 11 11 10 9 7 7 6 8 6 8 11 12 14 15 15 14 11 11 10 8 9 11 12 13 13 13 13 12 11 12 13 13 12 11 11
17 16 17 16 14 12 11 11 10 11 10 10 7 10 11 6 7 10 12 13 14 16 15 12 10 11 10 8 9 10 11 11 11 10 10 9 9 11 11 10 9 9 8
18 17 17 17 16 13 13 11 9 12 9 9 8 8 8 5 7 9 13 12 14 16 16 12 9 11 9 8 7 8 9 9 9 8 7 6 6 7 8 6 5 6 7
16 18 16 17 17 15 13 11 10 10 10 9 9 10 10 9 9 10 14 14 16 17 16 13 10 10 9 8 6 6 6 6 5 4 3 3 3 3 3 3 5 8 9
15 17 18 16 16 16 12 11 11 9 8 8 9 8 11 13 12 9 13 16 16 15 16 13 10 8 7 7 6 4 5 4 3 1 1 1 2 2 4 5 7 10 14
11 16 17 17 16 17 14 14 13 12 10 8 8 8 10 12 9 10 12 13 14 13 12 11 9 7 6 7 6 6 3 4 5 4 3 3 3 3 5 8 10 12 15
11 13 16 17 18 18 17 16 14 11 9 8 8 10 8 7 7 9 13 15 11 10 12 11 12 10 5 7 8 8 3 2 8 7 6 7 9 9 9 12 13 13 16
12 12 17 18 20 20 19 17 16 13 11 9 8 8 9 8 6 8 11 15 14 12 12 12 12 12 10 7 9 10 10 11 4 7 14 12 12 12 11 12 13 15 16
14 11 14 19 20 20 20 20 15 15 14 13 11 10 10 9 9 9 10 11 12 11 12 14 14 15 13 12 11 11 11 12 11 10 7 12 11 13 14 15 17 16 14
17 15 15 19 20 20 20 19 19 17 14 13 14 13 12 11 11 11 11 12 15 11 13 15 17 19 15 17 15 14 15 15 11 13 11 13 13 16 17 16 17 19 20

GFSSE_700_spd_123.txt.gz
Wind_Speed
12 10 11 12 14 19 18 17 23 19 20 16 16 15 15 17 17 16 16 16 17 17 17 17 17 16 15 15 15 15 14 13 14 14 14 14 13 14 13 11 12 10 10
14 16 16 20 22 21 24 27 27 19 18 18 17 16 15 17 17 17 17 18 18 18 17 16 16 16 15 16 15 14 14 13 14 14 15 14 14 14 14 13 14 10 10
20 21 23 23 22 22 21 24 19 14 17 18 16 15 15 16 17 18 17 18 18 17 16 16 16 16 15 15 14 13 13 13 13 13 15 14 13 13 13 12 11 10 9
18 16 15 16 19 19 20 18 16 12 14 14 14 15 15 15 16 18 18 17 17 16 16 15 14 14 13 12 12 12 12 12 12 13 14 13 13 13 12 12 11 10 9
19 13 11 11 12 13 15 15 14 13 13 13 13 14 14 15 16 18 17 17 17 16 15 14 14 13 13 13 12 11 11 12 13 15 15 12 14 14 14 13 12 12 11
7 7 7 8 10 13 13 14 14 13 12 13 13 13 14 14 15 16 17 17 16 16 15 14 12 12 12 12 12 12 12 11 16 15 15 15 14 14 14 14 13 12 12
6 7 7 7 10 13 13 14 14 13 12 12 12 14 13 14 14 14 13 13 15 13 12 12 12 12 12 13 13 13 14 13 16 15 14 13 12 12 12 12 12 11 11
10 6 8 9 12 13 13 14 13 13 11 12 13 14 14 14 13 13 12 13 12 12 11 11 12 13 14 14 14 14 13 13 14 13 12 11 10 11 11 11 11 11 11
12 9 11 12 13 14 14 13 12 11 11 12 13 14 13 13 13 12 11 12 11 11 11 11 12 15 15 14 13 12 12 12 12 10 11 9 9 10 11 11 11 12 12
12 9 10 13 14 14 14 13 11 10 10 11 12 13 13 12 12 12 12 11 12 11 12 12 14 14 13 12 11 11 11 10 10 10 9 9 9 11 12 13 13 14 14
10 11 12 9 17 12 12 12 10 9 10 10 12 13 12 12 12 11 12 10 11 12 12 13 14 12 12 12 9 9 7 12 9 9 9 10 11 12 13 14 16 17 19
12 5 16 9 15 14 12 11 10 10 8 9 11 12 12 12 12 11 11 11 12 12 13 13 13 10 9 13 9 7 13 10 11 10 11 12 13 14 16 19 20 20 20
14 8 12 14 13 13 13 12 9 10 10 10 10 11 13 12 13 12 11 12 14 12 15 13 11 8 14 10 8 8 11 12 11 11 13 15 16 18 19 19 20 19 19
16 15 15 16 18 13 11 12 7 9 9 9 9 10 11 12 12 12 11 12 13 11 13 17 5 11 13 14 9 10 12 12 12 13 14 17 18 18 18 18 18 16 15
15 16 15 17 16 16 16 16 12 11 6 7 8 9 10 8 11 11 10 11 13 10 8 9 9 10 12 12 11 11 12 12 14 14 15 16 16 16 15 14 14 12 12
16 17 17 17 15 13 17 16 12 15 12 7 2 7 6 7 9 9 8 8 9 13 8 8 12 12 6 11 11 12 13 13 13 14 14 13 13 13 12 11 10 10 10
15 16 15 16 14 11 10 10 10 9 8 8 8 8 4 6 9 10 9 9 10 12 12 13 12 15 7 10 10 11 11 11 10 11 12 12 10 10 9 8 8 9 10
16 16 15 13 13 10 8 8 10 11 11 10 6 9 9 8 9 10 9 7 12 13 9 7 10 9 6 6 8 8 9 9 8 8 9 8 7 8 6 6 7 9 11
17 17 16 15 13 10 9 9 8 9 10 5 7 5 8 8 8 12 10 11 15 9 8 5 9 8 9 4 5 5 6 6 6 4 5 5 5 3 2 5 7 9 11
18 17 17 15 16 12 11 10 8 8 9 8 6 10 7 7 9 11 12 14 15 9 8 11 13 13 8 9 3 4 4 4 3 3 2 2 2 1 4 6 8 11 13
19 19 18 18 16 14 12 10 10 7 7 6 10 8 9 10 11 10 10 13 14 18 20 15 10 9 4 11 13 4 6 6 6 4 2 2 9 3 6 8 9 11 18
17 20 20 18 17 17 13 16 11 10 10 5 8 7 10 12 10 10 16 13 9 10 12 12 19 15 4 6 10 10 9 6 7 7 5 4 3 5 5 10 14 15 13
17 17 19 17 18 18 16 16 17 13 13 11 7 9 10 10 8 9 13 16 16 14 6 10 10 8 16 8 9 13 6 15 8 7 8 5 7 7 5 10 15 15 14
19 16 17 18 18 18 17 14 17 14 8 8 8 10 10 9 9 12 14 16 14 15 13 10 10 9 7 5 12 11 15 12 7 17 7 17 2 9 10 10 6 20 20
20 17 18 19 19 19 19 17 17 15 10 9 9 6 9 8 8 9 15 17 16 13 12 12 11 13 10 12 10 8 14 14 15 17 14 24 15 20 6 11 10 14 18
21 20 18 20 21 20 20 19 18 18 15 14 15 14 10 11 9 9 12 14 15 13 12 13 16 15 17 15 16 13 8 12 11 7 10 11 22 12 8 18 16 12 14

GFSSE_700_spd_126.txt.gz
Wind_Speed
11 8 6 6 11 10 13 18 26 23 27 26 20 19 19 18 17 16 16 17 17 17 18 18 17 17 16 16 16 16 15 14 14 14 13 13 13 14 12 10 12 9 9
18 19 17 17 19 19 21 27 29 28 26 25 21 18 17 16 16 17 17 18 18 17 17 16 16 16 16 15 16 15 15 15 14 14 15 14 14 14 14 12 13 9 9
25 23 25 24 23 24 26 31 30 27 24 23 18 17 16 17 17 18 18 18 17 17 17 17 17 16 16 15 15 15 14 14 13 13 15 14 13 13 13 13 12 10 10
21 23 25 24 24 20 29 30 24 21 19 19 17 16 16 18 18 17 18 18 17 16 15 16 15 14 13 13 13 12 13 15 13 14 16 14 12 13 13 13 12 12 11
17 16 16 19 26 23 23 22 21 19 17 18 16 16 16 18 17 17 17 17 16 15 14 15 15 14 13 12 12 13 12 14 15 16 15 15 14 14 14 15 15 14 13
14 8 11 14 19 17 17 20 19 17 16 16 15 15 16 17 17 17 16 16 16 16 15 14 13 13 12 12 13 13 14 11 19 16 15 15 14 14 14 14 14 13 14
19 9 8 12 15 17 18 18 17 17 15 15 14 14 15 15 14 14 15 15 16 15 14 13 13 13 14 15 15 15 14 16 18 15 15 14 13 13 14 14 14 13 13
20 8 8 12 14 15 17 17 16 16 15 14 14 14 14 14 13 12 12 12 14 14 13 13 14 15 17 17 16 16 13 15 14 15 14 13 12 13 14 14 13 13 13
5 7 11 13 15 15 16 16 15 16 15 15 14 14 12 13 13 11 11 12 13 14 13 15 16 17 18 16 14 13 13 13 15 13 13 12 13 14 15 15 14 15 15
12 7 13 14 16 15 14 14 15 15 14 15 14 13 12 12 12 12 13 13 13 14 14 16 17 17 16 14 13 11 11 11 13 14 14 13 14 15 15 15 16 15 16
11 12 9 13 15 15 13 13 13 13 14 14 13 12 14 13 13 12 13 13 13 14 15 16 16 15 15 13 12 10 7 14 14 14 12 13 15 15 17 18 19 20 20
10 9 14 8 17 15 13 11 12 13 12 13 11 10 11 13 12 11 13 13 14 15 15 15 14 12 14 14 13 11 12 13 14 12 13 14 17 19 20 20 20 19 19
5 7 11 8 14 16 12 11 7 16 15 14 11 12 14 13 13 13 13 14 15 15 13 14 10 7 16 17 15 13 11 11 13 13 15 18 19 19 19 18 17 17 17
10 6 10 13 8 12 11 12 10 11 12 12 12 13 9 11 12 14 13 13 15 17 11 12 15 14 13 16 7 12 10 9 14 14 16 18 18 17 16 15 15 15 15
7 7 12 14 10 13 15 13 13 7 13 13 9 10 9 11 10 11 13 13 16 13 9 12 14 16 14 14 13 12 11 11 15 16 15 15 14 13 13 13 13 14 15
12 13 13 13 13 12 6 9 9 13 5 11 12 8 11 10 9 11 10 15 11 13 7 16 17 18 12 11 12 13 13 11 15 16 14 12 10 10 10 10 12 13 14
15 13 15 16 14 9 8 10 11 9 5 8 8 6 3 8 9 9 9 18 15 13 14 15 15 17 6 11 11 11 12 12 12 12 12 10 9 9 8 9 11 12 12
17 18 15 17 13 11 9 8 16 17 11 8 9 8 5 11 9 12 10 12 16 18 17 20 17 12 6 10 9 11 9 9 8 7 7 7 5 6 6 6 8 10 12
20 13 12 11 12 11 11 8 14 10 9 3 10 14 7 8 11 14 8 12 13 14 12 17 20 15 13 9 8 5 5 7 3 6 6 2 3 3 3 3 5 7 10
19 15 15 16 14 12 11 10 12 7 13 10 11 11 7 10 10 15 9 13 14 12 14 13 18 10 15 12 7 7 1 3 0 3 3 2 4 6 9 2 4 6 9
19 18 19 15 12 10 11 11 11 9 7 8 12 10 8 9 10 12 12 13 19 17 20 17 13 14 11 12 18 10 1 6 5 5 5 6 16 15 11 18 20 14 13
19 20 19 18 12 12 14 14 13 13 10 7 6 8 9 10 11 16 13 17 16 18 11 16 17 14 22 20 14 11 2 6 9 11 9 9 11 13 10 21 19 18 16
17 20 20 18 17 15 13 15 12 9 9 10 6 9 9 10 10 12 15 21 16 9 12 10 13 9 12 13 10 4 11 9 16 21 14 10 15 17 17 6 24 23 2
17 14 21 19 19 19 16 15 20 14 10 7 8 9 12 10 9 10 15 18 19 16 1 12 13 14 7 10 9 12 11 12 15 15 10 9 26 26 14 10 3 23 17
21 16 17 21 20 20 18 16 14 15 15 12 9 7 8 8 8 11 14 16 16 16 12 10 11 9 6 5 9 3 11 4 10 8 17 9 9 15 24 4 10 17 15
27 21 18 21 21 21 21 17 16 16 15 12 13 11 10 9 9 6 8 14 13 12 10 12 13 13 13 12 13 12 8 11 16 17 10 12 11 15 16 10 13 16 19